[[{"header":{"parameterUnit":"m.s-1","parameterCategory":1,"la1":30.6,"la2":28.766,"lo1":-90.7593,"lo2":-88.6598,"dy":0.0162,"dx":0.0183,"nx":116,"ny":114,"refTime":"2024-05-01T00:00:00:Z","depth":0,"parameterNumber":2,"parameterNumberName":"U-component_of_WINDS"},"data":[0.0,0.0,0.0,0.0,0.0,0.0,0.0,0.0,0.0,0.0,0.0,0.0,0.0,0.0,0.0,0.0,0.0,0.0,0.0,0.0,0.0,0.0,0.0,0.0,0.0,0.0,0.0,0.0,0.0,0.0,0.0,0.0,0.0,0.0,0.0,0.0,0.0,0.0,0.0,0.0,0.0,0.0,0.0,0.0,0.0,0.0,0.0,0.0,0.0,0.0,0.0,0.0,0.0,0.0,0.0,0.0,0.0,0.0,0.0,0.0,0.0,0.0,0.0,0.0,0.0,0.0,0.0,0.0,0.0,0.0,0.0,0.0,0.0,0.0,0.0,0.0,0.0,0.0,0.0,0.0,0.0,0.0,0.0,0.0,0.0,0.0,0.0,0.0,0.0,0.0,0.0,0.0,0.0,0.0,0.0,0.0,0.0,0.0,0.0,0.0,0.0,0.0,0.0,0.0,0.0,0.0,0.0,0.0,0.0,0.0,0.0,0.0,0.0,0.0,0.0,0.0,0.0,0.0,0.0,0.0,0.0,0.0,0.0,0.0,0.0,0.0,0.0,0.0,0.0,0.0,0.0,0.0,0.0,0.0,0.0,0.0,0.0,0.0,0.0,0.0,0.0,0.0,0.0,0.0,0.0,0.0,0.0,0.0,0.0,0.0,0.0,0.0,0.0,0.0,0.0,0.0,0.0,0.0,0.0,0.0,0.0,0.0,0.0,0.0,0.0,0.0,0.0,0.0,0.0,0.0,0.0,0.0,0.0,0.0,0.0,0.0,0.0,0.0,0.0,0.0,0.0,0.0,0.0,0.0,0.0,0.0,0.0,0.0,0.0,0.0,0.0,0.0,0.0,0.0,0.0,0.0,0.0,0.0,0.0,0.0,0.0,0.0,0.0,0.0,0.0,0.0,0.0,0.0,0.0,0.0,0.0,0.0,0.0,0.0,0.0,0.0,0.0,0.0,0.0,0.0,0.0,0.0,0.0,0.0,0.0,0.0,0.0,0.0,0.0,0.0,0.0,0.0,0.0,0.0,0.0,0.0,0.0,0.0,0.0,0.0,0.0,0.0,0.0,0.0,0.0,0.0,0.0,0.0,0.0,0.0,0.0,0.0,0.0,0.0,0.0,0.0,0.0,0.0,0.0,0.0,0.0,0.0,0.0,0.0,0.0,0.0,0.0,0.0,0.0,0.0,0.0,0.0,0.0,0.0,0.0,0.0,0.0,0.0,0.0,0.0,0.0,0.0,0.0,0.0,0.0,0.0,0.0,0.0,0.0,0.0,0.0,0.0,0.0,0.0,0.0,0.0,0.0,0.0,0.0,0.0,0.0,0.0,0.0,0.0,0.0,0.0,0.0,0.0,0.0,0.0,0.0,0.0,0.0,0.0,0.0,0.0,0.0,0.0,0.0,0.0,0.0,0.0,0.0,0.0,0.0,0.0,0.0,0.0,0.0,0.0,0.0,0.0,0.0,0.0,0.0,0.0,0.0,0.0,0.0,0.0,0.0,0.0,0.0,0.0,0.0,0.0,0.0,0.0,0.0,0.0,0.0,0.0,0.0,0.0,0.0,0.0,0.0,0.0,0.0,0.0,0.0,0.0,0.0,0.0,0.0,0.0,0.0,0.0,0.0,0.0,0.0,0.0,0.0,0.0,0.0,0.0,0.0,0.0,0.0,0.0,0.0,0.0,0.0,0.0,0.0,0.0,0.0,0.0,0.0,0.0,0.0,0.0,0.0,0.0,0.0,0.0,0.0,0.0,0.0,0.0,0.0,0.0,0.0,0.0,0.0,0.0,0.0,0.0,0.0,0.0,0.0,0.0,0.0,0.0,0.0,0.0,0.0,0.0,0.0,0.0,0.0,0.0,0.0,0.0,0.0,0.0,0.0,0.0,0.0,0.0,0.0,0.0,0.0,0.0,0.0,0.0,0.0,0.0,0.0,0.0,0.0,0.0,0.0,0.0,0.0,0.0,0.0,0.0,0.0,0.0,0.0,0.0,0.0,0.0,0.0,0.0,0.0,0.0,0.0,0.0,0.0,0.0,0.0,0.0,0.0,0.0,0.0,0.0,0.0,0.0,0.0,0.0,0.0,0.0,0.0,0.0,0.0,0.0,0.0,0.0,0.0,0.0,0.0,0.0,0.0,0.0,0.0,0.0,0.0,0.0,0.0,0.0,0.0,0.0,0.0,0.0,0.0,0.0,0.0,0.0,0.0,0.0,0.0,0.0,0.0,0.0,0.0,0.0,0.0,0.0,0.0,0.0,0.0,0.0,0.0,0.0,0.0,0.0,0.0,0.0,0.0,0.0,0.0,0.0,0.0,0.0,0.0,0.0,0.0,0.0,0.0,0.0,0.0,0.0,0.0,0.0,0.0,0.0,0.0,0.0,0.0,0.0,0.0,0.0,0.0,0.0,0.0,0.0,0.0,0.0,0.0,0.0,0.0,0.0,0.0,0.0,0.0,0.0,0.0,0.0,0.0,0.0,0.0,0.0,0.0,0.0,0.0,0.0,0.0,0.0,0.0,0.0,0.0,0.0,0.0,0.0,0.0,0.0,0.0,0.0,0.0,0.0,0.0,0.0,0.0,0.0,0.0,0.0,0.0,0.0,0.0,0.0,0.0,0.0,0.0,0.0,0.0,0.0,0.0,0.0,0.0,0.0,0.0,0.0,0.0,0.0,0.0,0.0,0.0,0.0,0.0,0.0,0.0,0.0,0.0,0.0,0.0,0.0,0.0,0.0,0.0,0.0,0.0,0.0,0.0,0.0,0.0,0.0,0.0,0.0,0.0,0.0,0.0,0.0,0.0,0.0,0.0,0.0,0.0,0.0,0.0,0.0,0.0,0.0,0.0,0.0,0.0,0.0,0.0,0.0,0.0,0.0,0.0,0.0,0.0,0.0,0.0,0.0,0.0,0.0,0.0,0.0,0.0,0.0,0.0,0.0,0.0,0.0,0.0,0.0,0.0,0.0,0.0,0.0,0.0,0.0,0.0,0.0,0.0,0.0,0.0,0.0,0.0,0.0,0.0,0.0,0.0,0.0,0.0,0.0,0.0,0.0,0.0,0.0,0.0,0.0,0.0,0.0,0.0,0.0,0.0,0.0,0.0,0.0,0.0,0.0,0.0,0.0,0.0,0.0,0.0,0.0,0.0,0.0,0.0,0.0,0.0,0.0,0.0,0.0,0.0,0.0,0.0,0.0,0.0,0.0,0.0,0.0,0.0,0.0,0.0,0.0,0.0,0.0,0.0,0.0,0.0,0.0,0.0,0.0,0.0,0.0,0.0,0.0,0.0,0.0,0.0,0.0,0.0,0.0,0.0,0.0,0.0,0.0,0.0,0.0,0.0,0.0,0.0,0.0,0.0,0.0,0.0,0.0,0.0,0.0,0.0,0.0,0.0,0.0,0.0,0.0,0.0,0.0,0.0,0.0,0.0,0.0,0.0,0.0,0.0,0.0,0.0,0.0,0.0,0.0,0.0,0.0,0.0,0.0,0.0,0.0,0.0,0.0,0.0,0.0,0.0,0.0,0.0,0.0,0.0,0.0,0.0,0.0,0.0,0.0,0.0,0.0,0.0,0.0,0.0,0.0,0.0,0.0,0.0,0.0,0.0,0.0,0.0,0.0,0.0,0.0,0.0,0.0,0.0,0.0,0.0,0.0,0.0,0.0,0.0,0.0,0.0,0.0,0.0,0.0,0.0,0.0,0.0,0.0,0.0,0.0,0.0,0.0,0.0,0.0,0.0,0.0,0.0,0.0,0.0,0.0,0.0,0.0,0.0,0.0,0.0,0.0,0.0,0.0,0.0,0.0,0.0,0.0,0.0,0.0,0.0,0.0,0.0,0.0,0.0,0.0,0.0,0.0,0.0,0.0,0.0,0.0,0.0,0.0,0.0,0.0,0.0,0.0,0.0,0.0,0.0,0.0,0.0,0.0,0.0,0.0,0.0,0.0,0.0,0.0,0.0,0.0,0.0,0.0,0.0,0.0,0.0,0.0,0.0,0.0,0.0,0.0,0.0,0.0,0.0,0.0,0.0,0.0,0.0,0.0,0.0,0.0,0.0,0.0,0.0,0.0,0.0,0.0,0.0,0.0,0.0,0.0,0.0,0.0,0.0,0.0,0.0,0.0,0.0,0.0,0.0,0.0,0.0,0.0,0.0,0.0,0.0,0.0,0.0,0.0,0.0,0.0,0.0,0.0,0.0,0.0,0.0,0.0,0.0,0.0,0.0,0.0,0.0,0.0,0.0,0.0,0.0,0.0,0.0,0.0,0.0,0.0,0.0,0.0,0.0,0.0,0.0,0.0,0.0,0.0,0.0,0.0,0.0,0.0,0.0,0.0,0.0,0.0,0.0,0.0,0.0,0.0,0.0,0.0,0.0,0.0,0.0,0.0,0.0,0.0,0.0,0.0,0.0,0.0,0.0,0.0,0.0,0.0,0.0,0.0,0.0,0.0,0.0,0.0,0.0,0.0,0.0,0.0,0.0,0.0,0.0,0.0,0.0,0.0,0.0,0.0,0.0,0.0,0.0,0.0,0.0,0.0,0.0,0.0,0.0,0.0,0.0,0.0,0.0,0.0,0.0,0.0,0.0,0.0,0.0,0.0,0.0,0.0,0.0,0.0,0.0,0.0,0.0,0.0,0.0,0.0,0.0,0.0,0.0,0.0,0.0,0.0,0.0,0.0,0.0,0.0,0.0,0.0,0.0,0.0,0.0,0.0,0.0,0.0,0.0,0.0,0.0,0.0,0.0,0.0,0.0,0.0,0.0,0.0,0.0,0.0,0.0,0.0,0.0,0.0,0.0,0.0,0.0,0.0,0.0,0.0,0.0,0.0,0.0,0.0,0.0,0.0,0.0,0.0,0.0,0.0,0.0,0.0,0.0,0.0,0.0,0.0,0.0,0.0,0.0,0.0,0.0,0.0,0.0,0.0,0.0,0.0,0.0,0.0,0.0,0.0,0.0,0.0,0.0,0.0,0.0,0.0,0.0,0.0,0.0,0.0,0.0,0.0,0.0,0.0,0.0,0.0,0.0,0.0,0.0,0.0,0.0,0.0,0.0,0.0,0.0,0.0,0.0,0.0,0.0,0.0,0.0,0.0,0.0,0.0,0.0,0.0,0.0,0.0,0.0,0.0,0.0,0.0,0.0,0.0,0.0,0.0,0.0,0.0,0.0,0.0,0.0,0.0,0.0,0.0,0.0,0.0,0.0,0.0,0.0,0.0,0.0,0.0,0.0,0.0,0.0,0.0,0.0,0.0,0.0,0.0,0.0,0.0,0.0,0.0,0.0,0.0,0.0,0.0,0.0,0.0,0.0,0.0,0.0,0.0,0.0,0.0,0.0,0.0,0.0,0.0,0.0,0.0,0.0,0.0,0.0,0.0,0.0,0.0,0.0,0.0,0.0,0.0,0.0,0.0,0.0,0.0,0.0,0.0,0.0,0.0,0.0,0.0,0.0,0.0,0.0,0.0,0.0,0.0,0.0,0.0,0.0,0.0,0.0,0.0,0.0,0.0,0.0,0.0,0.0,0.0,0.0,0.0,0.0,0.0,0.0,0.0,0.0,0.0,0.0,0.0,0.0,0.0,0.0,0.0,0.0,0.0,0.0,0.0,0.0,0.0,0.0,0.0,0.0,0.0,0.0,0.0,0.0,0.0,0.0,0.0,0.0,0.0,0.0,0.0,0.0,0.0,0.0,0.0,0.0,0.0,0.0,0.0,0.0,0.0,0.0,0.0,0.0,0.0,0.0,0.0,0.0,0.0,0.0,0.0,0.0,0.0,0.0,0.0,0.0,0.0,0.0,0.0,0.0,0.0,0.0,0.0,0.0,0.0,0.0,0.0,0.0,0.0,0.0,0.0,0.0,0.0,0.0,0.0,0.0,0.0,0.0,0.0,0.0,0.0,0.0,0.0,0.0,0.0,0.0,0.0,0.0,0.0,0.0,0.0,0.0,0.0,0.0,0.0,0.0,0.0,0.0,0.0,0.0,0.0,0.0,0.0,0.0,0.0,0.0,0.0,0.0,0.0,0.0,0.0,0.0,0.0,0.0,0.0,0.0,0.0,0.0,0.0,0.0,0.0,0.0,0.0,0.0,0.0,-6.2673,0.0,0.0,0.0,0.0,0.0,0.0,0.0,0.0,0.0,0.0,0.0,0.0,0.0,0.0,0.0,0.0,0.0,0.0,0.0,0.0,0.0,0.0,0.0,0.0,-6.273,-6.273,-6.278,-6.278,-6.278,-6.278,0.0,0.0,0.0,0.0,0.0,-6.1569,-6.155,-6.1526,-6.1451,-6.1382,-6.1156,-6.0736,-6.1224,-6.1501,-6.155,0.0,0.0,0.0,0.0,0.0,0.0,0.0,0.0,0.0,0.0,0.0,0.0,0.0,0.0,0.0,0.0,0.0,0.0,0.0,0.0,0.0,0.0,0.0,0.0,0.0,0.0,0.0,0.0,0.0,0.0,0.0,0.0,0.0,0.0,0.0,0.0,0.0,0.0,0.0,0.0,0.0,0.0,0.0,0.0,0.0,0.0,0.0,0.0,0.0,0.0,0.0,0.0,0.0,0.0,0.0,0.0,0.0,0.0,0.0,0.0,0.0,0.0,0.0,0.0,0.0,0.0,0.0,0.0,0.0,0.0,0.0,-6.2172,0.0,0.0,0.0,0.0,0.0,0.0,0.0,0.0,0.0,0.0,0.0,0.0,0.0,0.0,0.0,0.0,0.0,0.0,0.0,0.0,0.0,-6.2654,-6.2705,-6.2654,-6.2629,-6.2705,-6.2602,-6.2528,-6.2528,-6.24,0.0,0.0,-6.1325,-6.0939,-6.0182,-6.0182,-6.0114,-5.999,-5.9837,-5.9721,-5.9721,-5.96,-5.9595,-5.9737,-6.0152,0.0,0.0,0.0,0.0,0.0,0.0,0.0,0.0,0.0,0.0,0.0,0.0,0.0,0.0,0.0,0.0,0.0,0.0,0.0,0.0,0.0,0.0,0.0,0.0,0.0,0.0,0.0,0.0,0.0,0.0,0.0,0.0,0.0,0.0,0.0,0.0,0.0,0.0,0.0,0.0,0.0,0.0,0.0,0.0,0.0,0.0,0.0,0.0,0.0,0.0,0.0,0.0,0.0,0.0,0.0,0.0,0.0,0.0,0.0,0.0,0.0,0.0,0.0,-6.0172,-5.9797,-5.9084,-5.9178,-5.9379,-5.9763,-6.0818,-6.0986,-6.0485,0.0,0.0,0.0,0.0,0.0,0.0,0.0,0.0,0.0,0.0,0.0,0.0,0.0,0.0,0.0,0.0,0.0,0.0,0.0,0.0,-6.2679,-6.2467,-6.2526,-6.2552,-6.2467,-6.181,-6.1408,-6.1408,-6.0752,-6.0314,-6.0229,-6.0229,-6.0149,-6.004,-6.004,-6.0015,-5.999,-5.9172,-5.8725,-5.8598,-5.8017,-5.7764,-5.7844,-5.937,-6.004,-6.004,0.0,0.0,0.0,0.0,0.0,0.0,0.0,0.0,0.0,0.0,0.0,0.0,0.0,0.0,0.0,0.0,0.0,0.0,0.0,0.0,0.0,0.0,0.0,0.0,0.0,0.0,0.0,0.0,0.0,0.0,0.0,0.0,0.0,0.0,0.0,0.0,0.0,0.0,0.0,0.0,0.0,-6.1408,-6.1408,0.0,0.0,0.0,0.0,0.0,0.0,0.0,0.0,0.0,0.0,0.0,0.0,0.0,-5.9534,-5.9534,-5.9169,-5.895,-5.8857,-5.8857,-5.8782,-5.8689,-5.9027,-5.9234,-5.9307,-5.9822,0.0,-6.0417,-6.0417,0.0,0.0,0.0,0.0,0.0,0.0,0.0,0.0,0.0,0.0,0.0,0.0,0.0,0.0,0.0,0.0,0.0,0.0,0.0,0.0,0.0,-6.1773,-6.1514,-6.1102,-6.0719,-6.0518,-6.0518,-6.019,-5.9789,-5.9352,-5.9333,-5.909,-5.856,-5.8542,-5.8492,-5.8417,-5.8021,-5.7782,-5.7713,-5.7445,-5.7307,-5.7325,-5.8083,-5.8517,-5.8677,-5.9133,0.0,0.0,0.0,0.0,0.0,0.0,0.0,0.0,0.0,0.0,0.0,0.0,0.0,0.0,0.0,0.0,0.0,0.0,0.0,0.0,0.0,0.0,0.0,0.0,0.0,0.0,0.0,0.0,0.0,0.0,0.0,0.0,0.0,0.0,0.0,0.0,0.0,0.0,0.0,-6.143,-6.1029,-6.0573,-5.9932,-5.953,0.0,0.0,0.0,0.0,0.0,0.0,0.0,0.0,0.0,-5.8521,-5.8521,-5.8521,-5.8521,-5.8348,-5.8257,-5.8257,-5.8257,-5.8257,-5.8279,-5.8455,-5.8648,-5.889,-5.9288,-5.9554,-5.9758,-6.0222,-6.0417,-6.0444,0.0,0.0,0.0,0.0,-5.9471,-5.9069,0.0,0.0,0.0,0.0,0.0,0.0,0.0,0.0,0.0,0.0,0.0,0.0,-6.1043,-6.0963,-6.0685,-5.9961,-5.9707,-5.9579,-5.9579,-5.9397,-5.9015,-5.8432,-5.8396,-5.8055,-5.7356,-5.7356,-5.7289,-5.7188,-5.7188,-5.7188,-5.7188,-5.7188,-5.7188,-5.7188,-5.7036,-5.7069,-5.7307,-5.7923,-5.8058,-5.7991,0.0,0.0,0.0,0.0,0.0,0.0,0.0,0.0,0.0,0.0,0.0,0.0,0.0,0.0,0.0,0.0,0.0,0.0,0.0,0.0,0.0,0.0,0.0,0.0,0.0,0.0,0.0,0.0,0.0,0.0,0.0,0.0,0.0,0.0,0.0,0.0,0.0,-6.0744,-6.0253,-5.9652,-5.9011,-5.8592,0.0,0.0,0.0,0.0,0.0,0.0,-5.795,-5.795,-5.7973,-5.7997,-5.7997,-5.7997,-5.7997,-5.7997,-5.7997,-5.7997,-5.7997,-5.7997,-5.7997,-5.7997,-5.8164,-5.8458,-5.8666,-5.8746,-5.8822,-5.9695,-6.0003,-5.9908,-5.9788,-5.9357,-5.8803,-5.8803,-5.8421,-5.7905,0.0,0.0,0.0,0.0,0.0,0.0,0.0,0.0,0.0,0.0,0.0,-6.1846,-5.9911,-6.0453,-6.0625,-5.9695,-5.8935,-5.8482,-5.8482,-5.7775,-5.7322,-5.7286,-5.7286,-5.7268,-5.7213,-5.7213,-5.7206,-5.7188,-5.7188,-5.7188,-5.7188,-5.7188,-5.7188,-5.7163,-5.6582,-5.6339,-5.6366,-5.642,-5.6098,-5.5555,0.0,0.0,0.0,0.0,0.0,0.0,0.0,0.0,0.0,0.0,0.0,0.0,0.0,0.0,0.0,0.0,0.0,0.0,0.0,0.0,0.0,0.0,0.0,0.0,0.0,0.0,0.0,0.0,0.0,0.0,0.0,0.0,0.0,0.0,0.0,0.0,0.0,0.0,0.0,-5.85,-5.7901,0.0,0.0,0.0,0.0,-5.7625,-5.7625,-5.7673,-5.7792,-5.7815,-5.7881,-5.7997,-5.7997,-5.7997,-5.7997,-5.7997,-5.7997,-5.7997,-5.7997,-5.7997,-5.7997,-5.7997,-5.802,-5.801,-5.7661,-5.7475,-5.7576,-5.871,-5.8939,-5.8565,-5.8177,-5.8001,-5.7963,-5.7963,-5.7925,-5.7905,0.0,0.0,0.0,0.0,0.0,-6.4445,-6.4155,-6.3118,-6.2087,-6.1414,-6.1018,-6.0326,-5.9099,-5.9193,-5.8979,-5.813,-5.7786,-5.7623,-5.7623,-5.7351,-5.7188,-5.7188,-5.7188,-5.7188,-5.7188,-5.7188,-5.7188,-5.7188,-5.6811,-5.6608,-5.6608,-5.6608,-5.6402,-5.6045,-5.6211,-5.583,-5.5112,-5.556,-5.5589,-5.5385,-5.5385,-5.5543,0.0,0.0,0.0,0.0,0.0,0.0,0.0,0.0,0.0,0.0,0.0,0.0,0.0,0.0,0.0,0.0,0.0,0.0,0.0,0.0,0.0,0.0,0.0,0.0,0.0,0.0,0.0,0.0,0.0,0.0,0.0,0.0,0.0,0.0,0.0,0.0,0.0,-5.711,-5.725,0.0,-5.7388,-5.7528,-5.7601,-5.7601,-5.7601,-5.7673,-5.7792,-5.7792,-5.7862,-5.7997,-5.7997,-5.7997,-5.7997,-5.7997,-5.7997,-5.7997,-5.7997,-5.7997,-5.7997,-5.7997,-5.7997,-5.8001,-5.8119,-5.8032,-5.7762,-5.7618,-5.7496,-5.741,-5.7484,-5.7186,-5.6778,-5.6979,-5.674,-5.6301,0.0,0.0,0.0,-6.5394,-6.5068,-6.4631,-6.4175,-6.2966,-6.1925,-6.1402,-6.0431,-5.9478,-5.862,-5.8453,-5.8076,-5.7261,-5.7188,-5.7188,-5.7188,-5.7188,-5.7188,-5.7188,-5.7188,-5.7112,-5.6889,-5.6889,-5.6811,-5.6608,-5.6184,-5.6118,-5.6311,-5.6311,-5.609,-5.5705,-5.5904,-5.5396,-5.4422,-5.4676,-5.4738,-5.4738,-5.4738,-5.4738,-5.4738,0.0,0.0,0.0,0.0,0.0,0.0,0.0,0.0,0.0,0.0,0.0,0.0,0.0,0.0,0.0,0.0,0.0,0.0,0.0,0.0,0.0,0.0,0.0,0.0,0.0,0.0,0.0,0.0,0.0,0.0,0.0,0.0,0.0,0.0,0.0,-5.6965,-5.6653,-5.7043,-5.7313,-5.7313,-5.7412,-5.748,-5.748,-5.748,-5.751,-5.7649,-5.7673,-5.7721,-5.7862,-5.7904,-5.7927,-5.7927,-5.7973,-5.7997,-5.7997,-5.7997,-5.7997,-5.7997,-5.7997,-5.7997,-5.8001,-5.7983,-5.7829,-5.7528,-5.667,-5.62,-5.6015,-5.6325,-5.6129,-5.5689,-5.5912,-5.5658,-5.5214,0.0,-6.5394,-6.5394,-6.5394,-6.5068,-6.4649,-6.4195,-6.2969,-6.1865,-6.1266,-6.0326,-5.9354,-5.8464,-5.8365,-5.8058,-5.7261,-5.7188,-5.7188,-5.7188,-5.7188,-5.7188,-5.7188,-5.7188,-5.6915,-5.6311,-5.6311,-5.6017,-5.5414,-5.5414,-5.5705,-5.6311,-5.6284,-5.6284,-5.6257,-5.5676,-5.5009,-5.4359,-5.375,-5.3501,-5.3467,-5.3501,-5.3501,-5.3501,0.0,0.0,0.0,0.0,0.0,0.0,0.0,0.0,0.0,0.0,0.0,0.0,0.0,0.0,0.0,0.0,0.0,0.0,0.0,0.0,0.0,0.0,0.0,0.0,0.0,0.0,0.0,0.0,0.0,0.0,0.0,0.0,0.0,-5.7221,-5.672,-5.6474,-5.7087,-5.7163,-5.7163,-5.7188,-5.7188,-5.7188,-5.7188,-5.7188,-5.7264,-5.7388,-5.7388,-5.748,-5.7601,-5.7721,-5.7792,-5.7792,-5.7927,-5.7997,-5.7997,-5.7997,-5.7997,-5.7997,-5.7997,-5.7997,-5.796,-5.7189,-5.684,-5.6785,-5.5959,-5.5192,-5.4512,-5.4719,-5.4795,-5.4776,-5.4776,-5.4776,-5.484,-6.5394,-6.5394,-6.5394,-6.5394,-6.5298,-6.5085,-6.4667,-6.2838,-6.1345,-6.09,-5.9127,-5.7819,-5.755,-5.7532,-5.7442,-5.7224,-5.7188,-5.7188,-5.7188,-5.7188,-5.7188,-5.7188,-5.7188,-5.6915,-5.6311,-5.6311,-5.6229,-5.6045,-5.5618,-5.5705,-5.6284,-5.6219,-5.5978,-5.5647,-5.574,-5.5177,-5.4151,-5.3879,-5.35,-5.3093,-5.3399,-5.3501,-5.3501,0.0,0.0,0.0,0.0,0.0,0.0,0.0,0.0,0.0,0.0,0.0,0.0,0.0,0.0,0.0,0.0,0.0,0.0,0.0,0.0,0.0,0.0,0.0,0.0,0.0,0.0,0.0,0.0,0.0,0.0,0.0,-5.4414,-5.4352,-5.5152,-5.5053,-5.5172,-5.5748,-5.6248,-5.6732,-5.7163,-5.7188,-5.7188,-5.7188,-5.7188,-5.7264,-5.7388,-5.7388,-5.748,-5.7601,-5.7649,-5.7697,-5.7792,-5.7857,-5.7886,-5.7997,-5.7997,-5.7997,-5.7997,-5.7997,-5.7997,-5.7997,-5.7776,-5.7666,-5.7611,-5.6804,-5.6466,-5.6379,-5.5305,-5.468,-5.443,-5.443,-5.443,-5.4479,-6.5394,-6.5394,-6.5394,-6.5394,-6.5394,-6.5267,-6.4863,-6.2805,-6.1272,-6.1199,-5.8872,-5.7333,-5.7659,-5.7387,-5.7188,-5.7188,-5.7188,-5.7188,-5.7188,-5.7188,-5.7188,-5.7188,-5.7188,-5.6811,-5.5932,-5.5904,-5.5791,-5.5496,-5.5159,-5.5396,-5.6201,-5.6136,-5.5911,-5.5624,-5.5815,-5.5343,-5.4405,-5.4057,-5.3847,-5.3732,-5.3382,-5.3246,-5.3246,-5.3348,-5.3382,-5.3382,-5.3382,-5.3433,-5.3501,-5.3501,0.0,0.0,0.0,0.0,0.0,0.0,0.0,0.0,0.0,0.0,0.0,0.0,0.0,0.0,0.0,0.0,0.0,0.0,0.0,0.0,0.0,0.0,0.0,0.0,-5.3788,-5.372,-5.4389,-5.4456,-5.4624,-5.5261,-5.6198,-5.693,-5.7297,-5.7856,-5.8202,-5.8202,-5.8202,-5.8228,-5.8304,-5.833,-5.8355,-5.843,-5.8153,-5.8063,-5.8118,-5.7861,-5.7768,-5.7927,-5.7927,-5.795,-5.7997,-5.795,-5.7927,0.0,-5.7927,-5.7927,-5.789,-5.7478,-5.7214,0.0,0.0,0.0,0.0,0.0,-5.4052,-5.4105,-6.5394,-6.5394,-6.5394,-6.5394,-6.5394,-6.5283,-6.4915,-6.2881,-6.1523,-6.1919,-5.9225,-5.7554,-5.8311,-5.7677,-5.7188,-5.7188,-5.7188,-5.7188,-5.7188,-5.7188,-5.7188,-5.7188,-5.7188,-5.6661,-5.5531,-5.5502,-5.5189,-5.4593,-5.461,-5.5159,-5.6192,-5.6164,-5.6098,-5.6003,-5.5975,-5.5595,-5.4935,-5.4313,-5.4376,-5.472,-5.3466,-5.299,-5.3025,-5.3144,-5.3161,-5.3179,-5.3179,-5.3298,-5.3467,-5.3501,0.0,0.0,0.0,0.0,0.0,0.0,0.0,0.0,0.0,0.0,0.0,0.0,0.0,0.0,0.0,0.0,0.0,0.0,0.0,0.0,0.0,0.0,0.0,0.0,-5.3568,-5.3856,-5.4499,-5.4561,-5.4776,-5.5469,-5.6639,-5.7438,-5.7494,-5.8718,-5.9491,-5.9491,-5.9544,-5.9615,-5.9615,0.0,0.0,0.0,0.0,-5.8671,-5.8605,-5.802,-5.774,-5.7768,-5.7768,-5.7839,-5.795,-5.7815,-5.7768,-5.7768,-5.7768,-5.7792,-5.7792,-5.7927,-5.7496,-5.6683,-5.5395,-5.4813,-5.4626,-5.3941,-5.3662,0.0,-6.5394,-6.5394,-6.5394,-6.5394,-6.5394,-6.5379,-6.5298,-6.3384,-6.2052,-6.2363,-5.9712,-5.7988,-5.8362,-5.7677,-5.7188,-5.7188,-5.7188,-5.7188,-5.7188,-5.7188,-5.7188,-5.7188,-5.7188,-5.6863,-5.6146,-5.6118,-5.6045,-5.5915,-5.5819,-5.6118,-5.6829,-5.6609,-5.6555,-5.6609,-5.641,-5.5968,-5.5455,-5.5189,-5.4857,-5.4422,-5.3731,-5.355,-5.3649,-5.3162,-5.2972,-5.2972,-5.3144,-5.323,-5.3264,-5.3467,-5.3501,-5.3501,-5.3501,0.0,0.0,0.0,0.0,0.0,0.0,0.0,0.0,0.0,0.0,0.0,0.0,0.0,0.0,0.0,0.0,0.0,0.0,0.0,0.0,-5.3518,-5.3991,-5.4431,-5.4566,-5.5076,-5.5672,-5.6284,-5.6614,-5.6986,-5.7547,-5.8312,-5.879,-5.879,-5.9295,-5.9615,-5.9615,-5.9615,-5.9615,-5.9615,-5.9478,-5.9149,-5.8623,-5.8467,-5.8141,-5.7649,0.0,0.0,-5.7673,-5.7649,-5.7649,-5.7649,-5.7649,-5.7697,-5.7792,-5.7815,-5.7427,-5.6661,-5.535,-5.4295,-5.3518,-5.3543,-5.3445,-5.3357,-6.5394,-6.5394,-6.5394,-6.5394,-6.5394,-6.5394,-6.5394,-6.3899,-6.2576,-6.2062,-6.0042,-5.8474,-5.7962,-5.7492,-5.7188,-5.7188,-5.7188,-5.7188,-5.7188,-5.7188,-5.7188,-5.7188,-5.7188,-5.6915,-5.6311,-5.6311,-5.6311,-5.6311,-5.6164,-5.6357,-5.6899,-5.6689,-5.66,-5.66,-5.6465,-5.6255,-5.5968,-5.5578,-5.5385,-5.5325,-5.4391,-5.404,-5.4057,-5.3111,-5.2729,-5.2764,-5.2868,-5.2972,-5.3076,-5.3264,-5.3348,-5.3382,-5.3467,-5.3501,-5.3568,0.0,0.0,0.0,0.0,0.0,0.0,0.0,0.0,0.0,0.0,0.0,0.0,0.0,0.0,-5.4042,-5.4042,0.0,-5.4042,-5.4042,-5.4668,-5.5277,-5.5649,-5.6021,-5.6211,-5.6167,-5.6779,-5.7351,-5.7677,-5.8979,-5.9809,-5.9809,-6.0402,-6.081,-6.081,-6.081,-6.081,-6.081,-6.043,-5.9859,-5.9121,-5.8704,-5.8162,-5.7504,-5.7504,-5.7553,-5.7601,-5.7528,-5.7504,-5.7504,-5.7504,-5.7553,-5.7601,-5.7673,-5.7288,-5.6493,-5.5342,-5.4429,-5.3653,-5.3304,-5.3115,-5.3106,-6.5394,-6.5394,-6.5394,-6.5394,-6.5394,-6.5394,-6.5394,-6.4345,-6.3211,-6.224,-6.0636,-5.9202,-5.8124,-5.7625,-5.732,-5.7213,-5.7188,-5.7188,-5.7188,-5.7188,-5.7188,-5.7188,-5.7188,-5.6966,-5.6474,-5.6474,-5.6474,-5.6474,-5.6329,-5.6483,-5.6847,-5.6662,-5.6546,-5.6455,-5.6428,-5.6401,-5.6355,-5.5826,-5.5901,-5.63,-5.5069,-5.4516,-5.4264,-5.3162,-5.2659,-5.2553,-5.2589,-5.2694,-5.2868,-5.311,-5.3179,-5.323,-5.3433,-5.3501,-5.3501,-5.3501,-5.3501,0.0,0.0,0.0,0.0,0.0,0.0,0.0,0.0,-5.482,-5.438,-5.438,-5.3873,-5.3518,-5.3687,-5.416,-5.4599,-5.4786,-5.5446,-5.6139,-5.6714,-5.6917,-5.6799,-5.6207,-5.7123,-5.7809,-5.7809,-5.9517,-6.0651,-6.0789,-6.143,-6.185,-6.1978,-6.1996,-6.1996,-6.1996,-6.1362,-6.0575,-5.9615,-5.8963,-5.8199,-5.7363,-5.7363,-5.7431,-5.7528,-5.7412,-5.7363,-5.7363,-5.7406,-5.7388,-5.7412,-5.7534,-5.7218,-5.652,-5.5436,-5.4742,-5.4227,-5.317,-5.285,-5.2955,-6.5394,-6.5394,-6.5394,-6.5394,-6.5394,-6.5394,-6.5394,-6.4676,-6.4143,-6.4234,-6.218,-6.0585,-6.0181,-5.8805,-5.7706,-5.7239,-5.7188,-5.7188,-5.7188,-5.7188,-5.7188,-5.7188,-5.7188,-5.7163,-5.7112,-5.7112,-5.7112,-5.7112,-5.6959,-5.6925,-5.6977,-5.6715,-5.66,-5.6573,-5.6437,-5.6401,-5.6401,-5.6328,-5.6328,-5.6328,-5.5578,-5.4918,-5.4328,-5.3583,-5.2956,-5.2445,-5.257,-5.2589,-5.2694,-5.3076,-5.3179,-5.323,-5.3433,-5.3501,-5.3501,-5.3501,-5.3501,-5.3518,-5.3602,-5.3619,-5.3653,-5.3737,-5.3754,-5.3754,0.0,-5.3687,-5.3619,-5.3619,-5.3399,-5.35,-5.4312,-5.4395,-5.4595,-5.5445,-5.6207,-5.6714,-5.6799,-5.7357,-5.7746,-5.7645,-5.7785,-5.7891,-5.7891,-5.8617,-5.9429,-6.0062,-6.0729,-6.1372,-6.195,-6.1996,-6.1996,-6.1996,-6.1906,-6.1154,-5.9615,-5.9524,-5.8709,-5.7213,-5.7213,-5.7213,-5.7239,-5.7232,-5.7213,-5.7232,-5.7356,-5.7388,-5.7412,-5.7534,-5.7546,-5.7309,-5.5655,-5.4953,-5.4722,-5.3176,-5.2698,-5.2828,-6.5394,-6.5394,-6.5394,-6.5394,-6.5394,-6.5394,-6.5394,-6.5108,-6.4699,-6.411,-6.3057,-6.1863,-6.0543,-5.8961,-5.778,-5.7239,-5.7188,-5.7188,-5.7188,-5.7188,-5.7188,-5.7188,-5.7188,-5.7188,-5.7188,-5.7188,-5.7188,-5.7188,-5.7079,-5.7003,-5.7003,-5.6794,-5.6733,-5.6715,-5.6573,-5.6519,-5.6519,-5.6519,-5.6465,-5.6383,-5.6247,-5.5733,-5.4948,-5.4747,-5.3958,-5.2956,-5.2605,-5.2464,0.0,0.0,-5.2834,-5.2885,-5.3093,-5.3161,-5.3161,-5.3298,-5.3348,-5.3348,-5.3467,-5.3501,-5.3501,-5.3501,-5.3501,-5.3501,-5.3501,-5.3501,-5.3467,-5.3348,-5.3669,-5.4074,-5.4204,-5.5083,-5.5845,0.0,-5.6879,-5.7442,-5.7442,-5.7695,-5.7881,-5.7881,-5.7881,-5.7881,-5.7881,-5.8528,-5.9028,-5.933,-6.0357,-6.1104,-6.1401,-6.1794,-6.1996,-6.1996,-6.1996,-6.1218,-5.9633,-5.9615,-5.88,-5.7188,-5.7188,-5.7188,-5.7188,-5.7188,-5.7188,-5.7188,-5.7264,-5.7264,-5.7307,-5.7338,-5.7381,-5.7218,-5.5583,-5.4943,-5.4743,-5.3129,-5.2604,-5.2676,-6.5394,-6.5394,-6.5394,-6.5394,-6.5394,-6.5394,-6.5394,-6.5394,-6.5089,-6.4201,-6.3814,-6.2828,-6.0698,-5.9199,-5.8107,-5.7492,-5.7289,-5.7188,-5.7188,-5.7188,-5.7188,-5.7188,-5.7188,-5.7188,-5.7188,-5.7188,-5.7188,-5.7188,-5.7087,-5.7054,-5.7036,-5.6925,-5.6847,-5.6847,-5.6733,-5.6653,-5.6653,-5.6653,-5.66,-5.6519,-5.6715,-5.6284,-5.5513,-5.5612,-5.4744,-5.3392,-5.2872,-5.257,0.0,0.0,-5.2659,-5.2624,-5.2903,-5.2938,-5.2938,-5.3076,-5.3144,-5.3264,-5.3467,-5.3501,-5.3501,-5.3501,-5.3501,-5.3501,-5.3416,-5.3433,-5.3433,-5.3482,-5.3954,-5.4424,-5.4668,-5.5715,-5.6614,-5.678,-5.7361,-5.7862,-5.7881,-5.7881,-5.7881,-5.7881,-5.7881,-5.7881,-5.7881,-5.8334,-5.8703,-5.8892,-5.9835,-6.059,-6.0968,-6.1458,-6.1822,-6.1978,-6.1996,-6.1218,-5.9633,-5.9615,-5.88,-5.7188,-5.7188,-5.7188,-5.7188,-5.7188,-5.7188,-5.7188,-5.7188,-5.7188,-5.7188,-5.7188,-5.7188,-5.7043,-5.5504,-5.4907,-5.4707,-5.3096,-5.2531,-5.2563,-6.5394,-6.5394,-6.5394,-6.5394,-6.5394,-6.5394,-6.5394,-6.5394,-6.5394,-6.5341,-6.4653,-6.3333,-6.1128,-5.9909,-5.8901,-5.8041,-5.7504,-5.7188,-5.7188,-5.7188,-5.7188,-5.7188,-5.7188,-5.7188,-5.7188,-5.7188,-5.7188,-5.7188,-5.7206,-5.7188,-5.7188,-5.7054,-5.7003,-5.7003,-5.6847,-5.6794,-5.6794,-5.6794,-5.6794,-5.6794,-5.6794,-5.6393,-5.5794,-5.5794,-5.4881,-5.3563,-5.3409,0.0,0.0,0.0,-5.2764,-5.2659,-5.3076,-5.3041,-5.2903,-5.2903,-5.3041,-5.3264,-5.3467,-5.3501,-5.3501,-5.3501,-5.3501,-5.3467,-5.3264,-5.3213,-5.3432,-5.4121,-5.3991,-5.4283,-5.6102,-5.6148,-5.6287,-5.7399,-5.7608,-5.7662,-5.7881,-5.7881,-5.7881,-5.7881,-5.7881,-5.7881,0.0,-5.7918,-5.8209,-5.8858,-5.8926,-5.9543,-6.0909,-6.1016,-6.1326,-6.1978,-6.1996,-6.1218,-5.9633,-5.9615,-5.88,-5.7188,-5.7188,-5.7188,-5.7188,-5.7188,-5.7188,-5.7188,-5.7188,-5.7188,-5.7188,-5.7188,-5.7188,-5.7043,-5.5504,-5.4907,-5.4707,-5.3096,-5.2498,-5.2498,-6.5394,-6.5394,-6.5394,-6.5394,-6.5394,-6.5394,-6.5394,-6.5394,-6.5394,-6.5394,-6.4688,0.0,0.0,0.0,0.0,0.0,-5.8704,-5.8106,-5.7752,-5.7729,-5.7558,-5.7213,-5.7188,-5.7188,-5.7188,-5.7188,-5.7188,-5.7188,-5.7188,-5.7188,-5.7188,-5.7138,-5.7112,-5.713,-5.7003,-5.6925,-5.6925,-5.6925,-5.6873,-5.6821,-5.7003,-5.6811,-5.6474,-5.6555,-5.596,-5.5062,0.0,0.0,0.0,0.0,-5.2868,-5.2799,-5.2799,-5.2764,-5.2694,-5.2694,-5.2938,-5.3213,-5.3264,-5.3382,-5.3467,-5.3332,-5.3298,-5.323,-5.3041,-5.3007,-5.319,-5.377,-5.4269,-5.4885,-5.5738,-5.6417,-5.6892,-5.7164,-5.7327,-5.7476,-5.7662,-5.8137,-5.8477,-5.8589,-5.8626,0.0,0.0,0.0,0.0,-5.8244,-5.8651,-5.9129,-5.9576,-6.0481,-6.1104,-6.1326,-6.1766,-6.1218,-5.9633,-5.9615,-5.88,-5.7188,-5.7188,-5.7188,-5.7188,-5.7188,-5.7188,-5.7188,-5.7188,-5.7188,-5.7188,-5.7188,-5.7188,-5.7043,-5.5504,-5.4907,-5.4707,-5.3096,-5.2498,-5.2498,0.0,-6.6292,-6.6197,-6.591,-6.5853,0.0,0.0,0.0,0.0,0.0,0.0,0.0,0.0,0.0,0.0,0.0,0.0,-5.9106,-5.877,-5.8468,-5.8124,-5.7752,-5.7576,-5.7456,-5.7443,-5.7289,-5.7188,-5.7188,-5.7188,-5.7188,-5.7188,-5.737,-5.7443,-5.7468,-5.7546,-5.7576,-5.7576,-5.7576,-5.7528,-5.7437,-5.7449,-5.7345,-5.7195,-5.7112,-5.6561,0.0,0.0,0.0,0.0,0.0,-5.3076,-5.2764,-5.2729,-5.2624,-5.2535,-5.2605,-5.2764,-5.3007,-5.3076,-5.3195,-5.323,-5.3127,-5.3076,-5.3041,-5.2834,-5.2799,-5.3048,-5.3925,-5.4509,-5.5142,-5.5933,-5.6633,-5.7146,-5.7337,-5.7501,-5.7691,-5.7937,-5.8631,-5.9094,-5.9011,-5.9015,-5.9015,0.0,0.0,0.0,-5.7881,-5.8298,-5.8651,-5.8892,-5.9771,-6.0357,-6.0638,-6.1297,-6.0862,-5.9258,-5.9491,-5.88,-5.7188,-5.7188,-5.7188,-5.7188,-5.7188,-5.7188,-5.7188,-5.7188,-5.7188,-5.7188,-5.7188,-5.7025,-5.6645,-5.5395,-5.4725,-5.4309,-5.2987,-5.2498,-5.2498,0.0,0.0,-6.7649,0.0,0.0,0.0,0.0,0.0,0.0,0.0,0.0,0.0,0.0,0.0,0.0,0.0,0.0,0.0,-6.0147,-5.938,-5.8853,-5.8715,-5.8277,-5.7986,-5.7905,-5.7474,-5.7264,-5.7239,-5.7264,-5.7264,-5.7289,-5.7737,-5.7928,-5.7951,-5.8397,-5.8607,-5.8607,-5.8607,-5.8607,-5.8566,-5.809,-5.7905,-5.7835,-5.737,0.0,0.0,0.0,0.0,-5.506,-5.4347,-5.3432,-5.2659,-5.2834,-5.2676,-5.2409,-5.257,-5.2589,-5.2624,-5.2834,-5.2903,-5.2903,-5.2868,-5.2868,-5.2834,-5.2624,-5.2589,-5.3005,-5.4469,-5.4621,-5.4995,-5.6682,-5.6834,-5.6989,-5.7881,-5.8036,-5.8152,-5.8535,-5.9266,-5.9544,0.0,0.0,0.0,0.0,0.0,0.0,-5.7881,0.0,-5.8173,-5.8789,-5.8892,-5.923,-5.9902,-6.0585,-6.0183,-5.8638,-5.9195,-5.8709,-5.7188,-5.7188,-5.7188,-5.7188,-5.7188,-5.7188,-5.7188,-5.7188,-5.7188,-5.7188,-5.7188,-5.6717,-5.5921,-5.5196,-5.4418,-5.3603,-5.2788,-5.2498,-5.2498,0.0,0.0,0.0,0.0,0.0,0.0,0.0,0.0,0.0,0.0,0.0,0.0,0.0,0.0,0.0,0.0,0.0,0.0,-6.0748,-6.0503,-5.989,-5.8815,-5.8657,-5.8389,0.0,0.0,0.0,-5.7737,-5.8068,-5.8245,-5.8245,-5.8375,-5.8418,-5.8418,-5.8545,-5.8607,-5.8607,-5.8607,-5.8607,-5.8566,0.0,-5.7905,-5.7835,0.0,0.0,0.0,0.0,-5.6536,-5.5834,-5.4709,-5.3682,-5.2799,-5.2694,-5.2535,-5.2426,-5.2445,-5.2535,-5.2589,-5.2659,-5.2799,-5.2868,-5.2694,-5.2659,-5.264,-5.248,-5.2445,-5.2859,-5.4286,-5.4527,-5.4974,-5.6492,-5.6719,-5.6785,-5.7022,-5.7039,0.0,-5.7385,-5.821,0.0,-5.877,-5.8903,-5.9015,-5.9015,-5.8338,0.0,0.0,-5.7881,-5.7974,-5.8137,-5.8651,-5.8994,-5.9163,-5.9779,-5.9619,-5.862,-5.8096,-5.7605,-5.7188,-5.7188,-5.7188,-5.7188,-5.7188,-5.7188,-5.7188,-5.7188,-5.7188,-5.7188,-5.7188,-5.6717,-5.5921,-5.5196,-5.4418,-5.3603,-5.2788,-5.2498,-5.2498,0.0,0.0,0.0,0.0,0.0,0.0,0.0,0.0,0.0,0.0,0.0,0.0,0.0,0.0,0.0,0.0,0.0,0.0,0.0,-6.1622,-6.0828,-6.0029,-5.9456,-5.899,0.0,0.0,0.0,0.0,0.0,0.0,-5.8674,-5.8892,-5.8989,-5.8989,-5.9178,-5.9252,-5.9252,-5.9252,0.0,0.0,0.0,0.0,0.0,0.0,0.0,0.0,-5.7188,-5.6811,-5.6184,-5.5391,-5.4183,-5.3007,-5.2799,-5.2676,-5.2605,-5.2499,-5.2535,-5.2605,-5.2535,-5.2605,-5.264,-5.2535,-5.2499,-5.2499,-5.2409,-5.2409,-5.2788,-5.4229,-5.449,-5.4957,-5.6415,-5.668,-5.6796,-5.7111,-5.7177,-5.7238,-5.7431,-5.8236,-5.8741,-5.8711,-5.879,-5.8903,-5.8978,-5.8338,-5.7881,0.0,-5.7881,-5.7881,-5.7881,-5.8263,-5.8458,-5.8458,-5.8764,-5.8648,-5.8131,-5.7502,-5.7188,-5.7188,-5.7188,-5.7188,-5.7188,-5.7188,-5.7188,-5.7188,0.0,-5.7188,-5.717,-5.6808,-5.621,-5.5432,-5.4671,-5.3892,-5.3114,-5.2661,-5.2498,-5.2498,0.0,0.0,0.0,0.0,0.0,0.0,0.0,0.0,0.0,0.0,-6.5643,-6.5528,-6.5413,-6.5394,0.0,0.0,0.0,0.0,0.0,0.0,-6.1869,-6.1696,-6.0526,-5.9805,-5.9688,-5.9233,0.0,0.0,0.0,0.0,0.0,0.0,0.0,0.0,0.0,0.0,0.0,0.0,0.0,0.0,0.0,0.0,0.0,0.0,0.0,0.0,-5.7188,-5.6811,-5.6266,-5.6103,-5.4835,-5.3298,-5.3093,-5.2972,-5.2868,-5.2694,-5.2624,-5.2553,-5.248,-5.2409,-5.2409,-5.2409,-5.2409,-5.2409,-5.2409,-5.2409,-5.2754,-5.4096,-5.4407,-5.4941,-5.6299,-5.6614,-5.6895,-5.7541,-5.7641,-5.7719,-5.7875,-5.848,-5.8825,-5.8572,-5.8526,-5.8639,-5.8825,-5.8271,-5.7881,-5.7881,-5.7881,-5.7881,-5.7881,-5.7881,-5.787,-5.7722,-5.7569,-5.7465,-5.7356,-5.7179,-5.7112,-5.7188,-5.7188,-5.7188,-5.7188,-5.7188,-5.7188,-5.7188,0.0,0.0,-5.7134,-5.6319,-5.5558,-5.4834,-5.4019,-5.3204,-5.2498,-5.2498,-5.2498,-5.2498,0.0,0.0,0.0,0.0,0.0,0.0,0.0,0.0,0.0,0.0,-6.6885,-6.6197,0.0,0.0,0.0,0.0,0.0,0.0,0.0,0.0,0.0,-6.2691,-6.1768,-6.1073,-6.0679,-6.0253,-5.9826,-5.9377,-5.9706,0.0,0.0,0.0,0.0,0.0,0.0,0.0,0.0,0.0,0.0,0.0,0.0,0.0,0.0,0.0,0.0,0.0,-5.7188,-5.6811,-5.6284,-5.6266,-5.5214,-5.391,-5.3781,-5.3349,-5.2903,-5.2868,-5.2729,-5.2589,-5.257,-5.2464,-5.2409,-5.2409,-5.2409,-5.2409,-5.2409,-5.2409,-5.2622,-5.3434,-5.4096,-5.4738,-5.5653,-5.6299,-5.673,-5.6862,-5.6879,-5.6917,-5.6956,-5.7188,-5.7435,-5.7528,-5.7698,-5.7864,-5.8084,-5.7966,0.0,0.0,0.0,-5.7881,-5.7881,-5.7881,-5.7576,-5.6865,-5.6224,-5.6108,-5.648,-5.6465,-5.6706,-5.7188,-5.7188,-5.7188,-5.7188,-5.7188,-5.7188,-5.7188,-5.7188,0.0,-5.7134,-5.6319,-5.5558,-5.4834,-5.4019,-5.3204,-5.2498,-5.2498,-5.2498,-5.2498,0.0,0.0,0.0,0.0,0.0,0.0,0.0,-6.9827,-6.9521,-6.868,-6.8241,-6.7515,-6.6216,-6.6082,-6.5891,0.0,0.0,0.0,0.0,0.0,0.0,0.0,0.0,0.0,0.0,-6.1309,-6.0855,-6.0596,0.0,-6.0256,-6.0256,-6.0256,-6.0256,-6.0256,0.0,0.0,0.0,0.0,0.0,0.0,0.0,0.0,0.0,0.0,0.0,0.0,0.0,-5.6992,-5.6785,-5.6785,-5.6093,-5.5124,-5.4391,-5.3699,-5.3195,-5.3093,-5.2972,-5.2868,-5.2676,-5.257,-5.248,-5.2409,-5.2409,-5.2409,-5.2409,-5.2409,-5.2572,-5.3268,-5.3699,-5.4295,-5.5383,-5.5901,-5.6249,-5.663,-5.668,-5.668,-5.668,-5.6796,-5.6911,-5.7139,-5.7214,-5.7402,-5.7698,-5.7735,-5.7772,-5.7881,0.0,-5.7881,-5.7881,-5.7526,-5.6942,-5.615,-5.5714,-5.5435,-5.529,-5.5676,-5.6128,-5.6732,-5.6732,-5.6889,-5.7188,-5.7188,-5.7188,-5.7188,-5.7188,0.0,-5.6518,-5.574,-5.4979,-5.42,-5.3385,-5.2842,-5.2498,-5.2498,-5.2498,-5.2498,0.0,0.0,0.0,0.0,0.0,0.0,-7.04,-7.04,-7.017,-6.954,-6.9464,-6.889,-6.74,-6.6923,-6.6426,0.0,0.0,0.0,0.0,0.0,0.0,0.0,0.0,0.0,0.0,0.0,0.0,-6.1879,-6.1058,0.0,0.0,0.0,0.0,0.0,-6.0313,-6.0313,-6.0403,0.0,0.0,0.0,0.0,0.0,0.0,0.0,0.0,0.0,0.0,-5.7188,-5.7188,-5.7188,-5.6811,-5.6128,-5.5112,-5.4299,-5.3634,-5.3365,-5.3213,-5.3144,-5.2799,-5.2659,-5.2553,-5.248,-5.2409,-5.2409,-5.2409,-5.2409,-5.2539,-5.3086,-5.3318,-5.3728,-5.4903,-5.5367,-5.5802,-5.6365,-5.6581,-5.668,-5.668,-5.668,-5.6757,-5.6987,-5.6987,0.0,-5.7551,-5.7588,0.0,-5.7881,0.0,0.0,-5.7662,-5.6968,-5.6241,-5.5497,-5.5227,-5.4868,-5.4391,-5.4918,-5.5502,-5.6118,-5.6229,-5.6555,-5.701,-5.7138,-5.7188,-5.7188,-5.7188,0.0,0.0,-5.5196,-5.4436,-5.3621,-5.2806,-5.2498,-5.2498,-5.2498,-5.2498,-5.2498,0.0,0.0,0.0,0.0,0.0,0.0,-7.04,-7.04,-7.0381,-7.0304,-7.0304,-6.996,-6.9062,-6.761,-6.6674,0.0,0.0,0.0,0.0,0.0,0.0,0.0,0.0,0.0,0.0,0.0,0.0,-6.2777,-6.1917,0.0,0.0,0.0,0.0,0.0,0.0,-6.0068,-6.0403,-6.0403,0.0,0.0,0.0,0.0,0.0,0.0,0.0,0.0,0.0,-5.7188,-5.7188,-5.7188,-5.6811,-5.6284,-5.6156,-5.529,-5.4203,-5.3634,-5.3348,-5.3179,-5.3144,-5.2868,-5.2605,-5.2589,-5.2499,-5.2409,-5.2409,-5.2409,-5.2442,-5.2473,-5.297,-5.345,-5.3599,-5.4688,-5.5599,-5.5681,-5.6266,-5.668,-5.668,-5.668,-5.6757,-5.6987,0.0,0.0,-5.7551,-5.7588,-5.7698,-5.7881,0.0,0.0,-5.6934,-5.6207,-5.5463,-5.4718,-5.4042,-5.39,-5.4391,-5.4454,-5.4826,-5.5473,-5.6035,-5.6339,-5.6393,-5.6941,-5.7188,-5.7188,-5.7188,0.0,0.0,-5.5196,-5.4436,-5.3621,-5.2806,-5.2498,-5.2498,-5.2498,-5.2498,-5.2498,0.0,0.0,0.0,0.0,0.0,0.0,-7.04,-7.04,-7.04,-7.04,-7.04,-7.0285,-6.996,-6.889,-6.7802,-6.6789,-6.6388,0.0,0.0,0.0,0.0,0.0,0.0,0.0,0.0,0.0,-6.327,-6.327,-6.2144,0.0,0.0,0.0,0.0,0.0,0.0,-6.0019,-6.0403,0.0,0.0,0.0,0.0,0.0,0.0,0.0,0.0,0.0,0.0,0.0,-5.7188,-5.7188,-5.7036,-5.6785,-5.642,-5.5961,-5.5367,-5.433,-5.3733,-5.3332,-5.323,-5.3076,-5.2903,-5.2659,-5.257,-5.2535,-5.2535,-5.248,-5.2409,-5.2499,-5.266,-5.292,-5.3334,-5.3861,-5.4593,-5.545,-5.5868,0.0,-5.663,-5.668,-5.6719,-5.6796,-5.6834,-5.6911,0.0,0.0,-5.7364,-5.7698,0.0,0.0,-5.619,-5.5869,-5.5361,-5.4617,-5.3873,-5.3618,-5.3865,-5.3865,-5.4188,-5.4795,-5.5022,-5.5554,-5.6311,-5.6555,-5.6863,-5.717,-5.6681,0.0,0.0,-5.4508,-5.3693,-5.2951,-5.2625,-5.2498,-5.2498,-5.2498,-5.2498,-5.2498,0.0,0.0,0.0,0.0,0.0,-7.04,-7.04,-7.04,-7.04,-7.04,-7.04,-7.04,-7.04,-6.9884,-6.8986,-6.7553,-6.6999,0.0,0.0,0.0,0.0,0.0,0.0,0.0,0.0,0.0,-6.3884,-6.3884,-6.2729,-6.2222,0.0,0.0,-6.1026,-6.1153,0.0,0.0,0.0,0.0,0.0,0.0,0.0,0.0,0.0,0.0,0.0,0.0,0.0,0.0,0.0,0.0,0.0,-5.7138,-5.6706,-5.6447,-5.6045,-5.4778,-5.4091,-5.3684,-5.3365,-5.3195,-5.3041,-5.2764,-5.2605,-5.2535,-5.2535,-5.248,-5.2409,-5.2535,-5.248,-5.2523,-5.3019,-5.3284,-5.3765,-5.4771,0.0,-5.5764,-5.6299,-5.6547,-5.668,-5.668,0.0,-5.6757,0.0,-5.7063,-5.7131,0.0,0.0,0.0,-5.5429,-5.5378,-5.504,-5.4296,-5.3771,-5.3501,-5.3501,-5.3501,-5.3701,-5.4156,-5.4296,-5.487,-5.5744,-5.6128,-5.6304,-5.6293,0.0,0.0,0.0,-5.3857,-5.3222,-5.2498,-5.2498,-5.2498,-5.2498,-5.2498,-5.2498,-5.2498,0.0,0.0,0.0,0.0,0.0,-7.04,-7.04,-7.04,-7.04,-7.04,-7.04,-7.04,-7.04,-7.04,-7.0075,-6.9253,-6.7668,0.0,0.0,0.0,0.0,0.0,0.0,0.0,-6.4811,-6.4792,-6.4792,-6.4792,-6.3904,-6.3712,-6.4153,-6.2873,-6.2034,-6.1578,0.0,0.0,0.0,0.0,0.0,0.0,0.0,0.0,0.0,0.0,0.0,0.0,0.0,0.0,0.0,0.0,0.0,0.0,0.0,-5.6785,-5.6045,-5.4778,-5.4391,-5.4249,-5.3668,-5.3212,-5.2903,-5.2903,-5.264,-5.2409,-5.2409,-5.2409,-5.2409,-5.2409,-5.2409,-5.2409,-5.239,-5.2953,-5.3417,-5.3434,-5.4676,0.0,-5.5599,-5.6249,-5.668,0.0,0.0,-5.6757,-5.6987,-5.7176,-5.7063,0.0,0.0,0.0,-5.4685,-5.46,-5.4262,-5.3534,-5.3501,-5.3501,-5.3501,-5.3501,-5.3501,-5.3534,-5.4106,-5.4422,-5.4454,-5.5716,-5.5545,0.0,0.0,0.0,0.0,-5.346,-5.3222,-5.2498,-5.2498,-5.2498,-5.2498,-5.2498,-5.2498,-5.2498,0.0,0.0,0.0,0.0,0.0,0.0,-7.04,-7.04,-7.04,-7.04,-7.04,-7.04,-7.04,-7.04,-7.0304,-7.0037,-6.9024,0.0,0.0,0.0,0.0,0.0,0.0,-6.5349,-6.5201,-6.4932,-6.4631,-6.4312,-6.377,-6.3411,-6.3221,-6.2271,-6.1882,-6.1972,-6.0729,-6.0248,0.0,0.0,0.0,0.0,0.0,0.0,0.0,0.0,0.0,0.0,0.0,0.0,0.0,0.0,0.0,0.0,0.0,0.0,0.0,-5.5455,-5.4765,-5.4281,-5.3668,-5.3399,-5.3246,-5.2989,-5.2799,-5.2711,-5.257,-5.248,-5.2409,-5.2535,-5.248,-5.2409,-5.2409,-5.2556,-5.287,-5.3334,-5.3814,0.0,0.0,0.0,0.0,-5.5968,-5.6382,-5.6536,0.0,0.0,0.0,0.0,0.0,0.0,-5.4409,-5.4041,-5.3737,-5.3518,-5.3501,-5.3501,-5.3501,-5.3501,-5.3501,-5.3501,-5.3701,-5.4011,-5.4422,-5.4809,0.0,0.0,0.0,0.0,0.0,-5.2846,-5.2733,-5.2498,-5.2498,-5.2498,-5.2498,-5.2498,-5.2498,-5.2498,0.0,0.0,0.0,0.0,0.0,0.0,-7.04,-7.04,-7.04,-7.04,-7.04,-7.04,-7.04,-7.04,-7.04,-7.04,-6.9941,0.0,0.0,0.0,0.0,0.0,-6.5394,-6.5333,-6.5169,-6.4915,-6.4576,-6.4096,-6.3848,-6.3583,-6.3289,-6.2771,-6.2521,-6.2425,-6.1421,-6.0763,0.0,0.0,0.0,0.0,0.0,0.0,-5.8563,0.0,0.0,0.0,0.0,0.0,0.0,0.0,0.0,0.0,0.0,0.0,0.0,0.0,-5.5099,-5.4579,-5.3734,-5.345,-5.3314,-5.2972,-5.2834,-5.2729,-5.257,-5.248,-5.2409,-5.2516,-5.248,-5.2409,-5.2409,-5.2409,-5.2523,-5.2953,-5.3235,-5.3566,0.0,0.0,0.0,-5.5168,0.0,0.0,0.0,-5.5281,0.0,0.0,0.0,0.0,-5.3902,-5.3636,-5.3501,-5.3501,-5.3501,-5.3501,-5.3501,-5.3501,-5.3501,-5.3501,-5.3501,-5.3701,-5.4042,-5.402,0.0,0.0,0.0,0.0,0.0,-5.236,-5.2498,-5.2498,-5.2498,-5.2498,-5.2498,-5.2498,-5.2498,-5.2462,0.0,0.0,0.0,0.0,0.0,0.0,0.0,-7.04,-7.04,-7.04,-7.04,-7.04,-7.04,-7.04,-7.04,-7.04,-7.04,0.0,0.0,0.0,0.0,-6.5528,-6.5433,-6.5236,-6.4846,-6.4811,-6.4576,-6.4096,-6.4075,-6.4036,-6.4014,-6.4014,-6.3602,-6.2908,-6.2833,-6.1896,0.0,0.0,0.0,0.0,-5.875,-5.8586,0.0,0.0,0.0,0.0,0.0,0.0,0.0,0.0,0.0,0.0,0.0,0.0,0.0,0.0,0.0,0.0,0.0,-5.3348,-5.3179,-5.2972,-5.2764,-5.257,-5.2445,-5.2426,0.0,-5.2409,-5.2409,-5.2409,-5.2409,-5.2409,-5.2409,-5.2409,-5.292,-5.3334,0.0,-5.398,0.0,0.0,-5.449,0.0,-5.4444,0.0,0.0,0.0,0.0,0.0,-5.3178,-5.3348,-5.3467,-5.3467,-5.3467,-5.3501,-5.3501,-5.3501,-5.3501,-5.3501,-5.3501,-5.3467,-5.3399,-5.3286,0.0,0.0,0.0,0.0,0.0,-5.1909,-5.241,-5.2498,-5.2457,-5.2475,-5.2498,-5.2498,-5.2498,-5.2371,0.0,0.0,0.0,0.0,0.0,0.0,0.0,0.0,0.0,0.0,-7.04,-7.04,-7.04,-7.04,-7.04,0.0,0.0,0.0,0.0,0.0,0.0,-6.6426,-6.5757,-6.5364,-6.5267,-6.4968,-6.4576,-6.4096,-6.3803,-6.3449,-6.3115,-6.3115,-6.2999,-6.2796,-6.2192,-6.1178,0.0,0.0,0.0,0.0,-5.8648,-5.8434,0.0,0.0,0.0,0.0,-5.7649,-5.751,0.0,0.0,0.0,0.0,0.0,0.0,0.0,0.0,-5.5385,-5.5117,-5.3849,0.0,-5.3382,-5.3195,-5.2972,-5.2764,0.0,-5.2464,-5.2409,-5.2409,-5.2409,-5.2409,-5.2409,-5.2409,-5.2409,-5.2409,-5.2523,-5.2622,-5.2622,-5.3235,0.0,-5.4407,-5.449,-5.4258,-5.3732,0.0,0.0,0.0,0.0,-5.2877,-5.2746,-5.2938,-5.3127,-5.3264,-5.3264,-5.3348,-5.3501,-5.3501,-5.3501,-5.3501,-5.3501,-5.3179,-5.257,-5.2548,0.0,0.0,0.0,0.0,-5.0724,-5.1008,-5.1676,-5.2457,-5.2,-5.2096,-5.2498,-5.2498,-5.2498,-5.2371,0.0,0.0,0.0,0.0,0.0,0.0,0.0,0.0,0.0,0.0,-7.04,-7.04,-7.04,-7.04,-7.04,0.0,0.0,0.0,0.0,-6.8967,-6.7954,-6.6751,-6.6254,-6.5718,-6.5136,-6.4915,-6.4483,-6.3806,-6.3605,-6.3257,-6.278,-6.278,-6.278,-6.2743,-6.1961,-6.1022,-6.0,-5.9228,-5.8655,-5.8326,-5.8326,0.0,0.0,0.0,0.0,0.0,-5.7673,-5.7553,0.0,-5.7282,-5.7188,-5.7188,0.0,0.0,0.0,0.0,-5.5385,-5.5117,-5.3866,-5.3501,-5.3433,-5.3127,-5.2972,-5.2834,-5.257,-5.2445,-5.2409,-5.2409,-5.2409,-5.2409,-5.2409,-5.2409,-5.2409,-5.2409,-5.2409,0.0,0.0,0.0,-5.3086,-5.35,-5.3549,-5.3384,0.0,0.0,0.0,0.0,0.0,-5.2589,-5.2589,-5.2799,-5.2938,-5.3041,-5.3144,-5.3298,-5.3501,-5.3501,-5.3501,-5.3501,-5.3501,-5.3078,-5.2283,-5.1961,-5.1183,0.0,0.0,0.0,-5.0359,-5.0589,-5.1087,-5.1676,-5.1601,-5.1811,-5.2114,-5.241,-5.2263,-5.1828,0.0,0.0,0.0,0.0,0.0,0.0,0.0,0.0,0.0,0.0,0.0,0.0,0.0,0.0,0.0,0.0,0.0,0.0,0.0,-6.9769,-6.8699,-6.7152,-6.6846,-6.6097,-6.483,-6.4721,-6.4292,-6.349,-6.3422,-6.3186,-6.278,-6.278,-6.278,-6.2743,-6.1961,-6.1153,-6.0346,-5.9533,-5.8749,-5.7997,-5.7997,0.0,0.0,0.0,0.0,0.0,0.0,0.0,0.0,-5.7289,-5.7188,-5.7188,-5.7188,0.0,0.0,0.0,0.0,0.0,-5.3816,-5.3467,-5.3382,-5.3024,-5.2903,-5.2764,-5.2516,-5.2409,-5.2409,-5.2409,-5.2409,-5.2409,-5.2409,-5.2409,-5.2409,-5.2409,-5.2409,0.0,-5.2409,-5.2409,-5.2409,-5.2409,-5.2409,0.0,0.0,0.0,0.0,0.0,0.0,-5.257,-5.257,-5.2729,-5.2834,-5.2834,-5.3007,-5.3195,-5.3399,-5.3467,-5.3501,-5.3501,-5.3382,-5.2909,-5.2114,-5.1386,-5.0642,0.0,0.0,0.0,-4.993,-5.0276,-5.0535,-5.0751,-5.126,-5.1525,-5.1651,-5.206,-5.1818,-5.1158,0.0,0.0,0.0,0.0,0.0,0.0,0.0,0.0,0.0,0.0,0.0,0.0,0.0,0.0,0.0,0.0,0.0,0.0,0.0,-7.0285,-6.9807,-6.8852,-6.7458,-6.6097,-6.483,-6.4407,-6.3992,-6.349,-6.311,-6.288,-6.278,-6.278,-6.278,-6.2743,-6.1961,-6.1153,-6.0346,-5.9533,-5.8749,-5.7997,-5.7997,0.0,0.0,0.0,0.0,0.0,0.0,0.0,0.0,-5.7289,-5.7188,-5.7188,-5.7188,0.0,0.0,0.0,0.0,0.0,-5.3617,-5.3264,-5.323,-5.3179,-5.2903,-5.2624,-5.257,-5.248,-5.2409,-5.2409,-5.2409,-5.2409,-5.2409,-5.2409,-5.2409,-5.2409,-5.2409,-5.2409,0.0,0.0,-5.2409,-5.2409,0.0,0.0,0.0,0.0,0.0,0.0,0.0,-5.2445,-5.2445,-5.2445,-5.2551,-5.2624,-5.2659,-5.2799,-5.2989,-5.3314,-5.3501,-5.3501,-5.2807,-5.2097,-5.132,-5.0608,-4.9864,0.0,0.0,-4.9424,-4.9861,-4.9436,-4.9826,-5.0724,-5.0805,-5.1157,-5.153,-5.0992,-5.1016,-5.1086,0.0,0.0,0.0,0.0,0.0,0.0,0.0,0.0,0.0,0.0,0.0,0.0,0.0,0.0,0.0,0.0,0.0,0.0,-7.04,-7.04,-7.0037,-6.9234,-6.7795,-6.6418,-6.5162,-6.444,-6.3785,-6.3134,-6.2904,-6.278,-6.278,-6.278,-6.278,-6.2743,-6.1961,-6.1153,-6.0346,-5.9533,-5.8749,-5.7997,0.0,0.0,0.0,0.0,0.0,0.0,0.0,0.0,0.0,0.0,-5.6899,-5.6536,-5.6536,0.0,0.0,0.0,0.0,0.0,-5.3583,-5.311,-5.3007,-5.2903,-5.2729,-5.257,-5.2499,-5.2445,-5.2409,-5.2409,-5.2409,-5.2409,-5.2409,-5.2409,-5.2409,-5.2409,0.0,-5.2409,-5.2409,-5.2409,-5.2409,0.0,0.0,0.0,0.0,0.0,0.0,0.0,0.0,0.0,-5.2409,-5.2409,-5.2445,-5.2499,-5.257,-5.2624,-5.2729,-5.3024,-5.3044,-5.2758,-5.2387,-5.1627,-5.0591,-5.0253,-4.9695,-4.9001,0.0,-4.9168,-4.9394,-4.9107,-4.9316,-4.9826,-5.0124,-5.0607,-5.1049,-5.0504,-4.9968,-4.9446,0.0,0.0,0.0,0.0,0.0,0.0,0.0,0.0,0.0,0.0,0.0,0.0,0.0,0.0,0.0,0.0,0.0,0.0,-7.04,-7.04,-7.0064,-6.9368,-6.8044,-6.6692,-6.5431,-6.4445,-6.3587,-6.278,-6.278,-6.278,-6.278,-6.278,-6.278,-6.2743,-6.1961,-6.1153,-6.0346,-5.9533,-5.8749,-5.7997,0.0,0.0,0.0,0.0,0.0,0.0,0.0,0.0,0.0,0.0,0.0,0.0,0.0,0.0,0.0,-5.455,-5.4741,-5.5026,-5.355,-5.2972,-5.2799,-5.2605,-5.257,-5.2535,-5.2409,-5.2409,-5.2409,-5.2409,-5.2409,-5.2409,-5.2409,-5.2409,-5.2409,-5.2409,-5.2409,-5.2409,-5.2409,-5.2409,-5.2409,0.0,0.0,0.0,0.0,0.0,0.0,0.0,0.0,0.0,-5.2409,-5.2409,-5.2409,-5.2409,-5.2499,-5.257,-5.257,-5.2527,-5.2367,-5.2102,-5.1916,-5.1241,-5.0084,-4.9915,-4.9526,-4.9001,-4.9001,-4.9001,-4.9001,-4.9001,-4.9001,-4.9063,-4.9656,-4.9944,-4.9942,-4.9591,-4.8613,-4.7453,0.0,0.0,0.0,0.0,0.0,0.0,0.0,0.0,0.0,0.0,0.0,0.0,0.0,0.0,0.0,0.0,0.0,0.0,-7.04,-7.04,-7.0211,-6.9777,-6.8185,-6.6692,-6.5431,-6.4168,-6.3303,-6.278,-6.278,-6.278,-6.278,-6.278,-6.278,-6.2743,-6.1961,-6.1153,-6.0346,-5.9533,-5.8749,-5.7997,-5.7997,0.0,0.0,0.0,0.0,0.0,0.0,0.0,0.0,0.0,0.0,0.0,0.0,0.0,-5.5757,-5.455,-5.4653,-5.4809,-5.3298,-5.2764,-5.2605,-5.2445,-5.2409,-5.2409,-5.2409,-5.2409,-5.2409,-5.2409,-5.2409,-5.2409,-5.2409,-5.2409,-5.2409,-5.2409,-5.2409,-5.2409,-5.2409,0.0,0.0,0.0,0.0,0.0,0.0,0.0,0.0,0.0,0.0,0.0,-5.2409,0.0,0.0,-5.2409,-5.2409,-5.2409,-5.2409,-5.173,-5.1642,-5.2085,-5.1395,-5.0735,-5.0067,-4.939,-4.9052,-4.9001,-4.9001,-4.9001,-4.9001,-4.9001,-4.9001,-4.9063,-4.9656,-4.905,-4.7805,-4.7567,-4.6652,-4.5632,0.0,0.0,0.0,0.0,0.0,0.0,0.0,0.0,0.0,0.0,0.0,0.0,0.0,0.0,0.0,0.0,0.0,-7.04,-7.04,-7.0161,-6.9946,-6.9797,-6.768,-6.6269,-6.5773,-6.4272,-6.328,-6.278,-6.278,-6.278,-6.278,-6.278,-6.278,-6.2725,-6.1447,-6.0676,-6.0309,-5.9006,-5.829,-5.7997,-5.7997,-5.7997,0.0,0.0,0.0,0.0,0.0,0.0,0.0,0.0,-5.6355,-5.5323,-5.5323,-5.5323,-5.5065,-5.3815,-5.4238,-5.4778,-5.3298,-5.2764,-5.257,-5.2445,-5.2409,-5.2409,-5.2409,-5.2409,-5.2409,-5.2409,-5.2409,-5.2409,-5.2409,-5.2409,-5.2409,-5.2409,-5.2409,-5.2409,-5.2409,-5.2409,0.0,0.0,0.0,0.0,0.0,0.0,0.0,0.0,0.0,0.0,0.0,0.0,0.0,-5.2409,-5.2409,-5.2409,-5.2409,-5.168,-5.1205,-5.1045,-5.0441,-4.9833,-4.9282,-4.9075,-4.9001,-4.9001,-4.9001,-4.9001,-4.9001,-4.9001,-4.9001,-4.9012,-4.9159,-4.8363,-4.7125,-4.7248,-4.6665,-4.5868,0.0,0.0,0.0,0.0,0.0,0.0,0.0,0.0,0.0,0.0,0.0,0.0,0.0,0.0,0.0,0.0,-7.04,-7.04,-7.04,-7.0144,-6.9872,-6.9604,-6.7388,-6.6058,-6.5766,-6.4131,-6.3134,-6.278,-6.278,-6.278,-6.278,-6.278,-6.2677,-6.2365,-6.1006,-6.0272,-5.9942,-5.8584,-5.7997,-5.7997,-5.7997,-5.7997,0.0,0.0,0.0,0.0,0.0,0.0,0.0,0.0,-5.6199,-5.4907,-5.4907,-5.4907,-5.4675,-5.3592,-5.4092,-5.4761,-5.355,-5.2886,-5.2499,-5.2409,-5.2409,-5.2409,-5.2409,-5.2409,-5.2409,-5.2409,-5.2409,-5.2409,-5.2409,-5.2409,0.0,0.0,-5.2409,-5.2409,-5.2409,0.0,0.0,0.0,0.0,0.0,0.0,0.0,0.0,0.0,0.0,0.0,0.0,0.0,0.0,0.0,-5.2409,-5.231,-5.2061,-5.1297,-5.062,-4.9975,-4.9425,-4.9018,-4.8818,-4.8815,-4.8877,-4.8956,-4.8956,-4.8956,-4.8956,-4.897,-4.8866,-4.8609,-4.8292,-4.7483,-4.6462,-4.646,-4.6109,-4.5657,0.0,0.0,0.0,0.0,0.0,0.0,0.0,0.0,-6.9259,-6.9739,-6.9797,0.0,0.0,0.0,0.0,0.0,-7.04,-7.04,-7.04,-7.0383,-6.9999,-6.9134,-6.7478,-6.6183,-6.5327,-6.3642,-6.278,-6.278,-6.278,-6.278,-6.278,-6.278,-6.2383,-6.1557,-6.0768,-5.996,-5.9148,-5.8345,-5.7997,-5.7997,-5.7997,-5.7997,-5.7997,0.0,0.0,0.0,0.0,0.0,0.0,0.0,-5.6273,-5.4907,-5.4907,-5.4907,-5.4767,-5.4104,-5.4314,-5.4647,-5.4072,-5.3179,-5.2409,-5.2409,-5.2409,-5.2409,-5.2409,-5.2409,-5.2409,-5.2409,-5.2409,-5.2409,-5.2409,-5.2409,0.0,-5.2409,-5.2409,-5.2409,0.0,0.0,0.0,0.0,0.0,0.0,0.0,0.0,0.0,0.0,0.0,0.0,0.0,0.0,0.0,0.0,-5.2373,-5.2061,-5.1315,-5.0568,-4.9839,-4.9094,-4.8496,-4.8405,-4.8786,-4.8595,-4.8595,-4.8818,-4.8818,-4.8818,-4.8818,-4.894,-4.8578,-4.7821,-4.709,-4.6346,-4.5618,-4.4886,-4.4598,-4.4665,0.0,0.0,0.0,0.0,0.0,0.0,0.0,0.0,-6.8776,-6.9259,-6.9321,0.0,0.0,0.0,0.0,0.0,0.0,-7.04,-7.04,-7.0144,-6.972,-6.9131,-6.7213,-6.5914,-6.5301,-6.3642,-6.278,-6.278,-6.278,-6.278,-6.278,-6.278,-6.2383,-6.1557,-6.0768,-5.996,-5.9148,-5.8345,-5.7997,-5.7997,-5.7997,-5.7997,-5.7997,0.0,0.0,0.0,0.0,0.0,0.0,0.0,0.0,0.0,-5.507,-5.4907,-5.4767,-5.4104,-5.3943,-5.397,-5.3903,-5.3179,-5.2409,-5.2409,-5.2409,-5.2409,-5.2409,-5.2409,-5.2409,-5.2409,-5.2409,-5.2409,-5.2409,-5.2409,0.0,-5.2409,-5.2409,0.0,0.0,0.0,0.0,0.0,0.0,0.0,0.0,0.0,0.0,0.0,0.0,0.0,0.0,0.0,0.0,0.0,-5.1912,-5.1531,-5.1315,-5.0055,-4.9326,-4.9094,-4.8381,-4.8179,-4.8373,-4.8452,-4.8515,-4.8595,-4.8738,-4.8818,-4.8818,-4.894,-4.8578,-4.7821,-4.709,-4.6346,-4.5618,-4.4886,-4.4814,-4.5062,0.0,0.0,0.0,0.0,0.0,0.0,0.0,0.0,-6.8291,-6.8757,-6.8825,-6.9003,0.0,0.0,0.0,0.0,-7.0054,-7.0072,-6.9909,-6.9816,-6.9505,-6.8848,-6.7002,-6.547,-6.4328,-6.3312,-6.2755,-6.2705,-6.2755,-6.278,-6.278,-6.278,-6.2199,-6.1098,-6.0621,-5.9795,-5.8694,-5.8217,-5.7997,-5.7997,-5.7997,-5.7997,-5.7997,0.0,0.0,0.0,0.0,0.0,0.0,0.0,0.0,0.0,-5.5124,-5.4907,-5.4816,-5.4421,-5.3979,-5.3706,-5.4149,-5.3349,-5.2409,-5.2409,-5.2409,-5.2409,-5.2409,-5.2409,-5.2409,-5.2409,-5.2409,-5.2409,-5.2409,-5.2409,0.0,-5.2409,0.0,0.0,0.0,0.0,0.0,0.0,0.0,0.0,0.0,0.0,0.0,0.0,0.0,0.0,0.0,0.0,0.0,0.0,-5.1696,-5.1166,-5.085,-4.969,-4.8961,-4.8663,-4.8216,-4.8033,-4.8115,-4.8244,-4.8324,-4.8388,-4.85,-4.8612,-4.8673,-4.8495,-4.8,-4.7288,-4.6621,-4.5906,-4.5213,-4.4767,-4.4786,-4.4998,0.0,0.0,-6.7687,-6.7687,0.0,0.0,0.0,0.0,-6.7836,-6.8291,-6.8321,-6.8496,0.0,0.0,0.0,0.0,-6.9485,-6.9564,-6.9134,-6.9485,-6.9342,-6.8442,-6.681,-6.4959,-6.2817,-6.278,-6.2705,-6.2578,-6.2705,-6.2798,-6.2755,-6.2798,-6.1918,-6.0377,-6.0401,-5.9501,-5.7997,-5.7997,-5.7997,-5.7997,-5.7997,-5.7997,-5.7997,-5.7997,0.0,0.0,0.0,0.0,0.0,0.0,0.0,0.0,-5.516,-5.4907,-5.4888,-5.4816,-5.418,-5.3674,-5.447,-5.3563,-5.2409,-5.2409,-5.2409,-5.2409,-5.2409,-5.2409,-5.2409,-5.2409,-5.2409,-5.2409,-5.2409,-5.2409,-5.2409,-5.2409,0.0,0.0,0.0,0.0,0.0,0.0,0.0,0.0,0.0,0.0,0.0,0.0,0.0,0.0,0.0,0.0,0.0,-5.231,-5.1597,-5.0833,-5.0121,-4.9375,-4.8663,0.0,-4.8001,-4.8001,-4.8001,-4.8001,-4.8082,-4.8195,-4.8195,-4.8324,-4.8448,-4.7835,-4.7157,-4.6447,-4.5857,-4.5201,-4.4559,-4.457,-4.457,-4.457,0.0,0.0,-6.7687,-6.7687,0.0,0.0,0.0,0.0,0.0,-6.7855,0.0,0.0,0.0,0.0,0.0,0.0,0.0,-6.9216,-6.9109,-6.9176,-6.9,-6.84,-6.65,-6.457,-6.2691,-6.2654,-6.2578,-6.2441,-6.2578,-6.2578,-6.2493,-6.2603,-6.1794,-6.0256,-6.0353,-5.9501,-5.7997,-5.7997,-5.7997,-5.7997,-5.7997,-5.7997,-5.7997,-5.7997,-5.7997,0.0,0.0,0.0,0.0,0.0,0.0,0.0,-5.5341,-5.4907,-5.478,-5.4146,-5.3336,-5.2832,-5.3657,-5.3139,-5.2409,-5.2409,-5.2409,-5.2409,-5.2409,-5.2409,-5.2409,-5.2409,-5.2409,-5.2409,-5.2409,-5.2409,-5.2409,0.0,0.0,0.0,0.0,0.0,0.0,0.0,0.0,0.0,0.0,0.0,0.0,0.0,0.0,0.0,0.0,0.0,0.0,-5.1564,-5.0817,-5.0088,-4.9342,-4.8614,-4.8166,0.0,-4.8001,-4.8001,-4.8001,-4.8001,-4.8082,-4.8195,-4.8195,-4.8324,-4.8465,-4.7728,-4.7021,-4.6267,-4.5589,-4.4867,-4.4212,-4.4327,-4.4367,-4.4395,0.0,0.0,0.0,0.0,0.0,0.0,0.0,0.0,0.0,0.0,0.0,0.0,0.0,0.0,0.0,0.0,-6.8637,-6.8684,-6.8442,-6.8637,-6.8208,-6.6975,-6.5878,-6.4435,-6.264,-6.2603,-6.25,-6.231,-6.237,-6.2415,-6.2389,-6.2467,-6.1668,-6.0188,-6.028,-5.9454,-5.7997,-5.7997,-5.7997,-5.7997,-5.7997,-5.7997,-5.7997,-5.7997,-5.7997,-5.7997,-5.7927,0.0,0.0,0.0,0.0,0.0,0.0,0.0,-5.4744,-5.3947,-5.3072,-5.2509,-5.2945,-5.2748,-5.2383,-5.2381,-5.2409,-5.2409,-5.2409,-5.2409,-5.2409,-5.2409,-5.2409,-5.2409,-5.2409,-5.2409,-5.2409,0.0,0.0,0.0,0.0,0.0,0.0,0.0,0.0,0.0,0.0,0.0,0.0,0.0,0.0,0.0,0.0,-5.2409,-5.2078,-5.1332,-5.0585,-4.9856,-4.911,-4.8365,-4.8001,-4.8001,-4.8001,-4.8001,-4.8001,-4.8001,-4.8033,-4.8115,-4.8115,-4.8179,-4.8193,-4.7156,-4.6502,-4.6065,-4.5055,-4.4432,-4.4097,-4.4184,-4.4196,-4.4224,0.0,0.0,0.0,0.0,0.0,0.0,0.0,0.0,0.0,0.0,0.0,0.0,0.0,0.0,0.0,0.0,0.0,0.0,-6.7741,-6.8058,-6.7388,-6.5375,-6.5319,-6.4435,-6.264,-6.2578,-6.2449,-6.2203,-6.2177,-6.223,-6.2336,-6.2217,-6.1438,-6.0114,-6.0011,-5.9188,-5.7927,-5.795,-5.7973,-5.7973,-5.7997,-5.7997,-5.7997,-5.7997,-5.7997,-5.7997,-5.7997,-5.7927,-5.7768,-5.7649,0.0,0.0,0.0,0.0,-5.4707,-5.3766,-5.2974,-5.2414,-5.247,-5.2347,-5.2181,-5.2073,-5.2009,-5.2009,-5.2009,-5.2108,-5.2227,-5.2227,-5.2326,-5.2409,-5.2409,-5.2409,0.0,0.0,0.0,0.0,0.0,0.0,0.0,0.0,0.0,0.0,0.0,0.0,0.0,0.0,0.0,0.0,-5.2409,-5.2293,-5.1879,-5.1149,-5.0386,-4.9674,-4.8928,-4.8299,-4.8001,-4.8001,-4.8001,-4.8001,-4.8001,-4.8001,-4.8001,-4.8001,-4.8001,-4.7934,-4.7703,-4.6485,-4.5898,-4.5666,-4.4469,-4.401,-4.401,-4.4039,-4.4085,-4.4068,0.0,0.0,0.0,0.0,0.0,0.0,0.0,0.0,0.0,0.0,-6.7687,-6.7687,0.0,0.0,-6.7687,-6.7687,-6.7749,-6.7776,-6.7714,0.0,0.0,-6.5375,-6.5319,-6.4435,-6.264,-6.2493,-6.2362,-6.2203,-6.2087,-6.2051,-6.206,-6.1468,-6.0703,-5.9838,-5.9254,-5.8482,-5.7673,-5.7768,-5.7815,-5.7857,-5.795,-5.7997,-5.7997,-5.7997,-5.7997,-5.7997,-5.7997,-5.7927,-5.7768,-5.7649,-5.751,0.0,0.0,0.0,-5.4599,-5.3096,-5.2537,-5.2395,-5.2422,-5.194,-5.1269,-5.0657,-5.0502,-5.0502,-5.0502,-5.0982,-5.1464,0.0,-5.1978,-5.2409,-5.2409,-5.2409,0.0,0.0,0.0,0.0,0.0,0.0,0.0,0.0,0.0,0.0,0.0,0.0,0.0,0.0,0.0,0.0,-5.2409,-5.1796,-5.1098,-5.0369,-4.9641,-4.8895,-4.815,-4.805,-4.8001,-4.8001,-4.8001,-4.8001,-4.8001,-4.8001,-4.8001,-4.8001,-4.8001,-4.7636,-4.6974,-4.616,-4.5448,-4.4768,-4.3973,-4.3658,-4.3687,-4.3852,-4.3927,-4.3939,0.0,0.0,0.0,0.0,0.0,0.0,0.0,0.0,0.0,0.0,0.0,-6.7687,-6.7687,-6.7687,-6.7687,-6.7687,-6.7687,-6.7687,-6.7687,-6.7265,-6.6512,-6.5356,-6.4879,-6.3951,-6.2511,-6.2441,-6.2283,-6.2087,-6.2033,-6.1996,-6.196,-6.0773,-6.0072,-5.9786,-5.9019,-5.8275,-5.7601,-5.7673,-5.7697,-5.7697,-5.7815,-5.7839,-5.7792,-5.795,-5.795,-5.7904,-5.7973,-5.7927,-5.7768,-5.7649,-5.751,-5.7109,-5.5444,0.0,0.0,0.0,-5.2486,-5.2433,-5.2402,-5.1815,-5.1121,-5.0887,-5.0759,-5.0627,-5.0272,-5.0452,-5.0684,-5.0684,-5.0932,-5.1413,-5.2224,0.0,0.0,0.0,0.0,0.0,0.0,0.0,0.0,0.0,0.0,0.0,0.0,0.0,0.0,0.0,0.0,-5.2243,-5.1812,-5.1481,-5.0767,-4.9624,-4.9276,-4.8746,-4.8017,-4.8001,-4.8001,-4.8001,-4.8001,-4.8001,-4.8001,-4.8001,-4.8001,-4.8001,-4.8001,-4.7587,-4.6841,-4.6096,-4.5351,-4.4622,-4.388,-4.3598,-4.3598,-4.3704,-4.3734,-4.3734,0.0,0.0,0.0,0.0,0.0,0.0,0.0,0.0,0.0,0.0,0.0,-6.7687,-6.7687,0.0,0.0,0.0,-6.7687,-6.7595,-6.7393,-6.6641,-6.5833,-6.5044,-6.442,-6.3584,-6.2467,-6.2415,-6.2301,-6.206,-6.2023,-6.1887,-6.1652,-6.0267,-5.954,-5.9401,-5.8609,-5.7969,-5.7504,-5.7534,-5.7553,-5.7577,-5.7697,-5.7697,-5.7625,-5.7815,-5.7857,-5.7768,-5.7862,-5.7839,-5.7721,-5.7583,-5.7461,-5.7109,-5.5444,-5.4907,0.0,0.0,0.0,-5.2448,-5.2185,-5.1632,-5.109,-5.1011,-5.0762,-5.0414,-4.9959,-4.9891,-4.9939,0.0,-5.0088,-5.0551,-5.1628,0.0,0.0,0.0,0.0,0.0,0.0,0.0,0.0,0.0,0.0,0.0,0.0,0.0,0.0,0.0,0.0,-5.1895,-5.1348,-5.0951,-5.0237,-4.9144,-4.8928,-4.8564,-4.8017,-4.8001,-4.8001,-4.8001,-4.8001,-4.8001,-4.8001,-4.8001,-4.8001,-4.7984,-4.7802,-4.7305,-4.656,-4.5814,-4.5086,-4.4373,-4.3797,-4.3598,-4.3598,-4.3598,-4.3598,-4.3598,0.0,0.0,0.0,0.0,0.0,0.0,0.0,0.0,0.0,0.0,0.0,-6.7687,-6.7687,-6.7687,-6.7687,-6.7687,-6.7687,-6.7375,-6.6604,-6.5815,-6.5007,-6.42,-6.4108,0.0,-6.2622,-6.2467,-6.2336,-6.2203,-6.206,-6.1598,-6.0819,-6.0013,-5.9198,-5.8438,-5.7623,-5.725,-5.7232,-5.7356,-5.7412,-5.7412,-5.7553,-5.7601,-5.7601,-5.7625,-5.7625,-5.7625,-5.7625,-5.7625,-5.7601,-5.7455,-5.7406,-5.7109,-5.5444,-5.4907,-5.4581,0.0,0.0,0.0,-5.1576,-5.1288,-5.1008,-5.0261,-4.9526,-4.9001,-4.897,-4.9055,-4.9177,-4.9177,-4.9723,-5.0237,-5.032,0.0,0.0,0.0,0.0,0.0,0.0,0.0,0.0,0.0,0.0,0.0,0.0,0.0,0.0,0.0,0.0,-5.1348,-5.1315,-4.9972,-4.9193,-4.911,-4.8431,-4.8034,-4.8001,-4.8001,-4.8001,-4.8001,-4.8001,-4.8001,-4.8001,-4.8001,-4.8001,-4.7968,-4.7255,-4.6527,-4.5798,-4.5052,-4.4324,-4.3648,-4.3615,-4.3598,-4.3598,-4.3598,-4.3598,-4.3598,0.0,0.0,0.0,0.0,0.0,0.0,0.0,0.0,0.0,0.0,0.0,0.0,0.0,-6.7687,-6.7687,-6.7687,-6.7228,-6.6586,-6.5778,-6.4971,-6.4332,-6.3943,-6.3412,-6.2889,-6.2344,-6.231,-6.2203,-6.206,-6.2005,-6.158,-6.0792,-5.9995,-5.918,-5.8365,-5.755,-5.7188,-5.7188,-5.7239,-5.7264,-5.7264,-5.7431,-5.7412,-5.7363,-5.7534,-5.7553,-5.7461,-5.7577,-5.7534,-5.7461,-5.7431,-5.7338,-5.6992,-5.5395,-5.4907,-5.4581,-5.2969,-5.2498,-5.2434,-5.2144,-5.2,-5.1729,-5.0947,-5.0515,-4.9993,-4.9127,-4.8933,-4.8867,-4.848,-4.8597,-4.8796,0.0,0.0,0.0,0.0,0.0,0.0,0.0,0.0,0.0,0.0,0.0,0.0,0.0,0.0,0.0,0.0,0.0,0.0,-4.9906,-4.9392,-4.8895,-4.8415,-4.815,-4.8001,-4.8001,-4.8001,-4.8001,-4.8001,-4.8001,-4.8001,-4.8001,-4.8001,-4.8001,-4.7934,-4.6725,-4.603,-4.5732,-4.4986,-4.4274,-4.3598,-4.3598,-4.3598,-4.3598,-4.3598,-4.3598,-4.3598,0.0,0.0,0.0,-6.7087,0.0,-6.721,-6.721,-6.7313,-6.7414,-6.7414,0.0,0.0,0.0,0.0,-6.7101,-6.6916,-6.6164,-6.5466,-6.4934,-6.4101,-6.3548,-6.3408,-6.2844,-6.2423,-6.2203,-6.1931,-6.1851,-6.1996,-6.148,-6.0937,-6.0394,-5.9579,-5.8764,-5.7967,-5.7442,-5.7188,-5.7188,-5.7188,-5.7188,-5.7206,-5.7307,-5.7264,-5.7213,-5.7406,-5.7412,-5.7338,-5.7412,-5.7406,-5.7313,-5.7313,-5.7082,-5.6573,-5.5305,-5.4544,-5.3892,-5.2806,-5.2498,-5.2498,-5.2498,-5.2405,-5.2174,-5.168,-5.1288,-5.0696,-4.9541,-4.908,-4.8714,-4.8115,-4.8001,-4.8001,0.0,0.0,0.0,0.0,0.0,0.0,0.0,0.0,0.0,0.0,0.0,0.0,0.0,0.0,0.0,0.0,0.0,0.0,-4.9144,-4.8879,-4.8514,-4.8017,-4.8001,-4.8001,-4.8001,-4.8001,-4.8001,-4.8001,-4.8001,-4.8001,-4.8001,-4.8001,-4.7868,-4.7554,-4.6328,-4.5798,-4.5715,-4.4738,-4.4042,-4.3598,-4.3598,-4.3598,-4.3598,-4.3598,-4.3598,-4.3598,-6.7001,-6.7097,-6.7182,-6.7182,-6.7182,-6.7182,-6.7182,-6.721,-6.7192,-6.7192,0.0,0.0,0.0,0.0,0.0,-6.5312,-6.4549,-6.409,-6.4053,-6.3137,-6.2603,-6.2603,-6.2449,-6.2336,-6.2203,-6.1422,-6.1342,-6.196,-6.0412,-5.9615,-5.9561,-5.8764,-5.7967,-5.7188,-5.7188,-5.7188,-5.7188,-5.7188,-5.7188,-5.7188,-5.7188,-5.7188,-5.7188,-5.7188,-5.7188,-5.7188,-5.7188,-5.7188,-5.7188,-5.7188,-5.6663,-5.5866,-5.5106,-5.3784,-5.2498,-5.2498,-5.2498,-5.2498,0.0,0.0,0.0,-5.2287,-5.1654,-5.0858,-5.0167,-4.9465,-4.8776,-4.8179,-4.8033,-4.8033,0.0,0.0,0.0,0.0,0.0,0.0,0.0,0.0,0.0,0.0,0.0,0.0,0.0,0.0,0.0,0.0,0.0,-4.9077,-4.9077,-4.8398,-4.8001,-4.8001,-4.8001,-4.8001,-4.8001,-4.8001,-4.8001,-4.8001,-4.8001,-4.8001,-4.8001,-4.8001,-4.7603,-4.6858,-4.6113,-4.5781,-4.5649,-4.4208,-4.3598,-4.3598,-4.3598,-4.3598,-4.3598,-4.3598,-4.3598,-4.3598,-6.6863,-6.6874,-6.6903,-6.6903,-6.6903,-6.6903,-6.6903,-6.7001,-6.7058,0.0,0.0,0.0,-6.6317,-6.5661,-6.4885,-6.4126,-6.3878,-6.3495,-6.2902,-6.2621,-6.2397,-6.2318,-6.2283,-6.2177,-6.206,-6.1842,-6.1525,-6.1109,-6.0701,-5.9868,-5.8728,-5.851,-5.7967,-5.7188,-5.7188,-5.7188,-5.7188,-5.7188,-5.7188,-5.7188,-5.7188,-5.7188,-5.7188,-5.7188,-5.7188,-5.7188,-5.7188,-5.7188,-5.7188,-5.7188,-5.6663,-5.5758,-5.4454,-5.3331,-5.2498,-5.2498,-5.2498,-5.2498,-5.2498,0.0,0.0,0.0,0.0,0.0,-5.0911,-5.057,-5.0079,-4.89,-4.8637,-4.8528,0.0,0.0,0.0,0.0,0.0,0.0,0.0,0.0,0.0,0.0,0.0,0.0,0.0,0.0,0.0,0.0,-4.873,-4.8299,-4.8299,-4.8117,-4.8001,-4.8001,-4.8001,-4.8001,-4.8001,-4.8001,-4.8001,-4.8001,-4.8001,-4.8001,-4.8001,-4.8001,-4.7603,-4.6858,-4.6113,-4.5483,-4.492,-4.4009,-4.3598,-4.3598,-4.3598,-4.3598,-4.3598,-4.3598,-4.3598,-4.3598,-6.6804,-6.6804,-6.6804,-6.6804,-6.6804,-6.6804,-6.6804,-6.6584,-6.6424,0.0,0.0,0.0,-6.4958,-6.4503,-6.3911,-6.3162,-6.3108,-6.2907,-6.2425,-6.2336,-6.2283,-6.2203,-6.215,-6.1924,-6.1516,-6.119,-6.0774,-6.0303,-5.9633,-5.8999,-5.8402,-5.8058,-5.7641,-5.7188,-5.7188,-5.7188,-5.7163,-5.6915,-5.6966,-5.7163,-5.6933,-5.6837,-5.6837,-5.6837,-5.6837,-5.6863,-5.7112,-5.7188,-5.7188,-5.7188,-5.6464,-5.5269,-5.3693,-5.2878,-5.2498,-5.2498,-5.2498,-5.2498,-5.2498,-5.2498,-5.2475,-5.2405,0.0,0.0,-5.1035,-5.0678,-5.022,0.0,-4.8543,-4.8418,0.0,0.0,0.0,0.0,0.0,0.0,0.0,0.0,0.0,0.0,0.0,0.0,0.0,0.0,0.0,-4.8647,-4.8249,-4.8001,-4.8001,-4.8001,-4.8001,-4.8001,-4.8001,-4.8001,-4.8001,-4.8001,-4.8001,-4.8001,-4.8001,-4.8001,-4.8001,-4.8001,-4.7438,-4.6411,-4.598,-4.5202,-4.4208,-4.3764,-4.3598,-4.3598,-4.3598,-4.3598,-4.3598,-4.3598,-4.3598,-4.3598,0.0,-6.6804,-6.6804,-6.6804,-6.6732,-6.6677,-6.6677,-6.5989,-6.5464,0.0,-6.4758,-6.4017,-6.3312,-6.3248,-6.3012,-6.2409,-6.2362,-6.2326,-6.2235,-6.2103,-6.1995,-6.1922,-6.1788,-6.1381,-6.0683,-5.9977,-5.9561,-5.947,-5.8039,-5.7641,-5.8257,-5.7532,-5.7188,-5.7188,-5.7188,-5.7163,-5.7061,-5.6528,-5.6555,-5.6941,-5.642,-5.6201,-5.6201,-5.6201,-5.6201,-5.6284,-5.6811,-5.7043,-5.7076,-5.6964,-5.5975,0.0,0.0,0.0,0.0,-5.2498,-5.2498,-5.2498,-5.2498,-5.2498,-5.2498,-5.2498,-5.2405,0.0,-5.0964,-5.048,-4.993,-4.8762,-4.8435,-4.8339,0.0,0.0,0.0,0.0,0.0,0.0,0.0,0.0,0.0,0.0,0.0,0.0,-4.8001,-4.8001,-4.8001,-4.8001,-4.8001,-4.8001,-4.8001,-4.8001,-4.8001,-4.8001,-4.8001,-4.8001,-4.8001,-4.8001,-4.8001,-4.8001,-4.8001,-4.8001,-4.8001,-4.7918,-4.7123,-4.5798,-4.5698,-4.4887,-4.3598,-4.3598,-4.3598,-4.3598,-4.3598,-4.3598,-4.3598,-4.3598,-4.3598,-4.3598,-6.6804,-6.6804,-6.6804,-6.6804,-6.6261,-6.5826,-6.5826,-6.5138,-6.4631,-6.4631,-6.3925,-6.3156,-6.2359,-6.2268,-6.2214,-6.2078,-6.206,-6.1815,-6.1162,-6.1099,-6.0764,-6.013,-6.0068,-5.9995,-5.985,-5.9687,-5.9289,-5.8637,-5.8329,-5.7913,-5.7424,-5.7261,-5.7188,-5.7188,-5.7188,-5.6915,-5.6474,-5.6339,-5.609,-5.5733,-5.5618,-5.556,-5.556,-5.556,-5.556,-5.5589,-5.5705,-5.6073,-5.6349,-5.5609,-5.4725,-5.3766,0.0,0.0,0.0,-5.2498,0.0,0.0,-5.2498,-5.2498,0.0,0.0,-5.2475,0.0,-5.2036,-5.1902,-5.1637,-5.0777,-5.0579,-5.0369,0.0,0.0,0.0,0.0,0.0,0.0,0.0,0.0,0.0,0.0,0.0,0.0,0.0,-4.8001,-4.8001,-4.8001,-4.8001,-4.8001,-4.8001,-4.8001,-4.8001,-4.8001,-4.8001,-4.8001,-4.8001,-4.8001,-4.8001,-4.8001,-4.8001,-4.8001,-4.7984,-4.7388,-4.6626,-4.5765,-4.5152,-4.4406,-4.3598,-4.3598,-4.3598,-4.3598,-4.3598,-4.3598,-4.3598,-4.3598,-4.3598,-4.3598,-6.6279,-6.6207,-6.608,-6.5663,-6.5265,-6.4993,-6.4993,-6.4305,-6.3798,-6.3798,-6.3092,-6.2458,-6.2032,-6.1634,-6.1381,-6.1381,-6.1019,-6.0647,-6.0231,-6.0212,-6.0031,-5.9633,-5.9615,-5.9416,-5.9017,-5.8999,-5.8619,-5.7804,-5.7804,-5.7605,-5.7188,-5.7188,-5.7036,-5.6758,-5.6758,-5.642,-5.5819,-5.5484,-5.5172,-5.4887,-5.4887,0.0,-5.4887,-5.4887,-5.4887,-5.4948,-5.5266,-5.5543,-5.5518,-5.4266,-5.3784,0.0,-5.2752,-5.2498,-5.2498,0.0,-5.2498,-5.2498,0.0,0.0,0.0,-5.2498,0.0,0.0,0.0,-5.1884,-5.1626,-5.0991,-5.0769,-5.0572,-5.0178,0.0,0.0,0.0,0.0,0.0,0.0,0.0,0.0,0.0,0.0,0.0,0.0,-4.8001,-4.8001,-4.8001,-4.8001,-4.8001,-4.8001,-4.8001,-4.8001,-4.8001,-4.8001,-4.8001,-4.8001,-4.8001,-4.8001,-4.8001,-4.8001,-4.8001,-4.7968,-4.7239,-4.6493,-4.5748,-4.5003,-4.4274,-4.3598,-4.3598,-4.3598,-4.3598,-4.3598,-4.3598,-4.3598,-4.3598,-4.3598,-4.3598,-6.5453,-6.5374,-6.5127,-6.4343,-6.4061,-6.3924,-6.3791,-6.3095,-6.263,-6.2761,-6.2303,-6.1924,-6.1779,-6.1208,-6.0756,-6.0593,-5.9977,-5.9542,-5.9379,-5.9379,-5.9307,-5.9144,-5.9144,-5.8836,-5.8184,-5.8166,-5.784,-5.7188,-5.7188,-5.7188,-5.7188,-5.7188,-5.6863,-5.6311,-5.6311,-5.5904,-5.5177,-5.4641,-5.4328,-5.4235,0.0,-5.4235,-5.4235,-5.4235,-5.4235,-5.4296,-5.4791,-5.4704,-5.4151,-5.3129,-5.3028,-5.3213,-5.2674,-5.241,0.0,0.0,0.0,0.0,0.0,0.0,0.0,0.0,0.0,-5.2364,0.0,0.0,0.0,0.0,0.0,0.0,0.0,0.0,0.0,0.0,0.0,0.0,0.0,0.0,0.0,0.0,0.0,0.0,0.0,-4.8001,-4.8001,-4.8001,-4.8001,-4.8001,-4.8001,-4.8001,-4.8001,-4.8001,-4.8001,-4.8001,-4.8001,-4.8001,-4.8001,-4.8001,-4.8001,-4.7934,-4.7769,-4.7023,-4.6278,-4.5533,-4.4804,-4.4158,-4.3598,-4.3598,-4.3598,-4.3598,-4.3598,-4.3598,-4.3598,-4.3598,-4.3598,-4.3598,-6.4303,-6.4541,-6.4314,-6.3621,-6.2922,-6.2228,-6.1651,-6.0871,-6.0578,-6.117,-6.169,-6.1725,-6.1,-6.0864,-6.052,-5.9814,-5.9651,-5.9307,-5.8583,-5.8546,-5.822,-5.7496,-5.746,-5.7424,-5.7333,-5.7333,-5.7279,-5.7188,-5.7188,-5.7188,-5.7188,-5.7188,-5.6863,-5.6311,-5.6311,-5.5612,-5.4516,-5.4422,-5.4091,0.0,-5.3618,-5.3618,0.0,-5.3618,-5.3618,-5.3583,-5.3542,-5.2645,-5.1587,0.0,-5.2383,-5.1918,0.0,-5.2138,-5.1811,-5.2345,0.0,0.0,0.0,0.0,0.0,0.0,-5.2498,0.0,0.0,0.0,-5.2345,-5.2275,0.0,0.0,0.0,0.0,0.0,0.0,0.0,0.0,0.0,0.0,0.0,0.0,0.0,0.0,0.0,0.0,-4.8001,-4.8001,-4.8001,-4.8001,-4.8001,-4.8001,-4.8001,-4.8001,-4.8001,-4.8001,-4.8001,-4.8001,-4.8001,-4.8001,-4.8001,-4.7653,-4.699,-4.6245,-4.5516,-4.4771,-4.4059,-4.3664,-4.3598,-4.3598,-4.3598,-4.3598,-4.3598,-4.3598,-4.3598,-4.3598,-4.3598,-4.3598,-6.2342,-6.2863,-6.2761,-6.1641,-6.1471,-6.1287,-6.0618,-6.0226,-5.9935,-5.9739,-5.9958,-5.9987,-5.9624,-5.9148,-5.8889,-5.8901,-5.8474,-5.8058,-5.7732,-5.7695,-5.755,-5.7206,-5.7188,-5.7188,-5.7188,-5.7188,-5.7188,-5.7188,-5.7188,-5.7188,-5.7188,-5.6837,-5.6366,-5.5762,-5.5367,-5.4703,-5.3865,-5.3865,-5.3734,0.0,0.0,0.0,0.0,-5.3501,-5.3213,-5.2671,-5.1773,-5.1247,-5.1018,0.0,-5.1104,0.0,0.0,0.0,0.0,0.0,0.0,0.0,0.0,0.0,0.0,0.0,0.0,0.0,-5.241,0.0,-5.2498,0.0,0.0,0.0,0.0,0.0,0.0,0.0,-5.1337,0.0,0.0,0.0,0.0,0.0,0.0,0.0,0.0,0.0,0.0,0.0,0.0,-4.8001,-4.8001,-4.8001,-4.8001,-4.8001,-4.8001,-4.8001,-4.8001,-4.8001,-4.8001,-4.8001,-4.8001,-4.7603,-4.6874,-4.6129,-4.5384,-4.4655,-4.3926,-4.3598,-4.3598,-4.3598,-4.3598,-4.3598,-4.3598,-4.3598,-4.3598,-4.3598,-4.3598,-4.3598,-6.0178,-6.1002,-6.122,-5.9926,-6.0107,-6.0131,-5.9284,-5.9264,-5.9114,-5.8328,-5.8363,-5.8391,-5.8123,-5.7594,-5.7308,-5.7541,-5.7055,-5.6785,-5.6941,-5.6941,-5.7036,-5.7188,-5.7188,-5.7188,-5.7188,-5.7188,-5.7188,-5.7188,-5.7188,-5.7188,-5.7206,-5.6582,-5.5978,-5.5355,-5.4703,-5.4059,-5.3501,-5.3501,-5.3501,-5.3484,-5.3264,-5.3061,-5.2909,-5.3095,-5.2553,-5.1555,-5.0473,-5.026,-5.0412,-5.0021,-5.017,0.0,-5.0653,0.0,0.0,0.0,0.0,0.0,-5.186,0.0,0.0,0.0,0.0,0.0,0.0,0.0,0.0,0.0,0.0,0.0,0.0,0.0,0.0,0.0,0.0,-5.1191,0.0,0.0,0.0,0.0,0.0,0.0,0.0,0.0,0.0,0.0,0.0,0.0,-4.8001,-4.8001,-4.8001,-4.8001,-4.8001,-4.8001,-4.8001,-4.8001,-4.8001,-4.8001,-4.8001,-4.7504,-4.6576,-4.603,-4.5284,-4.4373,-4.3813,-4.3598,-4.3598,-4.3598,-4.3598,-4.3598,-4.3598,-4.3598,-4.3598,-4.3598,-4.3598,-4.3598,-5.7988,-5.9131,-5.9823,-5.9062,-5.896,-5.8497,-5.7096,-5.7449,-5.7631,-5.6871,-5.7311,-5.7447,-5.6656,-5.655,-5.6252,-5.5549,-5.5461,-5.5705,-5.6284,-5.6339,-5.6582,-5.7163,-5.7188,-5.7188,-5.7188,-5.7188,-5.7188,-5.7188,-5.7188,-5.7188,-5.7206,-5.6582,-5.5978,-5.5355,-5.4703,-5.4059,-5.3501,-5.3501,-5.3501,-5.3433,-5.2655,-5.1911,-5.1369,0.0,-5.1437,-5.0152,-5.0101,0.0,0.0,-4.9703,-4.9919,0.0,0.0,0.0,0.0,0.0,0.0,0.0,0.0,0.0,0.0,-5.1475,0.0,0.0,0.0,0.0,-5.2498,0.0,0.0,0.0,0.0,0.0,0.0,0.0,0.0,0.0,0.0,0.0,0.0,0.0,0.0,0.0,0.0,0.0,0.0,0.0,0.0,0.0,-4.8001,-4.8001,-4.8001,-4.8001,-4.8001,-4.8001,-4.8001,-4.8001,-4.8001,-4.8001,-4.8001,-4.7239,-4.5814,-4.5798,-4.5019,-4.3631,-4.3615,-4.3598,-4.3598,-4.3598,-4.3598,-4.3598,-4.3598,-4.3598,-4.3598,-4.3598,-4.3598,-4.3598,-5.7171,-5.7155,-5.7244,-5.7462,-5.7878,-5.7689,-5.6296,-5.6265,-5.6149,-5.54,-5.5516,-5.5503,-5.5154,-5.5098,-5.5196,-5.5373,-5.5385,-5.549,-5.5676,-5.609,-5.6211,-5.6017,-5.6767,-5.701,-5.6608,-5.701,-5.7188,-5.7188,-5.7188,-5.701,-5.6582,-5.5989,-5.5337,-5.4703,-5.4059,-5.3701,-5.3501,0.0,0.0,0.0,0.0,-5.1133,-5.049,0.0,0.0,-5.0033,-4.9543,-4.9221,0.0,-4.9229,-4.9303,-4.9333,-4.9509,-4.9466,-4.9406,-4.9999,-5.0045,0.0,0.0,0.0,-5.0293,-5.0876,0.0,0.0,0.0,0.0,0.0,0.0,0.0,0.0,0.0,0.0,0.0,0.0,0.0,0.0,0.0,0.0,0.0,0.0,0.0,0.0,0.0,0.0,0.0,0.0,0.0,0.0,0.0,-4.8001,-4.8001,-4.8001,-4.8001,-4.8001,-4.8001,-4.8001,-4.8001,-4.8001,-4.7504,-4.6758,-4.5765,-4.5284,-4.4539,-4.3598,-4.3598,-4.3598,-4.3598,-4.3598,-4.3598,-4.3598,-4.3598,-4.3598,-4.3598,-4.3598,-4.3598,-4.3598,-5.7188,-5.6613,-5.6173,-5.6376,-5.6763,-5.6662,-5.5499,-5.531,-5.504,-5.4296,-5.4211,-5.416,-5.4078,-5.4091,-5.4235,-5.4693,-5.4707,-5.483,-5.5026,-5.5426,0.0,-5.5414,-5.6156,-5.6375,0.0,0.0,0.0,-5.6889,-5.6889,-5.6661,-5.6284,-5.5426,-5.4826,-5.4359,-5.3783,-5.3501,-5.3484,-5.3196,-5.2773,0.0,0.0,-5.0371,0.0,0.0,-4.9712,-4.9644,0.0,-4.9001,-4.9001,-4.9001,-4.9001,-4.9001,-4.9001,-4.9001,-4.9094,-4.9483,-4.9585,-4.9656,-5.0011,-4.9826,0.0,-5.0293,-5.017,0.0,-5.0562,0.0,0.0,0.0,0.0,0.0,0.0,0.0,0.0,0.0,0.0,0.0,0.0,-4.9538,0.0,0.0,0.0,0.0,0.0,0.0,0.0,-4.8001,-4.8001,0.0,0.0,0.0,-4.8001,-4.8001,-4.8001,-4.8001,-4.8001,-4.8001,-4.7868,-4.7603,-4.7123,-4.6378,-4.5384,-4.4903,-4.4307,-4.3598,-4.3598,-4.3598,-4.3598,-4.3598,-4.3598,-4.3598,-4.3598,-4.3598,-4.3598,-4.3598,-4.3598,-4.3598,-5.7831,-5.7239,-5.6493,-5.58,-5.5647,-5.5412,-5.4702,-5.4583,-5.4346,-5.3653,-5.3518,-5.3501,-5.3501,-5.3501,-5.3501,-5.3501,-5.3501,-5.375,-5.4313,-5.4391,0.0,0.0,-5.5373,-5.5385,-5.5355,0.0,0.0,0.0,0.0,-5.6229,-5.6184,-5.4961,-5.4391,-5.4328,-5.375,0.0,-5.3399,-5.2621,-5.2266,-5.2063,-5.0608,-4.9627,-4.9001,-4.9001,-4.9001,-4.9001,-4.9001,-4.9001,-4.9001,-4.9001,-4.9001,-4.9001,-4.9001,-4.9001,-4.9001,-4.9001,-4.9001,-4.9001,-4.9001,-4.9001,-4.9138,-4.9715,0.0,0.0,0.0,0.0,-5.0616,0.0,0.0,0.0,0.0,0.0,0.0,0.0,0.0,0.0,0.0,0.0,0.0,0.0,0.0,0.0,0.0,0.0,-4.8001,-4.8001,-4.8001,-4.8001,0.0,0.0,-4.8001,-4.8001,-4.8001,-4.8001,-4.8001,-4.8001,-4.7636,-4.6891,-4.6858,-4.6079,-4.4688,-4.4655,-4.4257,-4.3598,-4.3598,-4.3598,-4.3598,-4.3598,-4.3598,-4.3598,-4.3598,-4.3598,-4.3598,-4.3598,-4.3598,-4.3598,-5.687,-5.6135,-5.5509,-5.5486,-5.5155,-5.482,-5.4617,-5.4583,-5.4515,-5.4329,-5.3839,-5.3501,-5.3501,-5.3501,-5.3501,-5.3501,-5.3501,0.0,0.0,0.0,0.0,-5.4013,-5.4892,-5.5177,-5.4672,-5.5278,-5.5618,-5.5618,0.0,-5.5367,-5.487,-5.453,-5.4171,-5.3717,-5.3568,-5.3179,-5.2587,-5.2384,-5.1674,-5.0574,-4.9661,-4.9171,0.0,0.0,-4.9001,-4.9001,-4.9001,-4.9001,-4.9001,-4.9001,-4.9001,-4.9001,-4.9001,-4.9001,-4.9001,-4.9001,-4.9001,-4.9001,-4.9001,-4.9001,-4.9032,-4.9199,-4.9229,-4.9273,0.0,0.0,0.0,0.0,0.0,0.0,0.0,0.0,0.0,0.0,0.0,0.0,0.0,0.0,0.0,-4.9001,0.0,0.0,0.0,-4.8276,-4.8115,-4.8001,-4.8001,-4.8001,0.0,0.0,0.0,-4.8001,-4.8001,-4.8001,-4.8001,-4.8001,-4.7636,-4.6891,-4.6344,-4.5582,-4.4671,-4.4141,-4.3764,-4.3598,-4.3598,-4.3598,-4.3598,-4.3598,-4.3598,-4.3598,-4.3598,-4.3598,-4.3598,-4.3598,-4.3598,-4.3598,-5.6982,-5.6211,-5.5515,-5.5305,-5.5349,-5.5341,-5.5141,-5.5091,0.0,-5.5091,-5.4448,0.0,-5.3974,-5.3687,-5.3501,-5.3501,-5.3501,0.0,-5.3501,0.0,0.0,-5.3501,-5.419,-5.4379,-5.3994,-5.4627,0.0,-5.4948,0.0,-5.4765,-5.4391,-5.4139,-5.3849,-5.3501,0.0,-5.3061,-5.2266,-5.1606,-5.0676,-4.9576,-4.9171,0.0,0.0,-4.9001,-4.897,-4.8925,-4.897,-4.9001,-4.9001,-4.9001,-4.9001,-4.9001,-4.9001,-4.9001,-4.9001,-4.9001,-4.9001,-4.9001,-4.9001,-4.9001,-4.9001,-4.9001,-4.9001,-4.9001,-4.9001,-4.9001,-4.9001,0.0,0.0,0.0,0.0,0.0,0.0,0.0,0.0,0.0,0.0,0.0,0.0,0.0,-4.8846,0.0,0.0,-4.8276,-4.8082,-4.8001,-4.8001,0.0,0.0,0.0,0.0,-4.8001,-4.8001,-4.8001,-4.8001,-4.7686,-4.7156,-4.6411,-4.5665,-4.492,-4.4208,-4.378,-4.3598,-4.3598,-4.3598,-4.3598,-4.3598,-4.3598,-4.3598,-4.3598,-4.3598,-4.3598,-4.3598,-4.3598,-4.3598,-4.3598,-5.7476,-5.6824,-5.6077,-5.5459,-5.6043,0.0,0.0,-5.5884,0.0,-5.5817,0.0,-5.4583,-5.4583,-5.394,-5.3501,-5.3501,0.0,-5.3501,-5.3501,-5.3501,-5.3501,-5.3501,-5.3501,-5.3501,-5.3501,-5.3994,-5.4281,0.0,-5.4281,-5.4281,-5.4281,-5.375,-5.3501,-5.3501,0.0,0.0,0.0,-5.0541,-4.9593,-4.9001,-4.9001,-4.9001,-4.897,-4.897,-4.8894,-4.8769,-4.8877,-4.894,-4.8987,-4.9001,-4.9001,-4.9001,-4.9001,-4.9001,-4.9001,-4.9001,-4.9001,-4.9001,-4.9001,-4.9001,-4.9001,-4.9001,-4.9001,-4.9001,-4.9001,-4.9001,-4.9001,-4.9001,-4.9001,-4.9001,0.0,0.0,0.0,0.0,0.0,0.0,0.0,0.0,0.0,0.0,0.0,0.0,0.0,0.0,-4.8066,-4.8001,-4.8001,0.0,0.0,0.0,0.0,-4.8001,-4.8001,0.0,-4.7868,0.0,-4.6477,-4.5632,-4.5017,-4.4307,-4.3598,-4.3598,-4.3598,-4.3598,-4.3598,-4.3598,-4.3598,-4.3598,-4.3598,-4.3598,-4.3598,-4.3598,-4.3598,-4.3598,-4.3598,-4.3598,-5.6911,-5.6734,-5.6601,-5.6675,-5.6947,-5.7167,-5.7271,-5.6894,-5.6613,-5.6613,-5.5429,-5.4583,-5.4583,-5.394,-5.3501,-5.3501,-5.3501,0.0,0.0,0.0,0.0,-5.3501,-5.3501,-5.3501,-5.3501,-5.3618,-5.3668,-5.3668,-5.3668,-5.3668,-5.3668,-5.3568,0.0,0.0,0.0,0.0,-5.0422,-4.956,0.0,-4.9001,-4.9001,-4.8909,-4.8849,-4.8849,-4.8738,-4.8547,-4.8578,-4.869,-4.8832,-4.897,-4.9001,-4.9001,-4.9001,-4.9001,-4.9001,-4.9001,-4.9001,-4.9001,-4.9001,-4.9001,-4.9001,-4.9001,-4.9001,-4.9001,-4.9001,-4.9001,-4.9001,-4.9001,-4.9001,-4.9001,-4.9001,0.0,0.0,0.0,0.0,0.0,0.0,0.0,0.0,0.0,0.0,-4.8547,0.0,0.0,0.0,0.0,0.0,0.0,0.0,0.0,0.0,0.0,0.0,0.0,0.0,0.0,-4.6212,-4.487,-4.4754,-4.4307,-4.3598,-4.3598,-4.3598,-4.3598,-4.3598,-4.3598,-4.3598,-4.3598,-4.3598,-4.3598,-4.3598,-4.3598,-4.3598,-4.3598,-4.3598,-4.3598,-5.6757,-5.668,-5.6719,-5.6834,-5.7025,0.0,0.0,-5.7322,-5.7248,-5.7357,-5.6089,-5.5175,-5.5175,-5.4177,-5.3501,-5.3501,-5.3501,-5.3501,-5.3501,-5.3501,-5.3501,-5.3501,-5.3501,-5.3501,-5.3501,-5.3501,-5.3501,-5.3501,-5.3501,-5.3501,-5.3501,0.0,0.0,-5.2841,0.0,-5.076,0.0,0.0,0.0,-4.9001,-4.8909,-4.8863,-4.8786,-4.869,-4.8532,-4.8356,-4.8452,-4.85,-4.8532,-4.8801,-4.8894,-4.8894,-4.8894,-4.8815,-4.8736,-4.8736,-4.8736,-4.8736,-4.8736,-4.8736,-4.8736,-4.8736,-4.8815,-4.8894,-4.8894,-4.8956,-4.9001,-4.9001,-4.9001,-4.9001,-4.9001,-4.9001,0.0,0.0,0.0,0.0,0.0,0.0,0.0,0.0,0.0,0.0,0.0,0.0,0.0,0.0,0.0,0.0,0.0,0.0,0.0,0.0,0.0,0.0,0.0,0.0,0.0,-4.4688,-4.4307,-4.3959,-4.3598,-4.3598,-4.3598,-4.3598,-4.3598,-4.3598,-4.3598,-4.3598,-4.3598,-4.3598,-4.3598,-4.3598,-4.3598,-4.3598,-4.3598,-4.3598,-5.6719,-5.668,-5.668,-5.668,-5.6872,-5.7063,-5.7214,-5.7402,-5.7625,-5.7881,-5.663,-5.5681,-5.5681,-5.4397,-5.3501,-5.3501,-5.3501,-5.3501,-5.3501,-5.3501,-5.3501,-5.3501,-5.3501,-5.3501,-5.3501,-5.3501,-5.3501,0.0,-5.3501,-5.3416,0.0,0.0,0.0,0.0,0.0,0.0,0.0,0.0,-4.894,-4.8877,-4.8832,-4.8755,-4.8675,-4.85,-4.8324,-4.8179,-4.834,-4.8324,-4.826,-4.858,-4.8707,-4.8738,-4.8738,-4.8627,-4.8515,-4.8515,-4.8515,-4.8515,-4.8515,-4.8515,-4.8515,-4.8515,-4.8627,-4.8738,-4.8738,-4.8815,-4.8909,-4.8909,-4.8909,-4.8909,-4.8909,-4.8909,0.0,0.0,0.0,0.0,0.0,0.0,0.0,0.0,0.0,0.0,-4.8227,0.0,0.0,0.0,0.0,-4.8001,-4.8001,-4.8001,0.0,0.0,0.0,-4.6742,-4.6427,0.0,-4.4605,0.0,-4.3893,-4.3598,-4.3598,-4.3598,-4.3598,-4.3598,-4.3598,-4.3598,-4.3598,-4.3598,-4.3598,-4.3598,-4.3598,-4.3598,-4.3598,-4.3598,-4.3598,-4.3598,-5.668,-5.668,0.0,0.0,0.0,0.0,-5.7025,-5.7214,-5.7476,-5.7845,-5.663,-5.5681,-5.5681,-5.4397,-5.3501,-5.3501,-5.3501,-5.3501,-5.3501,-5.3501,-5.3501,-5.3501,-5.3501,-5.3501,-5.3501,-5.3501,-5.3501,0.0,-5.3501,-5.3129,0.0,0.0,0.0,0.0,0.0,0.0,0.0,-4.8834,-4.869,-4.8547,-4.8738,-4.858,-4.826,-4.8227,-4.8147,-4.8033,-4.8033,-4.8115,-4.8195,-4.8227,-4.8388,-4.8515,-4.8515,-4.8515,-4.8515,-4.8515,-4.8515,-4.8515,-4.8515,-4.8515,-4.8515,-4.8515,-4.8515,-4.8515,-4.8515,-4.8547,-4.8547,-4.8547,-4.8547,-4.8547,-4.8547,-4.8547,-4.8627,0.0,0.0,0.0,0.0,0.0,-4.8292,-4.8483,0.0,0.0,0.0,0.0,0.0,0.0,-4.8001,-4.8001,-4.8001,-4.8001,-4.7703,-4.7023,0.0,-4.6245,-4.4903,-4.4785,0.0,-4.3698,-4.3631,-4.3598,-4.3598,-4.3598,-4.3598,-4.3598,-4.3598,-4.3598,-4.3598,-4.3598,-4.3598,-4.3598,-4.3598,-4.3598,-4.3598,-4.3598,-4.3598,-4.3598,0.0,0.0,0.0,0.0,0.0,0.0,0.0,-5.7063,-5.7214,-5.7514,-5.6362,-5.5576,-5.5681,-5.4277,-5.3298,-5.3298,-5.3298,-5.3298,-5.3298,-5.3416,-5.3501,-5.3501,-5.3501,-5.3501,-5.3501,-5.3501,-5.3501,0.0,0.0,0.0,0.0,0.0,0.0,0.0,0.0,-4.9024,-4.8627,-4.8627,-4.8578,-4.8483,-4.8468,-4.8324,-4.8195,-4.8115,-4.8066,-4.8001,-4.8001,-4.8033,-4.8082,-4.8082,-4.8179,-4.8324,-4.8324,-4.826,-4.8212,-4.8212,-4.8212,-4.8212,-4.8212,-4.8212,-4.8212,-4.8212,-4.8276,-4.8324,-4.8324,-4.842,-4.8515,-4.8515,-4.8515,-4.8515,-4.8515,-4.8515,-4.8515,0.0,0.0,0.0,0.0,0.0,0.0,-4.8179,0.0,-4.8082,0.0,0.0,0.0,0.0,0.0,-4.7819,-4.7355,-4.7338,0.0,-4.6245,0.0,-4.5284,-4.4718,-4.4257,-4.388,-4.3598,-4.3598,-4.3598,-4.3598,-4.3598,-4.3598,-4.3598,-4.3598,-4.3598,-4.3598,-4.3598,-4.3598,-4.3598,-4.3598,-4.3598,-4.3598,-4.3598,-4.3598,-4.3598,-5.668,0.0,-5.668,0.0,-5.668,-5.6757,-5.6872,-5.6911,-5.6987,-5.7176,-5.6054,-5.531,-5.5488,-5.4087,-5.311,-5.311,-5.311,-5.311,-5.311,-5.3314,-5.3382,-5.3314,-5.3382,0.0,-5.3416,-5.3348,-5.3399,-5.3501,-5.3433,0.0,0.0,0.0,0.0,0.0,-4.933,-4.8532,-4.842,-4.842,-4.8388,-4.8324,-4.8227,-4.8179,-4.8147,-4.8033,-4.8001,-4.8001,-4.8001,-4.8001,-4.8001,-4.8001,-4.8049,-4.8147,-4.8147,-4.8099,-4.8001,-4.8001,-4.8001,-4.8001,-4.8001,-4.8001,-4.8001,-4.8001,-4.8049,-4.8147,-4.8147,-4.826,-4.8356,-4.8356,-4.8356,-4.8356,-4.8356,-4.8356,-4.8373,-4.842,0.0,0.0,0.0,0.0,0.0,0.0,-4.8001,-4.8001,-4.8001,0.0,0.0,0.0,0.0,0.0,0.0,0.0,0.0,0.0,0.0,0.0,0.0,-4.3589,-4.3295,-4.3295,-4.3492,-4.3598,-4.3598,-4.3598,-4.3598,-4.3598,-4.3598,-4.3598,-4.3598,-4.3598,-4.3598,-4.3598,-4.3598,-4.3598,-4.3598,-4.3598,-4.3598,-4.3631,-5.668,-5.668,-5.668,-5.668,-5.668,-5.668,-5.668,-5.668,-5.6757,-5.6987,-5.5721,-5.4878,-5.5096,-5.379,-5.2903,-5.2903,-5.2903,-5.2903,-5.2903,-5.3076,-5.311,0.0,0.0,-5.3179,-5.3179,-5.3007,-5.3093,-5.3501,0.0,0.0,-5.2283,0.0,-5.0318,-5.0924,-4.9056,-4.8195,-4.8195,-4.8195,-4.8115,-4.8001,-4.8147,-4.8115,-4.8001,-4.8001,-4.8001,-4.8001,-4.8001,-4.8001,-4.8001,-4.8001,-4.8001,-4.8001,-4.8001,-4.8001,-4.8001,-4.8001,-4.8001,-4.8001,-4.8001,-4.8001,-4.8001,-4.8001,-4.8001,-4.8001,-4.8001,-4.8001,-4.8001,-4.8001,-4.8001,-4.8001,-4.8001,-4.8001,-4.8066,-4.8163,0.0,0.0,0.0,0.0,0.0,0.0,-4.8001,-4.8001,-4.8001,0.0,0.0,0.0,0.0,0.0,0.0,0.0,0.0,-4.4752,-4.4052,0.0,-4.2633,-4.2617,-4.2617,-4.2617,-4.3265,-4.3598,-4.3598,-4.3598,-4.3598,-4.3598,-4.3598,-4.3598,-4.3598,-4.3598,-4.3598,-4.3598,-4.3598,-4.3598,-4.3598,-4.3598,-4.3598,-4.3698,-5.668,-5.668,-5.668,-5.668,-5.668,-5.668,-5.668,-5.668,-5.6719,-5.6796,-5.5497,-5.4621,-5.4695,-5.3506,-5.2694,0.0,-5.2694,-5.2694,0.0,-5.2868,-5.2972,-5.2903,-5.2972,-5.3007,-5.3007,-5.2938,-5.2938,-5.3093,0.0,0.0,0.0,-5.1162,-5.0492,-5.0527,-4.8909,-4.8147,-4.8049,-4.8049,-4.8033,-4.8001,-4.8066,-4.8033,-4.8001,-4.8001,-4.8001,-4.8001,-4.8001,-4.8001,-4.8001,-4.8001,-4.8001,-4.8001,-4.8001,-4.8001,-4.8001,-4.8001,-4.8001,-4.8001,-4.8001,-4.8001,-4.8001,-4.8001,-4.8001,-4.8001,-4.8001,-4.8001,-4.8001,-4.8001,-4.8001,-4.8001,-4.8001,-4.8001,-4.8001,-4.8066,-4.8033,0.0,0.0,0.0,0.0,0.0,-4.8001,-4.8001,0.0,-4.8001,0.0,0.0,0.0,0.0,0.0,0.0,0.0,0.0,-4.2317,0.0,-4.1852,-4.1852,-4.2094,-4.2617,-4.2317,-4.2443,-4.2912,-4.2912,-4.3174,-4.3598,-4.3598,-4.3598,-4.3598,-4.3598,-4.3598,-4.3598,-4.3598,-4.3926,-4.4357,-4.4357,-4.4671,-4.5135,-5.668,-5.668,-5.668,-5.668,-5.668,-5.668,-5.668,-5.668,-5.668,-5.668,-5.5421,-5.449,-5.449,-5.3343,0.0,-5.2535,-5.2535,-5.2535,-5.2535,-5.2711,-5.2764,-5.2711,-5.2764,-5.2799,-5.2799,0.0,0.0,-5.2903,-5.2903,-5.2903,-5.287,-5.1329,-5.0526,-5.0342,-4.8828,-4.8082,-4.8001,-4.8001,-4.8001,-4.8001,-4.8001,-4.8001,-4.8001,-4.8001,-4.8001,-4.8001,-4.8001,-4.8001,-4.8001,-4.8001,-4.8001,-4.8001,-4.8001,-4.8001,-4.8001,-4.8001,-4.8001,-4.8001,-4.8001,-4.8001,-4.8001,-4.8001,-4.8001,-4.8001,-4.8001,-4.8001,-4.8001,-4.8001,-4.8001,-4.8001,-4.8001,-4.8001,-4.8001,-4.8001,-4.7754,-4.7671,-4.7968,0.0,0.0,0.0,0.0,0.0,0.0,-4.7737,0.0,0.0,0.0,0.0,0.0,0.0,0.0,-4.1541,-4.126,0.0,-4.1127,-4.1127,-4.136,-4.1787,-4.1591,-4.1754,-4.219,-4.219,-4.2585,-4.3235,-4.3235,-4.3372,-4.3598,-4.3598,-4.3747,-4.4026,-4.4026,-4.4456,-4.5102,-4.5102,-4.5384,-4.5831,-5.668,-5.668,0.0,0.0,-5.668,0.0,-5.668,-5.668,-5.6663,-5.6614,-5.5388,-5.4456,-5.4444,-5.3202,-5.2409,-5.2409,0.0,0.0,0.0,-5.2499,-5.2535,-5.2426,-5.2535,-5.2605,-5.2605,-5.248,-5.2535,-5.2868,-5.2868,-5.2868,-5.2835,-5.1177,-5.0375,-5.0325,-4.8713,-4.8001,-4.8001,-4.8001,-4.8001,-4.8001,-4.8001,-4.8001,-4.8001,-4.8001,-4.8001,-4.8001,-4.8001,-4.8001,-4.8001,-4.8001,-4.8001,-4.8001,-4.8001,-4.8001,-4.8001,-4.8001,-4.8001,-4.8001,-4.8001,-4.8001,-4.8001,-4.8001,-4.8001,-4.8001,-4.8001,-4.8001,-4.8001,-4.8001,-4.8001,-4.7968,-4.7935,-4.7935,-4.7902,-4.7853,-4.722,-4.6999,-4.7737,0.0,0.0,0.0,0.0,0.0,0.0,-4.7152,-4.6708,0.0,0.0,0.0,0.0,0.0,-4.1407,-4.136,-4.0737,-4.0409,-4.0409,-4.0409,-4.0409,-4.0443,-4.1109,-4.1426,-4.1426,-4.1426,-4.1852,-4.2617,-4.2665,-4.3056,-4.3664,-4.3731,-4.4175,-4.4771,-4.4771,-4.5218,-4.5864,-4.5864,-4.5897,-4.6046,0.0,0.0,-5.668,-5.668,-5.668,-5.668,-5.668,-5.668,-5.6498,-5.5951,-5.509,-5.4311,-5.3732,-5.2904,-5.2409,-5.2409,-5.2409,-5.2409,-5.2409,-5.2445,-5.2445,-5.2409,-5.2445,-5.2445,-5.2445,-5.2409,-5.2445,-5.2516,-5.2516,-5.2516,-5.2483,-5.0952,-5.0272,-5.0189,-4.8663,-4.8001,-4.8001,-4.8001,-4.8001,-4.8001,-4.8001,-4.8001,-4.8001,-4.8001,-4.8001,-4.8001,-4.8001,-4.8001,-4.8001,-4.8001,-4.8001,-4.8001,-4.8001,-4.8001,-4.8001,-4.8001,-4.8001,-4.8001,-4.8001,-4.8001,-4.8001,-4.8001,-4.8001,-4.8001,-4.8001,-4.8001,-4.8001,-4.8001,-4.8001,-4.782,-4.7186,-4.7067,-4.6896,-4.634,-4.6092,-4.602,-4.6198,-4.6092,0.0,0.0,-4.6234,-4.6234,-4.6234,-4.6092,-4.5985,0.0,0.0,0.0,0.0,-4.1336,-4.0446,-3.9895,-3.9753,-3.9646,-3.9646,-3.9646,-3.9646,-3.9681,-4.0374,-4.0737,-4.0737,-4.0737,-4.1426,-4.2649,-4.32,-4.3822,-4.4473,-4.5052,-4.5384,-4.5533,-4.5533,-4.598,-4.6626,-4.6626,-4.699,-4.7504,-5.668,-5.668,-5.668,-5.668,-5.668,-5.668,-5.668,-5.668,-5.6432,-5.5681,-5.4936,-5.4245,-5.35,-5.2788,-5.2409,-5.2409,-5.2409,-5.2409,-5.2409,-5.2409,-5.2409,-5.2409,-5.2409,-5.2409,-5.2409,-5.2409,-5.2409,-5.2409,-5.2409,-5.2243,-5.1879,-5.0734,-5.0038,-4.9657,-4.8514,-4.8001,-4.8001,-4.8001,-4.8001,-4.8001,-4.8001,-4.8001,-4.8001,-4.8001,-4.8001,-4.8001,-4.8001,-4.8001,-4.8001,-4.8001,-4.8001,-4.8001,-4.8001,-4.8001,-4.8001,-4.8001,-4.8001,-4.8001,-4.8001,-4.8001,-4.8001,-4.8001,-4.8001,-4.8001,-4.8001,-4.8001,-4.7902,-4.7521,-4.7438,-4.722,-4.6429,-4.6288,-4.6147,-4.5769,-4.5405,-4.5295,-4.566,-4.5369,0.0,-4.566,-4.5697,-4.5697,-4.5697,-4.5369,-4.5147,-4.5147,0.0,0.0,-4.2453,-4.1151,-4.0098,-3.9403,-3.9388,-3.9388,-3.9388,-3.9388,-3.9388,-3.9409,-3.9824,-3.9985,-4.0021,-4.0289,-4.1029,-4.2115,-4.3178,-4.401,-4.4732,-4.5474,-4.5997,-4.6295,-4.6295,-4.6742,-4.7404,-4.7404,-4.7653,-4.8001,-5.668,-5.668,-5.668,-5.668,-5.668,-5.668,-5.668,-5.668,-5.6398,-5.5532,-5.487,-5.4195,-5.3351,-5.2738,-5.2409,-5.2409,-5.2409,-5.2409,-5.2409,-5.2409,-5.2409,-5.2409,-5.2409,-5.2409,-5.2409,-5.2409,-5.2409,-5.2409,-5.2409,-5.2028,-5.1299,-5.0551,-4.9823,-4.9077,-4.8332,-4.8001,-4.8001,-4.8001,-4.8001,-4.8001,-4.8001,-4.8001,-4.8001,-4.8001,-4.8001,-4.8001,-4.8001,-4.8001,-4.8001,-4.8001,-4.8001,-4.8001,-4.8001,-4.8001,-4.8001,-4.8001,-4.8001,-4.8001,-4.8001,-4.8001,-4.8001,-4.8001,-4.8001,-4.8001,-4.8001,-4.8001,-4.777,-4.6965,-4.6811,-4.6534,-4.5697,-4.5515,-4.5478,-4.5369,-4.4774,-4.4548,-4.5258,0.0,-4.4586,-4.5258,-4.5332,-4.5332,-4.5332,-4.4699,-4.4335,-4.4335,-4.3218,-4.2515,0.0,-4.1309,-4.0352,-3.9589,-3.9433,-3.9388,-3.9388,-3.9388,-3.9388,-3.9388,-3.9388,-3.9433,-3.9553,-4.0142,-4.0801,-4.1632,-4.3001,-4.4013,-4.4836,-4.5617,-4.6382,-4.7073,-4.7073,-4.7454,-4.8001,-4.8001,-4.8001,-4.8001,-5.668,-5.668,-5.668,-5.668,-5.668,-5.668,-5.668,-5.668,-5.62,-5.4858,-5.4556,-5.4013,-5.2688,-5.2475,-5.2409,-5.2409,-5.2409,-5.2409,-5.2409,-5.2409,-5.2409,-5.2409,-5.2409,-5.2409,-5.2409,-5.2409,-5.2409,-5.2409,-5.2409,-5.2028,-5.1299,-5.0551,-4.9823,-4.9077,-4.8332,-4.8001,-4.8001,-4.8001,-4.8001,-4.8001,-4.8001,-4.8001,-4.8001,-4.8001,-4.8001,-4.8001,-4.8001,-4.8001,-4.8001,-4.8001,-4.8001,-4.8001,-4.8001,-4.8001,-4.8001,-4.8001,-4.8001,-4.8001,-4.8001,-4.8001,-4.8001,-4.8001,-4.8001,-4.8001,-4.8001,-4.8001,-4.777,-4.6965,-4.6811,-4.6378,-4.4962,-4.4699,-4.4472,-4.3771,-4.3551,-4.3512,-4.3669,0.0,-4.3512,-4.3669,-4.3654,-4.3654,-4.3654,-4.3551,-4.3472,-4.3472,-4.3279,-4.294,-4.2425,-4.2201,-4.1542,-4.0292,-3.9709,-3.9388,-3.9388,-3.9388,-3.9388,-3.9388,-3.9388,-3.9709,-4.0247,-4.0352,-4.1073,-4.2283,-4.3158,-4.4287,-4.558,-4.6346,-4.7093,-4.7835,-4.7835,-4.7901,-4.8001,-4.8001,-4.8001,-4.8001,-5.668,-5.668,-5.668,-5.668,-5.668,-5.668,-5.668,-5.6365,-5.5736,-5.4622,-5.4125,-5.3533,-5.2525,-5.2409,-5.2409,-5.2409,-5.2409,-5.2409,-5.2409,-5.2409,-5.2409,-5.2409,-5.2409,-5.2409,-5.2409,-5.2409,-5.2409,-5.2409,-5.2409,-5.2028,-5.1299,-5.0551,-4.9823,-4.9077,-4.8332,-4.8001,-4.8001,-4.8001,-4.8001,-4.8001,-4.8001,-4.8001,-4.8001,-4.8001,-4.8001,-4.8001,-4.8001,-4.8001,-4.8001,-4.8001,-4.8001,-4.8001,-4.8001,-4.8001,-4.8001,-4.8001,-4.8001,-4.8001,-4.8001,-4.8001,-4.8001,-4.8001,-4.8001,-4.7886,-4.7438,-4.7337,-4.6999,-4.5809,-4.5556,-4.519,-4.4066,-4.3849,-4.3732,-4.3369,-4.329,0.0,0.0,-4.329,-4.329,-4.329,-4.329,-4.329,-4.329,-4.329,-4.329,-4.329,-4.329,-4.317,-4.2895,-4.259,-4.2126,-4.1512,-4.0127,-3.9388,-3.9388,-3.9388,-3.9388,-3.9388,-3.9783,-4.0113,-4.0427,-4.113,-4.1798,-4.2463,-4.3569,-4.4443,-4.5099,-4.5897,-4.6655,-4.7337,-4.7337,-4.7638,-4.8001,-4.8001,-4.8001,-4.8001,-5.668,-5.668,-5.668,-5.668,-5.668,-5.668,-5.668,-5.6084,-5.5317,-5.4589,-5.3881,-5.3152,-5.2456,-5.2409,-5.2409,-5.2409,-5.2409,-5.2409,-5.2409,-5.2409,-5.2409,-5.2409,-5.2409,-5.2409,-5.2409,-5.2409,-5.2409,-5.2409,-5.2409,-5.2028,-5.1299,-5.0551,-4.9823,-4.9077,-4.8332,-4.8001,-4.8001,-4.8001,-4.8001,-4.8001,-4.8001,-4.8001,-4.8001,-4.8001,-4.8001,-4.8001,-4.8001,-4.8001,-4.8001,-4.8001,-4.8001,-4.8001,-4.8001,-4.8001,-4.8001,-4.8001,-4.8001,-4.8001,-4.8001,-4.8001,-4.8001,-4.8001,-4.8001,-4.7787,-4.6965,-4.6811,-4.6343,-4.4812,-4.451,-4.4259,-4.3448,-4.329,-4.329,-4.329,0.0,0.0,0.0,-4.329,-4.329,-4.329,-4.329,-4.329,-4.329,-4.329,-4.329,-4.329,-4.329,-4.329,-4.329,-4.2865,-4.2545,-4.2396,-4.0591,-3.9574,-3.9388,-3.9388,-3.9499,-3.9649,-4.0157,-4.0561,-4.0891,-4.1931,-4.2485,-4.265,-4.3738,-4.4335,-4.4548,-4.5184,-4.5861,-4.6569,-4.6742,-4.7186,-4.7737,-4.7935,-4.8001,-4.8001,-5.668,-5.668,-5.668,-5.668,-5.668,-5.668,-5.668,-5.6084,-5.5317,-5.4589,-5.3881,-5.3152,-5.2456,-5.2409,-5.2409,-5.2409,-5.2409,-5.2409,-5.2409,-5.2409,-5.2409,-5.2409,-5.2409,-5.2409,-5.2409,-5.2409,-5.2409,-5.2409,-5.2409,-5.2028,-5.1299,-5.0551,-4.9823,-4.9077,-4.8332,-4.8001,-4.8001,-4.8001,-4.8001,-4.8001,-4.8001,-4.8001,-4.8001,-4.8001,-4.8001,-4.8001,-4.8001,-4.8001,-4.8001,-4.8001,-4.8001,-4.8001,-4.8001,-4.8001,-4.8001,-4.8001,-4.8001,-4.8001,-4.8001,-4.8001,-4.8001,-4.8001,-4.8001,-4.7787,-4.6965,-4.6811,-4.6343,-4.4812,-4.451,-4.4259,-4.3448,-4.329,-4.329,-4.329,0.0,0.0,-4.329,-4.329,-4.329,-4.329,-4.329,-4.329,-4.329,-4.329,-4.329,-4.329,-4.329,-4.329,-4.329,-4.3245,-4.2985,-4.2425,-4.104,-4.0038,-3.9424,-3.9388,-3.9723,-4.0337,-4.0382,-4.104,-4.2261,-4.2351,-4.2686,-4.323,-4.3354,-4.381,-4.451,-4.4548,-4.5073,-4.5841,-4.6534,-4.6862,-4.6965,-4.7754,-4.8001,-4.8001,-5.668,-5.668,-5.668,-5.668,-5.668,-5.6547,-5.61,-5.5405,-5.4638,-5.3894,-5.3218,-5.2672,-5.2442,-5.2409,-5.2409,-5.2409,-5.2409,-5.2409,-5.2409,-5.2409,-5.2409,-5.2409,-5.2409,-5.2409,-5.2409,-5.2409,-5.2409,-5.2409,-5.2409,-5.2277,-5.1978,-5.0767,-5.0055,-4.974,-4.8531,-4.8001,-4.8001,-4.8001,-4.8001,-4.8001,-4.8001,-4.8001,-4.8001,-4.8001,-4.8001,-4.8001,-4.8001,-4.8001,-4.8001,-4.8001,-4.8001,-4.8001,-4.8001,-4.8001,-4.8001,-4.8001,-4.8001,-4.8001,-4.8001,-4.8001,-4.8001,-4.8001,-4.7621,-4.705,-4.6288,-4.5753,-4.5095,-4.3989,-4.3771,-4.3669,-4.3369,-4.329,-4.329,-4.329,0.0,-4.329,-4.329,-4.329,-4.329,-4.329,-4.329,-4.329,-4.329,-4.329,-4.329,-4.329,-4.329,-4.329,-4.329,-4.329,-4.303,-4.2425,-4.1916,-4.1332,-4.0651,-4.0636,-4.0756,-4.101,-4.1452,-4.1916,-4.241,-4.2776,-4.309,-4.329,-4.329,-4.3472,-4.3771,-4.3771,-4.422,-4.4999,-4.5264,-4.5681,-4.6147,-4.6445,-4.655,-4.6636,-5.668,-5.668,-5.668,-5.668,-5.668,-5.6448,-5.5698,-5.4953,-5.4262,-5.3516,-5.2821,-5.2409,-5.2409,-5.2409,-5.2409,-5.2409,-5.2409,-5.2409,-5.2409,-5.2409,-5.2409,-5.2409,-5.2409,-5.2409,-5.2409,-5.2409,-5.2409,-5.2409,-5.2409,-5.2409,-5.2393,-5.0899,-5.022,-5.0154,-4.8663,-4.8001,-4.8001,-4.8001,-4.8001,-4.8001,-4.8001,-4.8001,-4.8001,-4.8001,-4.8001,-4.8001,-4.8001,-4.8001,-4.8001,-4.8001,-4.8001,-4.8001,-4.8001,-4.8001,-4.8001,-4.8001,-4.782,-4.7671,-4.7935,-4.782,-4.7671,-4.7935,-4.7421,-4.6604,-4.5877,-4.5073,-4.4259,-4.3488,-4.329,-4.329,-4.329,-4.329,-4.329,-4.329,-4.329,-4.329,-4.329,-4.329,-4.329,-4.329,-4.329,-4.329,-4.329,-4.329,-4.329,-4.329,-4.329,-4.329,-4.329,-4.329,-4.3135,-4.2686,-4.2671,-4.2447,-4.1998,-4.1594,-4.1527,-4.1737,-4.2186,-4.2515,-4.2686,-4.3135,-4.329,-4.329,-4.329,-4.329,-4.329,-4.329,-4.363,-4.4143,-4.4396,-4.4849,-4.5369,-4.5624,-4.5697,-4.5769,-5.668,-5.668,-5.668,-5.668,-5.668,-5.6432,-5.5681,-5.4953,-5.4208,-5.35,-5.2804,-5.2409,-5.2409,-5.2409,-5.2409,-5.2409,-5.2409,-5.2409,-5.2409,-5.2409,-5.2409,-5.2409,-5.2409,-5.2409,-5.2409,-5.2409,-5.2409,-5.2409,-5.2409,-5.2409,-5.2393,-5.0899,-5.022,-5.0154,-4.8663,-4.8001,-4.8001,-4.8001,-4.8001,-4.8001,-4.8001,-4.8001,-4.8001,-4.8001,-4.8001,-4.8001,-4.8001,-4.8001,-4.8001,-4.8001,-4.8001,-4.8001,-4.8001,-4.8001,-4.8001,-4.8001,-4.7421,-4.6965,-4.7787,-4.7404,-4.6965,-4.7787,-4.7371,-4.6604,-4.5877,-4.5073,-4.4259,-4.3472,-4.329,-4.329,-4.329,-4.329,-4.329,-4.329,-4.329,-4.329,-4.329,-4.329,-4.329,-4.329,-4.329,-4.329,-4.329,-4.329,-4.329,-4.329,-4.329,-4.329,-4.329,-4.329,-4.329,-4.329,-4.329,-4.329,-4.329,-4.2043,-4.1767,-4.241,-4.241,-4.2701,-4.329,-4.329,-4.329,-4.329,-4.329,-4.329,-4.329,-4.329,-4.329,-4.3369,-4.4182,-4.4472,-4.4586,-4.5405,-4.566,-4.5697,-5.668,-5.668,-5.668,-5.668,-5.6266,-5.5703,-5.492,-5.4175,-5.3483,-5.2788,-5.2506,-5.2409,-5.2409,-5.2409,-5.2409,-5.2409,-5.2409,-5.2409,-5.2409,-5.2409,-5.2409,-5.2409,-5.2409,-5.2409,-5.2409,-5.2409,-5.2409,-5.2409,-5.2409,-5.2409,-5.2393,-5.0899,-5.022,-5.0154,-4.8663,-4.8001,-4.8001,-4.8001,-4.8001,-4.8001,-4.8001,-4.8001,-4.8001,-4.8001,-4.8001,-4.8001,-4.8001,-4.8001,-4.8001,-4.8001,-4.8001,-4.8001,-4.8001,-4.8001,-4.7886,-4.7337,-4.6999,-4.6742,-4.6445,-4.6198,-4.6198,-4.6965,-4.6585,-4.5825,-4.5036,-4.4259,-4.3591,-4.3369,-4.329,-4.329,-4.329,-4.329,-4.329,-4.329,-4.329,-4.329,-4.329,-4.329,-4.329,-4.329,-4.329,-4.329,-4.329,-4.329,-4.329,-4.329,-4.329,-4.329,-4.329,-4.329,-4.329,-4.329,-4.329,-4.329,-4.329,-4.2901,-4.2851,-4.3045,-4.3045,-4.315,-4.329,-4.329,-4.329,-4.329,-4.329,-4.329,-4.329,-4.329,-4.329,-4.3329,-4.3551,-4.3669,-4.3708,-4.3927,-4.4004,-4.4105,-5.668,-5.668,-5.668,-5.668,-5.61,-5.5334,-5.4589,-5.3881,-5.3169,-5.2473,-5.2409,-5.2409,-5.2409,-5.2409,-5.2409,-5.2409,-5.2409,-5.2409,-5.2409,-5.2409,-5.2409,-5.2409,-5.2409,-5.2409,-5.2409,-5.2409,-5.2409,-5.2409,-5.2409,-5.2409,-5.2393,-5.1181,-5.0485,-5.0171,-4.8961,-4.8266,-4.8001,-4.8001,-4.8001,-4.8001,-4.8001,-4.8001,-4.8001,-4.8001,-4.8001,-4.8001,-4.8001,-4.8001,-4.8001,-4.8001,-4.8001,-4.8001,-4.8001,-4.8001,-4.7853,-4.705,-4.6604,-4.6253,-4.5841,-4.5478,-4.5316,-4.5773,-4.5572,-4.511,-4.4624,-4.3888,-4.329,-4.329,-4.329,-4.329,-4.329,-4.329,-4.329,-4.329,-4.329,-4.329,-4.329,-4.329,-4.329,-4.329,-4.329,-4.329,-4.329,-4.329,-4.329,-4.329,-4.329,-4.329,-4.329,-4.329,-4.329,-4.329,-4.329,-4.329,-4.329,-4.329,-4.329,-4.329,-4.329,-4.329,-4.329,-4.329,-4.329,-4.329,-4.329,-4.329,-4.329,-4.329,-4.329,-4.329,-4.329,-4.329,-4.329,-4.329,-4.329,-4.3369,-5.668,-5.668,-5.6663,-5.6597,-5.6001,-5.5234,-5.449,-5.3798,-5.3086,-5.2473,-5.2409,-5.2409,-5.2409,-5.2409,-5.2409,-5.2409,-5.2409,-5.2409,-5.2409,-5.2409,-5.2409,-5.2409,-5.2409,-5.2409,-5.2409,-5.2409,-5.2409,-5.2409,-5.2409,-5.2409,-5.2393,-5.1663,-5.0899,-5.0187,-4.9442,-4.8696,-4.8001,-4.8001,-4.8001,-4.8001,-4.8001,-4.8001,-4.8001,-4.8001,-4.8001,-4.8001,-4.8001,-4.8001,-4.8001,-4.8001,-4.8001,-4.8001,-4.8001,-4.8001,-4.7853,-4.705,-4.6288,-4.5697,-4.5624,-4.4999,-4.4396,-4.4396,-4.4396,-4.4396,-4.4396,-4.381,-4.329,-4.329,-4.329,-4.329,-4.329,-4.329,-4.329,-4.329,-4.329,-4.329,-4.329,-4.329,-4.329,-4.329,-4.329,-4.329,-4.329,-4.329,-4.329,-4.329,-4.329,-4.329,-4.329,-4.329,-4.329,-4.329,-4.329,-4.329,-4.329,-4.329,-4.329,-4.329,-4.329,-4.329,-4.329,-4.329,-4.329,-4.329,-4.329,-4.329,-4.329,-4.329,-4.329,-4.329,-4.329,-4.329,-4.329,-4.329,-4.329,-4.329,-5.668,-5.668,-5.6514,-5.5951,-5.5239,-5.451,-5.3765,-5.3053,-5.2556,-5.2442,-5.2409,-5.2409,-5.2409,-5.2409,-5.2409,-5.2409,-5.2409,-5.2409,-5.2409,-5.2409,-5.2409,-5.2409,-5.2409,-5.2409,-5.2409,-5.2409,-5.2409,-5.2409,-5.2409,-5.2409,-5.2393,-5.1663,-5.0899,-5.0187,-4.9442,-4.8696,-4.8001,-4.8001,-4.8001,-4.8001,-4.8001,-4.8001,-4.8001,-4.8001,-4.8001,-4.8001,-4.8001,-4.8001,-4.8001,-4.8001,-4.8001,-4.8001,-4.8001,-4.8001,-4.7853,-4.705,-4.6288,-4.5551,-4.4924,-4.4182,-4.3551,-4.3551,-4.3551,-4.3551,-4.3551,-4.3448,-4.329,-4.329,-4.329,-4.329,-4.329,-4.329,-4.329,-4.329,-4.329,-4.329,-4.329,-4.329,-4.329,-4.329,-4.329,-4.329,-4.329,-4.329,-4.329,-4.329,-4.329,-4.329,-4.329,-4.329,-4.329,-4.329,-4.329,-4.329,-4.329,-4.329,-4.329,-4.329,-4.329,-4.329,-4.329,-4.329,-4.329,-4.329,-4.329,-4.329,-4.329,-4.329,-4.329,-4.329,-4.329,-4.329,-4.329,-4.329,-4.329,-4.329,-5.668,-5.6415,-5.6067,-5.5648,-5.4688,-5.3864,-5.3483,-5.2821,-5.2409,-5.2409,-5.2409,-5.2409,-5.2409,-5.2409,-5.2409,-5.2409,-5.2409,-5.2409,-5.2409,-5.2409,-5.2409,-5.2409,-5.2409,-5.2409,-5.2409,-5.2409,-5.2409,-5.2409,-5.2409,-5.2409,-5.2409,-5.2028,-5.1413,-5.0684,-4.9955,-4.9226,-4.8514,-4.815,-4.8001,-4.8001,-4.8001,-4.8001,-4.8001,-4.8001,-4.8001,-4.8001,-4.8001,-4.8001,-4.8001,-4.8001,-4.8001,-4.8001,-4.8001,-4.8001,-4.7787,-4.662,-4.6005,-4.5442,-4.4259,-4.363,-4.329,-4.329,-4.329,-4.329,-4.329,-4.329,-4.329,-4.329,-4.329,-4.329,-4.329,-4.329,-4.329,-4.329,-4.329,-4.329,-4.329,-4.329,-4.329,-4.329,-4.329,-4.329,-4.329,-4.329,-4.329,-4.329,-4.329,-4.329,-4.329,-4.329,-4.329,-4.329,-4.329,-4.329,-4.329,-4.329,-4.329,-4.329,-4.329,-4.329,-4.329,-4.329,-4.329,-4.329,-4.329,-4.329,-4.329,-4.329,-4.329,-4.329,-4.329,-4.329,-4.329,-4.329,-4.329,-4.329,-5.668,-5.6117,-5.5549,-5.5416,-5.4311,-5.3367,-5.3251,-5.2754,-5.2409,-5.2409,-5.2409,-5.2409,-5.2409,-5.2409,-5.2409,-5.2409,-5.2409,-5.2409,-5.2409,-5.2409,-5.2409,-5.2409,-5.2409,-5.2409,-5.2409,-5.2409,-5.2409,-5.2409,-5.2409,-5.2409,-5.2409,-5.2409,-5.2028,-5.1282,-5.0651,-4.9922,-4.9061,-4.8448,-4.8117,-4.8001,-4.8001,-4.8001,-4.8001,-4.8001,-4.8001,-4.7968,-4.7853,-4.777,-4.777,-4.777,-4.7886,-4.8001,-4.8001,-4.8001,-4.7754,-4.6461,-4.5913,-4.5405,-4.4066,-4.3512,-4.329,-4.329,-4.329,-4.329,-4.329,-4.329,-4.329,-4.329,-4.329,-4.329,-4.329,-4.329,-4.329,-4.329,-4.329,-4.329,-4.329,-4.329,-4.329,-4.329,-4.329,-4.329,-4.329,-4.329,-4.329,-4.329,-4.329,-4.329,-4.329,-4.329,-4.329,-4.329,-4.329,-4.329,-4.329,-4.329,-4.329,-4.329,-4.329,-4.329,-4.329,-4.329,-4.329,-4.329,-4.329,-4.329,-4.329,-4.329,-4.329,-4.329,-4.329,-4.329,-4.329,-4.329,-4.329,-4.329,-5.668,-5.6117,-5.5383,-5.4738,-5.398,-5.3202,-5.2605,-5.2475,-5.2409,-5.2409,-5.2409,-5.2409,-5.2409,-5.2409,-5.2409,-5.2409,-5.2409,-5.2409,-5.2409,-5.2409,-5.2409,-5.2409,-5.2409,-5.2409,-5.2409,-5.2409,-5.2409,-5.2409,-5.2409,-5.2409,-5.2409,-5.2409,-5.2028,-5.1315,-5.1216,-5.0386,-4.9094,-4.8995,-4.858,-4.8001,-4.8001,-4.8001,-4.8001,-4.8001,-4.8001,-4.7886,-4.722,-4.6965,-4.6965,-4.6965,-4.7404,-4.8001,-4.8001,-4.8001,-4.7968,-4.7754,-4.674,-4.566,-4.5442,-4.4373,-4.329,-4.329,-4.329,-4.329,-4.329,-4.329,-4.329,-4.329,-4.329,-4.329,-4.329,-4.329,-4.329,-4.329,-4.329,-4.329,-4.329,-4.329,-4.329,-4.329,-4.329,-4.329,-4.329,-4.329,-4.329,-4.329,-4.329,-4.329,-4.329,-4.329,-4.329,-4.329,-4.329,-4.329,-4.329,-4.329,-4.329,-4.329,-4.329,-4.329,-4.329,-4.329,-4.329,-4.329,-4.329,-4.329,-4.329,-4.329,-4.329,-4.329,-4.329,-4.329,-4.329,-4.329,-4.329,-4.329,-5.6183,-5.5504,-5.4738,-5.403,-5.3318,-5.2738,-5.2459,-5.2409,-5.2409,-5.2409,-5.2409,-5.2409,-5.2409,-5.2409,-5.2409,-5.2409,-5.2409,-5.2409,-5.2409,-5.2409,-5.2409,-5.2409,-5.2409,-5.2409,-5.2409,-5.2409,-5.2409,-5.2409,-5.2409,-5.2409,-5.2409,-5.2409,-5.2243,-5.1912,-5.1498,-5.0951,-5.0253,-4.9458,-4.8912,-4.858,-4.8166,-4.8001,-4.8001,-4.8001,-4.8001,-4.7886,-4.7067,-4.6534,-4.6182,-4.6182,-4.6689,-4.727,-4.6844,-4.732,-4.782,-4.6963,-4.6234,-4.5588,-4.5147,-4.4182,-4.329,-4.329,-4.329,-4.329,-4.329,-4.329,-4.329,-4.329,-4.329,-4.329,-4.329,-4.329,-4.329,-4.329,-4.329,-4.329,-4.329,-4.329,-4.329,-4.329,-4.329,-4.329,-4.329,-4.329,-4.329,-4.329,-4.329,-4.329,-4.329,-4.329,-4.329,-4.329,-4.329,-4.329,-4.329,-4.329,-4.329,-4.329,-4.329,-4.329,-4.329,-4.329,-4.329,-4.329,-4.329,-4.329,-4.329,-4.329,-4.329,-4.329,-4.329,-4.329,-4.329,-4.329,-4.329,-4.329]},{"header":{"parameterUnit":"m.s-1","parameterCategory":1,"la1":30.6,"la2":28.766,"lo1":-90.7593,"lo2":-88.6598,"dy":0.0162,"dx":0.0183,"nx":116,"ny":114,"refTime":"2024-05-01T00:00:00:Z","depth":0,"parameterNumber":3,"parameterNumberName":"V-component_of_WINDS"},"data":[0.0,0.0,0.0,0.0,0.0,0.0,0.0,0.0,0.0,0.0,0.0,0.0,0.0,0.0,0.0,0.0,0.0,0.0,0.0,0.0,0.0,0.0,0.0,0.0,0.0,0.0,0.0,0.0,0.0,0.0,0.0,0.0,0.0,0.0,0.0,0.0,0.0,0.0,0.0,0.0,0.0,0.0,0.0,0.0,0.0,0.0,0.0,0.0,0.0,0.0,0.0,0.0,0.0,0.0,0.0,0.0,0.0,0.0,0.0,0.0,0.0,0.0,0.0,0.0,0.0,0.0,0.0,0.0,0.0,0.0,0.0,0.0,0.0,0.0,0.0,0.0,0.0,0.0,0.0,0.0,0.0,0.0,0.0,0.0,0.0,0.0,0.0,0.0,0.0,0.0,0.0,0.0,0.0,0.0,0.0,0.0,0.0,0.0,0.0,0.0,0.0,0.0,0.0,0.0,0.0,0.0,0.0,0.0,0.0,0.0,0.0,0.0,0.0,0.0,0.0,0.0,0.0,0.0,0.0,0.0,0.0,0.0,0.0,0.0,0.0,0.0,0.0,0.0,0.0,0.0,0.0,0.0,0.0,0.0,0.0,0.0,0.0,0.0,0.0,0.0,0.0,0.0,0.0,0.0,0.0,0.0,0.0,0.0,0.0,0.0,0.0,0.0,0.0,0.0,0.0,0.0,0.0,0.0,0.0,0.0,0.0,0.0,0.0,0.0,0.0,0.0,0.0,0.0,0.0,0.0,0.0,0.0,0.0,0.0,0.0,0.0,0.0,0.0,0.0,0.0,0.0,0.0,0.0,0.0,0.0,0.0,0.0,0.0,0.0,0.0,0.0,0.0,0.0,0.0,0.0,0.0,0.0,0.0,0.0,0.0,0.0,0.0,0.0,0.0,0.0,0.0,0.0,0.0,0.0,0.0,0.0,0.0,0.0,0.0,0.0,0.0,0.0,0.0,0.0,0.0,0.0,0.0,0.0,0.0,0.0,0.0,0.0,0.0,0.0,0.0,0.0,0.0,0.0,0.0,0.0,0.0,0.0,0.0,0.0,0.0,0.0,0.0,0.0,0.0,0.0,0.0,0.0,0.0,0.0,0.0,0.0,0.0,0.0,0.0,0.0,0.0,0.0,0.0,0.0,0.0,0.0,0.0,0.0,0.0,0.0,0.0,0.0,0.0,0.0,0.0,0.0,0.0,0.0,0.0,0.0,0.0,0.0,0.0,0.0,0.0,0.0,0.0,0.0,0.0,0.0,0.0,0.0,0.0,0.0,0.0,0.0,0.0,0.0,0.0,0.0,0.0,0.0,0.0,0.0,0.0,0.0,0.0,0.0,0.0,0.0,0.0,0.0,0.0,0.0,0.0,0.0,0.0,0.0,0.0,0.0,0.0,0.0,0.0,0.0,0.0,0.0,0.0,0.0,0.0,0.0,0.0,0.0,0.0,0.0,0.0,0.0,0.0,0.0,0.0,0.0,0.0,0.0,0.0,0.0,0.0,0.0,0.0,0.0,0.0,0.0,0.0,0.0,0.0,0.0,0.0,0.0,0.0,0.0,0.0,0.0,0.0,0.0,0.0,0.0,0.0,0.0,0.0,0.0,0.0,0.0,0.0,0.0,0.0,0.0,0.0,0.0,0.0,0.0,0.0,0.0,0.0,0.0,0.0,0.0,0.0,0.0,0.0,0.0,0.0,0.0,0.0,0.0,0.0,0.0,0.0,0.0,0.0,0.0,0.0,0.0,0.0,0.0,0.0,0.0,0.0,0.0,0.0,0.0,0.0,0.0,0.0,0.0,0.0,0.0,0.0,0.0,0.0,0.0,0.0,0.0,0.0,0.0,0.0,0.0,0.0,0.0,0.0,0.0,0.0,0.0,0.0,0.0,0.0,0.0,0.0,0.0,0.0,0.0,0.0,0.0,0.0,0.0,0.0,0.0,0.0,0.0,0.0,0.0,0.0,0.0,0.0,0.0,0.0,0.0,0.0,0.0,0.0,0.0,0.0,0.0,0.0,0.0,0.0,0.0,0.0,0.0,0.0,0.0,0.0,0.0,0.0,0.0,0.0,0.0,0.0,0.0,0.0,0.0,0.0,0.0,0.0,0.0,0.0,0.0,0.0,0.0,0.0,0.0,0.0,0.0,0.0,0.0,0.0,0.0,0.0,0.0,0.0,0.0,0.0,0.0,0.0,0.0,0.0,0.0,0.0,0.0,0.0,0.0,0.0,0.0,0.0,0.0,0.0,0.0,0.0,0.0,0.0,0.0,0.0,0.0,0.0,0.0,0.0,0.0,0.0,0.0,0.0,0.0,0.0,0.0,0.0,0.0,0.0,0.0,0.0,0.0,0.0,0.0,0.0,0.0,0.0,0.0,0.0,0.0,0.0,0.0,0.0,0.0,0.0,0.0,0.0,0.0,0.0,0.0,0.0,0.0,0.0,0.0,0.0,0.0,0.0,0.0,0.0,0.0,0.0,0.0,0.0,0.0,0.0,0.0,0.0,0.0,0.0,0.0,0.0,0.0,0.0,0.0,0.0,0.0,0.0,0.0,0.0,0.0,0.0,0.0,0.0,0.0,0.0,0.0,0.0,0.0,0.0,0.0,0.0,0.0,0.0,0.0,0.0,0.0,0.0,0.0,0.0,0.0,0.0,0.0,0.0,0.0,0.0,0.0,0.0,0.0,0.0,0.0,0.0,0.0,0.0,0.0,0.0,0.0,0.0,0.0,0.0,0.0,0.0,0.0,0.0,0.0,0.0,0.0,0.0,0.0,0.0,0.0,0.0,0.0,0.0,0.0,0.0,0.0,0.0,0.0,0.0,0.0,0.0,0.0,0.0,0.0,0.0,0.0,0.0,0.0,0.0,0.0,0.0,0.0,0.0,0.0,0.0,0.0,0.0,0.0,0.0,0.0,0.0,0.0,0.0,0.0,0.0,0.0,0.0,0.0,0.0,0.0,0.0,0.0,0.0,0.0,0.0,0.0,0.0,0.0,0.0,0.0,0.0,0.0,0.0,0.0,0.0,0.0,0.0,0.0,0.0,0.0,0.0,0.0,0.0,0.0,0.0,0.0,0.0,0.0,0.0,0.0,0.0,0.0,0.0,0.0,0.0,0.0,0.0,0.0,0.0,0.0,0.0,0.0,0.0,0.0,0.0,0.0,0.0,0.0,0.0,0.0,0.0,0.0,0.0,0.0,0.0,0.0,0.0,0.0,0.0,0.0,0.0,0.0,0.0,0.0,0.0,0.0,0.0,0.0,0.0,0.0,0.0,0.0,0.0,0.0,0.0,0.0,0.0,0.0,0.0,0.0,0.0,0.0,0.0,0.0,0.0,0.0,0.0,0.0,0.0,0.0,0.0,0.0,0.0,0.0,0.0,0.0,0.0,0.0,0.0,0.0,0.0,0.0,0.0,0.0,0.0,0.0,0.0,0.0,0.0,0.0,0.0,0.0,0.0,0.0,0.0,0.0,0.0,0.0,0.0,0.0,0.0,0.0,0.0,0.0,0.0,0.0,0.0,0.0,0.0,0.0,0.0,0.0,0.0,0.0,0.0,0.0,0.0,0.0,0.0,0.0,0.0,0.0,0.0,0.0,0.0,0.0,0.0,0.0,0.0,0.0,0.0,0.0,0.0,0.0,0.0,0.0,0.0,0.0,0.0,0.0,0.0,0.0,0.0,0.0,0.0,0.0,0.0,0.0,0.0,0.0,0.0,0.0,0.0,0.0,0.0,0.0,0.0,0.0,0.0,0.0,0.0,0.0,0.0,0.0,0.0,0.0,0.0,0.0,0.0,0.0,0.0,0.0,0.0,0.0,0.0,0.0,0.0,0.0,0.0,0.0,0.0,0.0,0.0,0.0,0.0,0.0,0.0,0.0,0.0,0.0,0.0,0.0,0.0,0.0,0.0,0.0,0.0,0.0,0.0,0.0,0.0,0.0,0.0,0.0,0.0,0.0,0.0,0.0,0.0,0.0,0.0,0.0,0.0,0.0,0.0,0.0,0.0,0.0,0.0,0.0,0.0,0.0,0.0,0.0,0.0,0.0,0.0,0.0,0.0,0.0,0.0,0.0,0.0,0.0,0.0,0.0,0.0,0.0,0.0,0.0,0.0,0.0,0.0,0.0,0.0,0.0,0.0,0.0,0.0,0.0,0.0,0.0,0.0,0.0,0.0,0.0,0.0,0.0,0.0,0.0,0.0,0.0,0.0,0.0,0.0,0.0,0.0,0.0,0.0,0.0,0.0,0.0,0.0,0.0,0.0,0.0,0.0,0.0,0.0,0.0,0.0,0.0,0.0,0.0,0.0,0.0,0.0,0.0,0.0,0.0,0.0,0.0,0.0,0.0,0.0,0.0,0.0,0.0,0.0,0.0,0.0,0.0,0.0,0.0,0.0,0.0,0.0,0.0,0.0,0.0,0.0,0.0,0.0,0.0,0.0,0.0,0.0,0.0,0.0,0.0,0.0,0.0,0.0,0.0,0.0,0.0,0.0,0.0,0.0,0.0,0.0,0.0,0.0,0.0,0.0,0.0,0.0,0.0,0.0,0.0,0.0,0.0,0.0,0.0,0.0,0.0,0.0,0.0,0.0,0.0,0.0,0.0,0.0,0.0,0.0,0.0,0.0,0.0,0.0,0.0,0.0,0.0,0.0,0.0,0.0,0.0,0.0,0.0,0.0,0.0,0.0,0.0,0.0,0.0,0.0,0.0,0.0,0.0,0.0,0.0,0.0,0.0,0.0,0.0,0.0,0.0,0.0,0.0,0.0,0.0,0.0,0.0,0.0,0.0,0.0,0.0,0.0,0.0,0.0,0.0,0.0,0.0,0.0,0.0,0.0,0.0,0.0,0.0,0.0,0.0,0.0,0.0,0.0,0.0,0.0,0.0,0.0,0.0,0.0,0.0,0.0,0.0,0.0,0.0,0.0,0.0,0.0,0.0,0.0,0.0,0.0,0.0,0.0,0.0,0.0,0.0,0.0,0.0,0.0,0.0,0.0,0.0,0.0,0.0,0.0,0.0,0.0,0.0,0.0,0.0,0.0,0.0,0.0,0.0,0.0,0.0,0.0,0.0,0.0,0.0,0.0,0.0,0.0,0.0,0.0,0.0,0.0,0.0,0.0,0.0,0.0,0.0,0.0,0.0,0.0,0.0,0.0,0.0,0.0,0.0,0.0,0.0,0.0,0.0,0.0,0.0,0.0,0.0,0.0,0.0,0.0,0.0,0.0,0.0,0.0,0.0,0.0,0.0,0.0,0.0,0.0,0.0,0.0,0.0,0.0,0.0,0.0,0.0,0.0,0.0,0.0,0.0,0.0,0.0,0.0,0.0,0.0,0.0,0.0,0.0,0.0,0.0,0.0,0.0,0.0,0.0,0.0,0.0,0.0,0.0,0.0,0.0,0.0,0.0,0.0,0.0,0.0,0.0,0.0,0.0,0.0,0.0,0.0,0.0,0.0,0.0,0.0,0.0,0.0,0.0,0.0,0.0,0.0,0.0,0.0,0.0,0.0,0.0,0.0,0.0,0.0,0.0,0.0,0.0,0.0,0.0,0.0,0.0,0.0,0.0,0.0,0.0,0.0,0.0,0.0,0.0,0.0,0.0,0.0,0.0,0.0,0.0,0.0,0.0,0.0,0.0,0.0,0.0,0.0,0.0,0.0,0.0,0.0,0.0,0.0,0.0,0.0,0.0,0.0,0.0,0.0,0.0,0.0,0.0,0.0,0.0,0.0,0.0,0.0,0.0,0.0,0.0,0.0,0.0,0.0,0.0,0.0,0.0,0.0,0.0,0.0,0.0,0.0,0.0,0.0,0.0,0.0,0.0,0.0,0.0,0.0,0.0,0.0,0.0,0.0,0.0,0.0,0.0,0.0,0.0,0.0,0.0,0.0,0.0,0.0,0.0,0.0,0.0,0.0,0.0,0.0,0.0,0.0,0.0,0.0,0.0,0.0,0.0,0.0,0.0,0.0,0.0,0.0,0.0,0.0,0.0,0.0,0.0,0.0,0.0,0.0,0.0,0.0,0.0,0.0,0.0,0.0,0.0,0.0,0.0,0.0,0.0,0.0,0.0,0.0,0.0,0.0,0.0,0.0,0.0,0.0,1.2395,0.0,0.0,0.0,0.0,0.0,0.0,0.0,0.0,0.0,0.0,0.0,0.0,0.0,0.0,0.0,0.0,0.0,0.0,0.0,0.0,0.0,0.0,0.0,0.0,2.3065,2.3065,2.2928,2.2928,2.2928,2.2928,0.0,0.0,0.0,0.0,0.0,2.2714,2.2707,2.2774,2.2975,2.3103,2.3094,2.2935,2.2967,2.2841,2.2707,0.0,0.0,0.0,0.0,0.0,0.0,0.0,0.0,0.0,0.0,0.0,0.0,0.0,0.0,0.0,0.0,0.0,0.0,0.0,0.0,0.0,0.0,0.0,0.0,0.0,0.0,0.0,0.0,0.0,0.0,0.0,0.0,0.0,0.0,0.0,0.0,0.0,0.0,0.0,0.0,0.0,0.0,0.0,0.0,0.0,0.0,0.0,0.0,0.0,0.0,0.0,0.0,0.0,0.0,0.0,0.0,0.0,0.0,0.0,0.0,0.0,0.0,0.0,0.0,0.0,0.0,0.0,0.0,0.0,0.0,0.0,1.2508,0.0,0.0,0.0,0.0,0.0,0.0,0.0,0.0,0.0,0.0,0.0,0.0,0.0,0.0,0.0,0.0,0.0,0.0,0.0,0.0,0.0,2.327,2.3133,2.327,2.3338,2.3133,2.3017,2.299,2.299,2.2943,0.0,0.0,2.2472,2.2557,2.2576,2.2576,2.27,2.3028,2.3044,2.3074,2.3074,2.2953,2.2802,2.2483,2.2266,0.0,0.0,0.0,0.0,0.0,0.0,0.0,0.0,0.0,0.0,0.0,0.0,0.0,0.0,0.0,0.0,0.0,0.0,0.0,0.0,0.0,0.0,0.0,0.0,0.0,0.0,0.0,0.0,0.0,0.0,0.0,0.0,0.0,0.0,0.0,0.0,0.0,0.0,0.0,0.0,0.0,0.0,0.0,0.0,0.0,0.0,0.0,0.0,0.0,0.0,0.0,0.0,0.0,0.0,0.0,0.0,0.0,0.0,0.0,0.0,0.0,0.0,0.0,1.7538,1.7429,1.7361,1.7109,1.6398,1.5178,1.3971,1.3033,1.2375,0.0,0.0,0.0,0.0,0.0,0.0,0.0,0.0,0.0,0.0,0.0,0.0,0.0,0.0,0.0,0.0,0.0,0.0,0.0,0.0,2.3201,2.3823,2.3611,2.3543,2.3823,2.3572,2.3419,2.3419,2.3168,2.3001,2.2894,2.2894,2.2939,2.2897,2.2897,2.2962,2.3028,2.3085,2.3207,2.3527,2.2927,2.2609,2.2567,2.279,2.2897,2.2897,0.0,0.0,0.0,0.0,0.0,0.0,0.0,0.0,0.0,0.0,0.0,0.0,0.0,0.0,0.0,0.0,0.0,0.0,0.0,0.0,0.0,0.0,0.0,0.0,0.0,0.0,0.0,0.0,0.0,0.0,0.0,0.0,0.0,0.0,0.0,0.0,0.0,0.0,0.0,0.0,0.0,2.3419,2.3419,0.0,0.0,0.0,0.0,0.0,0.0,0.0,0.0,0.0,0.0,0.0,0.0,0.0,1.7071,1.7071,1.8231,1.8799,1.8769,1.8769,1.8746,1.8716,1.7555,1.6915,1.6656,1.5262,0.0,1.2704,1.2704,0.0,0.0,0.0,0.0,0.0,0.0,0.0,0.0,0.0,0.0,0.0,0.0,0.0,0.0,0.0,0.0,0.0,0.0,0.0,0.0,0.0,2.3558,2.369,2.3455,2.3308,2.3231,2.3231,2.3105,2.2951,2.2783,2.2776,2.2756,2.2773,2.2766,2.2893,2.3085,2.3075,2.3199,2.3318,2.2991,2.2863,2.287,2.3026,2.2829,2.2524,2.2699,0.0,0.0,0.0,0.0,0.0,0.0,0.0,0.0,0.0,0.0,0.0,0.0,0.0,0.0,0.0,0.0,0.0,0.0,0.0,0.0,0.0,0.0,0.0,0.0,0.0,0.0,0.0,0.0,0.0,0.0,0.0,0.0,0.0,0.0,0.0,0.0,0.0,0.0,0.0,2.3581,2.3427,2.3252,2.2631,2.2257,0.0,0.0,0.0,0.0,0.0,0.0,0.0,0.0,0.0,1.9297,1.9297,1.9297,1.9297,1.9877,2.0202,2.0202,2.0202,2.0202,2.0138,1.9559,1.8844,1.8075,1.6651,1.5749,1.5038,1.342,1.2704,1.2572,0.0,0.0,0.0,0.0,1.2167,1.2085,0.0,0.0,0.0,0.0,0.0,0.0,0.0,0.0,0.0,0.0,0.0,0.0,2.328,2.3707,2.3828,2.3318,2.3219,2.3169,2.3169,2.3098,2.295,2.2723,2.2709,2.2722,2.2738,2.2738,2.2856,2.3106,2.3106,2.3106,2.3106,2.3106,2.3106,2.3106,2.3479,2.3347,2.2863,2.3109,2.3457,2.3725,0.0,0.0,0.0,0.0,0.0,0.0,0.0,0.0,0.0,0.0,0.0,0.0,0.0,0.0,0.0,0.0,0.0,0.0,0.0,0.0,0.0,0.0,0.0,0.0,0.0,0.0,0.0,0.0,0.0,0.0,0.0,0.0,0.0,0.0,0.0,0.0,0.0,2.3622,2.3431,2.3197,2.2579,2.2198,0.0,0.0,0.0,0.0,0.0,0.0,2.1235,2.1235,2.1172,2.1109,2.1109,2.1109,2.1109,2.1109,2.1109,2.1109,2.1109,2.1109,2.1109,2.1109,2.0526,1.9489,1.8006,1.7401,1.7145,1.4056,1.2959,1.3213,1.2845,1.2617,1.2499,1.2499,1.2418,1.2308,0.0,0.0,0.0,0.0,0.0,0.0,0.0,0.0,0.0,0.0,0.0,2.3586,2.3978,2.4042,2.4034,2.4043,2.3736,2.3554,2.3554,2.3269,2.3087,2.3072,2.3072,2.3065,2.3043,2.3043,2.3113,2.3106,2.3106,2.3106,2.3106,2.3106,2.3106,2.3168,2.4456,2.501,2.4949,2.4972,2.5639,2.6796,0.0,0.0,0.0,0.0,0.0,0.0,0.0,0.0,0.0,0.0,0.0,0.0,0.0,0.0,0.0,0.0,0.0,0.0,0.0,0.0,0.0,0.0,0.0,0.0,0.0,0.0,0.0,0.0,0.0,0.0,0.0,0.0,0.0,0.0,0.0,0.0,0.0,0.0,0.0,2.3561,2.2954,0.0,0.0,0.0,0.0,2.2048,2.2048,2.1922,2.1607,2.1544,2.1425,2.1109,2.1109,2.1109,2.1109,2.1109,2.1109,2.1109,2.1109,2.1109,2.1109,2.1109,2.1046,2.0899,1.9223,1.8536,1.8223,1.4231,1.3337,1.4331,1.2898,1.2328,1.232,1.232,1.2312,1.2308,0.0,0.0,0.0,0.0,0.0,1.7268,1.8245,2.0128,2.191,2.2962,2.3346,2.3459,2.3429,2.3616,2.3679,2.3486,2.3347,2.3281,2.3281,2.3171,2.3106,2.3106,2.3106,2.3106,2.3106,2.3106,2.3106,2.3106,2.3969,2.4394,2.4394,2.4394,2.4818,2.5615,2.5248,2.6034,2.7478,2.665,2.6589,2.7013,2.7013,2.709,0.0,0.0,0.0,0.0,0.0,0.0,0.0,0.0,0.0,0.0,0.0,0.0,0.0,0.0,0.0,0.0,0.0,0.0,0.0,0.0,0.0,0.0,0.0,0.0,0.0,0.0,0.0,0.0,0.0,0.0,0.0,0.0,0.0,0.0,0.0,0.0,0.0,2.461,2.3421,0.0,2.2606,2.2299,2.2111,2.2111,2.2111,2.1922,2.1607,2.1607,2.1418,2.1109,2.1109,2.1109,2.1109,2.1109,2.1109,2.1109,2.1109,2.1109,2.1109,2.1109,2.1109,2.1039,1.9517,1.9347,1.996,1.6454,1.5205,1.545,1.4066,1.3465,1.3239,1.2436,1.206,1.1967,0.0,0.0,0.0,1.39,1.5097,1.6639,1.8175,1.9702,2.1247,2.2881,2.3349,2.3429,2.3313,2.3468,2.3464,2.3135,2.3106,2.3106,2.3106,2.3106,2.3106,2.3106,2.3106,2.3293,2.3783,2.3783,2.3969,2.4394,2.5309,2.5501,2.5071,2.5071,2.5562,2.6346,2.592,2.6944,2.8861,2.8462,2.8343,2.8343,2.8343,2.8343,2.8343,0.0,0.0,0.0,0.0,0.0,0.0,0.0,0.0,0.0,0.0,0.0,0.0,0.0,0.0,0.0,0.0,0.0,0.0,0.0,0.0,0.0,0.0,0.0,0.0,0.0,0.0,0.0,0.0,0.0,0.0,0.0,0.0,0.0,0.0,0.0,2.5139,2.4487,2.341,2.2793,2.2793,2.2543,2.2425,2.2425,2.2425,2.2292,2.1985,2.1922,2.1796,2.1418,2.1362,2.1299,2.1299,2.1172,2.1109,2.1109,2.1109,2.1109,2.1109,2.1109,2.1109,2.1039,2.0036,2.0124,2.0797,1.855,1.7518,1.7125,1.4895,1.393,1.3756,1.2908,1.253,1.2367,0.0,1.39,1.39,1.39,1.5097,1.6569,1.8105,1.9628,2.1302,2.3135,2.3459,2.353,2.3547,2.3581,2.3457,2.3135,2.3106,2.3106,2.3106,2.3106,2.3106,2.3106,2.3106,2.372,2.5071,2.5071,2.5676,2.6952,2.6952,2.6346,2.5071,2.5133,2.5133,2.5194,2.6407,2.7727,2.8979,3.0333,3.0889,3.0947,3.0889,3.0889,3.0889,0.0,0.0,0.0,0.0,0.0,0.0,0.0,0.0,0.0,0.0,0.0,0.0,0.0,0.0,0.0,0.0,0.0,0.0,0.0,0.0,0.0,0.0,0.0,0.0,0.0,0.0,0.0,0.0,0.0,0.0,0.0,0.0,0.0,2.6002,2.5402,2.4702,2.3355,2.3168,2.3168,2.3106,2.3106,2.3106,2.3106,2.3106,2.2918,2.2606,2.2606,2.2425,2.2111,2.1796,2.1607,2.1607,2.1299,2.1109,2.1109,2.1109,2.1109,2.1109,2.1109,2.1109,2.1096,2.0815,2.0688,2.0668,2.0368,2.002,1.9371,1.5368,1.3789,1.3784,1.3784,1.3784,1.361,1.39,1.39,1.39,1.39,1.4252,1.5026,1.6498,1.8093,1.971,2.1342,2.2549,2.3214,2.3252,2.3245,2.3208,2.312,2.3106,2.3106,2.3106,2.3106,2.3106,2.3106,2.3106,2.372,2.5071,2.5071,2.5256,2.5615,2.6529,2.6346,2.5133,2.5325,2.5806,2.6468,2.6363,2.7435,2.9325,2.9943,3.0733,3.1508,3.1064,3.0889,3.0889,0.0,0.0,0.0,0.0,0.0,0.0,0.0,0.0,0.0,0.0,0.0,0.0,0.0,0.0,0.0,0.0,0.0,0.0,0.0,0.0,0.0,0.0,0.0,0.0,0.0,0.0,0.0,0.0,0.0,0.0,0.0,3.0707,2.9896,2.8177,2.79,2.7357,2.607,2.5117,2.4154,2.3168,2.3106,2.3106,2.3106,2.3106,2.2918,2.2606,2.2606,2.2425,2.2111,2.1985,2.1859,2.1607,2.1488,2.1355,2.1109,2.1109,2.1109,2.1109,2.1109,2.1109,2.1109,2.1029,2.0989,2.0969,2.0675,1.9996,1.8932,1.7371,1.6067,1.5095,1.5095,1.5095,1.4917,1.39,1.39,1.39,1.39,1.39,1.4395,1.5872,1.7491,1.9099,2.0774,2.2231,2.3164,2.3296,2.3186,2.3106,2.3106,2.3106,2.3106,2.3106,2.3106,2.3106,2.3106,2.3106,2.3969,2.5859,2.592,2.6164,2.6693,2.7426,2.6944,2.5317,2.5509,2.5998,2.6606,2.625,2.7142,2.8852,2.958,3.0001,3.0246,3.0976,3.1286,3.1286,3.1112,3.1054,3.1054,3.1054,3.1005,3.0889,3.0889,0.0,0.0,0.0,0.0,0.0,0.0,0.0,0.0,0.0,0.0,0.0,0.0,0.0,0.0,0.0,0.0,0.0,0.0,0.0,0.0,0.0,0.0,0.0,0.0,3.1055,3.0703,3.0071,2.9337,2.8435,2.7177,2.5982,2.4976,2.4174,2.3743,2.3515,2.3515,2.3515,2.3452,2.3261,2.3197,2.3134,2.2943,2.2687,2.2434,2.2237,2.1922,2.167,2.1299,2.1299,2.1235,2.1109,2.1235,2.1299,0.0,2.1299,2.1299,2.1285,2.0991,2.0401,0.0,0.0,0.0,0.0,0.0,1.6397,1.622,1.39,1.39,1.39,1.39,1.39,1.4324,1.566,1.7217,1.8883,2.0718,2.207,2.3034,2.3559,2.3303,2.3106,2.3106,2.3106,2.3106,2.3106,2.3106,2.3106,2.3106,2.3106,2.427,2.671,2.6771,2.7366,2.8495,2.8504,2.7426,2.5386,2.5448,2.5639,2.5892,2.5953,2.6667,2.7915,2.9107,2.8989,2.8334,3.0713,3.1604,3.1546,3.1383,3.1392,3.1325,3.1325,3.116,3.0947,3.0889,0.0,0.0,0.0,0.0,0.0,0.0,0.0,0.0,0.0,0.0,0.0,0.0,0.0,0.0,0.0,0.0,0.0,0.0,0.0,0.0,0.0,0.0,0.0,0.0,3.0928,3.1094,3.1465,3.0244,2.8819,2.7505,2.6562,2.5949,2.5824,2.4924,2.4338,2.4338,2.4209,2.4086,2.4086,0.0,0.0,0.0,0.0,2.3185,2.3085,2.249,2.202,2.167,2.167,2.1481,2.1235,2.1544,2.167,2.167,2.167,2.1607,2.1607,2.1299,2.0998,2.0491,1.867,1.8008,1.8013,1.7657,1.763,0.0,1.39,1.39,1.39,1.39,1.39,1.3971,1.4252,1.551,1.7136,1.9141,2.0415,2.1753,2.3432,2.3303,2.3106,2.3106,2.3106,2.3106,2.3106,2.3106,2.3106,2.3106,2.3106,2.3845,2.5439,2.5501,2.5615,2.5851,2.6103,2.5501,2.3976,2.4541,2.4664,2.4541,2.5042,2.5876,2.6823,2.7366,2.8026,2.8861,3.0168,3.0529,3.0353,3.1315,3.1672,3.1672,3.1383,3.1276,3.1218,3.0947,3.0889,3.0889,3.0889,0.0,0.0,0.0,0.0,0.0,0.0,0.0,0.0,0.0,0.0,0.0,0.0,0.0,0.0,0.0,0.0,0.0,0.0,0.0,0.0,3.0898,3.1172,3.1426,3.1504,3.1558,3.1098,2.9769,2.9393,2.888,2.7835,2.6574,2.5792,2.5792,2.4712,2.4086,2.4086,2.4086,2.4086,2.4086,2.3955,2.3673,2.3092,2.2957,2.261,2.1985,0.0,0.0,2.1922,2.1985,2.1985,2.1985,2.1985,2.1859,2.1607,2.1544,2.1186,2.0553,1.8924,1.8629,1.9018,1.811,1.8338,1.8829,1.39,1.39,1.39,1.39,1.39,1.39,1.39,1.512,1.6621,1.831,1.9799,2.1283,2.2905,2.3083,2.3106,2.3106,2.3106,2.3106,2.3106,2.3106,2.3106,2.3106,2.3106,2.372,2.5071,2.5071,2.5071,2.5071,2.5448,2.5018,2.386,2.4355,2.461,2.461,2.4919,2.5341,2.5876,2.6658,2.7013,2.7134,2.892,2.9571,2.958,3.1363,3.2076,3.2018,3.1845,3.1672,3.1498,3.1218,3.1112,3.1054,3.0947,3.0889,3.0928,0.0,0.0,0.0,0.0,0.0,0.0,0.0,0.0,0.0,0.0,0.0,0.0,0.0,0.0,3.1201,3.1201,0.0,3.1201,3.1201,3.1562,3.1914,3.2129,3.2344,3.2209,3.1294,3.0748,3.0174,2.9547,2.7738,2.6628,2.6628,2.5406,2.4569,2.4569,2.4569,2.4569,2.4569,2.4415,2.4108,2.3587,2.342,2.2984,2.2362,2.2362,2.2237,2.2111,2.2299,2.2362,2.2362,2.2362,2.2237,2.2111,2.1922,2.1562,2.1122,2.0348,1.9945,1.9794,1.9269,1.9332,1.9526,1.39,1.39,1.39,1.39,1.39,1.39,1.39,1.4929,1.62,1.7553,1.8973,2.0457,2.2166,2.2482,2.2724,2.3043,2.3106,2.3106,2.3106,2.3106,2.3106,2.3106,2.3106,2.3596,2.4702,2.4702,2.4702,2.4702,2.5079,2.478,2.3984,2.4417,2.4734,2.4988,2.505,2.5111,2.5165,2.6181,2.6067,2.5288,2.7607,2.8683,2.9157,3.1237,3.219,3.2363,3.2305,3.2133,3.1845,3.1441,3.1325,3.1276,3.1005,3.0889,3.0889,3.0889,3.0889,0.0,0.0,0.0,0.0,0.0,0.0,0.0,0.0,3.165,3.1396,3.1396,3.1182,3.0976,3.0996,3.1348,3.1602,3.1631,3.2012,3.2412,3.2744,3.2861,3.2793,3.2451,3.1745,3.1225,3.1225,2.9189,2.78,2.7543,2.6234,2.5382,2.5119,2.5127,2.5127,2.5127,2.487,2.4474,2.4086,2.3823,2.3366,2.2668,2.2668,2.255,2.2299,2.2543,2.2668,2.2668,2.2613,2.2606,2.2543,2.223,2.1964,2.1767,2.1697,2.1219,2.0545,2.041,2.0155,1.9931,1.39,1.39,1.39,1.39,1.39,1.39,1.39,1.3895,1.4588,1.6612,1.6516,1.7587,2.109,2.1113,2.1503,2.2981,2.3106,2.3106,2.3106,2.3106,2.3106,2.3106,2.3106,2.3168,2.3293,2.3293,2.3293,2.3293,2.3666,2.3798,2.3673,2.4293,2.461,2.4672,2.498,2.5111,2.5111,2.5226,2.5226,2.5226,2.6658,2.7907,2.9039,3.047,3.1662,3.2612,3.2373,3.2305,3.2133,3.1498,3.1325,3.1276,3.1005,3.0889,3.0889,3.0889,3.0889,3.0898,3.0947,3.0957,3.0976,3.1025,3.1035,3.1035,0.0,3.0996,3.0957,3.0957,3.1141,3.1279,3.1436,3.1722,3.1999,3.2092,3.2451,3.2744,3.2793,3.3115,3.334,3.3281,3.3194,3.3087,3.3087,3.1743,3.0281,2.9051,2.7676,2.6368,2.5187,2.5127,2.5127,2.5127,2.509,2.4708,2.4086,2.4049,2.372,2.3043,2.3043,2.3043,2.2981,2.305,2.3043,2.305,2.2738,2.2606,2.2543,2.223,2.209,2.1999,2.1783,2.1646,2.1487,2.088,2.0493,2.0213,1.39,1.39,1.39,1.39,1.39,1.39,1.39,1.3839,1.4343,1.591,1.6014,1.6793,1.8944,2.0015,2.1245,2.2981,2.3106,2.3106,2.3106,2.3106,2.3106,2.3106,2.3106,2.3106,2.3106,2.3106,2.3106,2.3106,2.3425,2.3611,2.3611,2.4108,2.4301,2.4293,2.4672,2.4795,2.4795,2.4795,2.4919,2.5103,2.5264,2.6286,2.7847,2.8197,2.9679,3.1662,3.2315,3.2545,0.0,0.0,3.1903,3.1855,3.1508,3.1392,3.1392,3.116,3.1112,3.1112,3.0947,3.0889,3.0889,3.0889,3.0889,3.0889,3.0889,3.0889,3.0947,3.1112,3.1299,3.1535,3.2008,3.2285,3.2568,0.0,3.3005,3.3164,3.3164,3.331,3.3418,3.3418,3.3418,3.3418,3.3418,3.211,3.1056,3.0475,2.8386,2.6886,2.6301,2.5517,2.5127,2.5127,2.5127,2.4811,2.4093,2.4086,2.3757,2.3106,2.3106,2.3106,2.3106,2.3106,2.3106,2.3106,2.2918,2.2918,2.2863,2.2731,2.2675,2.2611,2.2175,2.1989,2.191,2.1264,2.0788,2.0551,1.39,1.39,1.39,1.39,1.39,1.39,1.39,1.39,1.4206,1.5117,1.5394,1.5883,1.7047,1.9235,2.1149,2.2285,2.2856,2.3106,2.3106,2.3106,2.3106,2.3106,2.3106,2.3106,2.3106,2.3106,2.3106,2.3106,2.3355,2.3487,2.3479,2.3798,2.3984,2.3984,2.4301,2.4487,2.4487,2.4487,2.461,2.4795,2.4293,2.5133,2.6702,2.6451,2.7818,3.0054,3.1612,3.2373,0.0,0.0,3.219,3.2248,3.1787,3.173,3.173,3.1498,3.1383,3.1218,3.0947,3.0889,3.0889,3.0889,3.0889,3.0889,3.0995,3.1005,3.1083,3.1425,3.1702,3.2058,3.2605,3.2983,3.3265,3.3446,3.3536,3.3491,3.3418,3.3418,3.3418,3.3418,3.3418,3.3418,3.3418,3.2502,3.1707,3.1313,2.9426,2.7932,2.7145,2.6167,2.545,2.5119,2.5127,2.4811,2.4093,2.4086,2.3757,2.3106,2.3106,2.3106,2.3106,2.3106,2.3106,2.3106,2.3106,2.3106,2.3106,2.3106,2.3106,2.3047,2.2425,2.2184,2.2103,2.1452,2.1024,2.0838,1.39,1.39,1.39,1.39,1.39,1.39,1.39,1.39,1.39,1.3963,1.3816,1.4186,1.5595,1.8746,2.0786,2.0696,2.2146,2.3106,2.3106,2.3106,2.3106,2.3106,2.3106,2.3106,2.3106,2.3106,2.3106,2.3106,2.3113,2.3106,2.3106,2.3487,2.3611,2.3611,2.3984,2.4108,2.4108,2.4108,2.4108,2.4108,2.4108,2.4887,2.6017,2.6017,2.6619,2.7809,3.0064,0.0,0.0,0.0,3.2018,3.219,3.1498,3.1556,3.1787,3.1787,3.1556,3.1218,3.0947,3.0889,3.0889,3.0889,3.0889,3.0947,3.1218,3.1267,3.1395,3.188,3.2441,3.294,3.3212,3.382,3.4156,3.3895,3.3849,3.3796,3.3418,3.3418,3.3418,3.3418,3.3418,3.3418,0.0,3.3355,3.2765,3.1378,3.1249,3.0012,2.7278,2.7086,2.6427,2.5119,2.5127,2.4811,2.4093,2.4086,2.3757,2.3106,2.3106,2.3106,2.3106,2.3106,2.3106,2.3106,2.3106,2.3106,2.3106,2.3106,2.3106,2.3047,2.2425,2.2184,2.2103,2.1452,2.1211,2.1211,1.39,1.39,1.39,1.39,1.39,1.39,1.39,1.39,1.39,1.39,1.375,0.0,0.0,0.0,0.0,0.0,1.9429,2.022,2.1378,2.1441,2.195,2.3043,2.3106,2.3106,2.3106,2.3106,2.3106,2.3106,2.3106,2.3106,2.3106,2.323,2.3293,2.33,2.3611,2.3798,2.3798,2.3798,2.3922,2.4046,2.3611,2.3969,2.4702,2.4517,2.5282,2.6559,0.0,0.0,0.0,0.0,3.1845,3.196,3.196,3.2018,3.2133,3.2133,3.173,3.1267,3.1218,3.1054,3.0947,3.1102,3.116,3.1276,3.1556,3.1614,3.1802,3.2468,3.285,3.3305,3.4156,3.4319,3.4438,3.4518,3.436,3.411,3.3796,3.3989,3.4103,3.3912,3.3848,0.0,0.0,0.0,0.0,3.2702,3.1845,3.0863,2.9947,2.8122,2.6886,2.6427,2.5584,2.4811,2.4093,2.4086,2.3757,2.3106,2.3106,2.3106,2.3106,2.3106,2.3106,2.3106,2.3106,2.3106,2.3106,2.3106,2.3106,2.3047,2.2425,2.2184,2.2103,2.1452,2.1211,2.1211,0.0,1.4091,1.4071,1.401,1.3997,0.0,0.0,0.0,0.0,0.0,0.0,0.0,0.0,0.0,0.0,0.0,0.0,1.8565,1.9664,1.9705,2.0227,2.1378,2.1957,2.2271,2.2411,2.2856,2.3106,2.3106,2.3106,2.3106,2.3106,2.2598,2.2411,2.2348,2.209,2.1957,2.1957,2.1957,2.2083,2.2264,2.2341,2.2661,2.3036,2.3293,2.4009,0.0,0.0,0.0,0.0,0.0,3.1421,3.2018,3.2076,3.2248,3.243,3.2315,3.2018,3.1614,3.1498,3.1334,3.1276,3.145,3.1498,3.1556,3.1903,3.196,3.219,3.2965,3.3321,3.3708,3.4697,3.479,3.4848,3.5136,3.4979,3.4664,3.4213,3.4536,3.4635,3.4156,3.4072,3.4072,0.0,0.0,0.0,3.3418,3.2565,3.1845,3.1313,2.9557,2.8386,2.7874,2.6494,2.5521,2.4849,2.4338,2.3757,2.3106,2.3106,2.3106,2.3106,2.3106,2.3106,2.3106,2.3106,2.3106,2.3106,2.3106,2.304,2.2886,2.2381,2.2111,2.1942,2.1408,2.1211,2.1211,0.0,0.0,1.4379,0.0,0.0,0.0,0.0,0.0,0.0,0.0,0.0,0.0,0.0,0.0,0.0,0.0,0.0,0.0,1.8102,1.7942,1.8063,1.8442,1.9782,2.0676,2.1076,2.2278,2.2918,2.2981,2.2918,2.2918,2.2856,2.1587,2.1012,2.0949,1.961,1.8972,1.8972,1.8972,1.8972,1.91,2.05,2.1076,2.1265,2.2598,0.0,0.0,0.0,0.0,2.5092,2.8291,3.0694,3.219,3.1903,3.2201,3.2669,3.2373,3.2305,3.2248,3.1903,3.1787,3.1787,3.1845,3.1845,3.1903,3.2248,3.2305,3.2561,3.346,3.3883,3.4281,3.482,3.517,3.5438,3.5556,3.5565,3.5374,3.4738,3.4998,3.4987,0.0,0.0,0.0,0.0,0.0,0.0,3.3418,0.0,3.2829,3.1506,3.1313,3.0669,2.9378,2.785,2.6795,2.6184,2.4747,2.372,2.3106,2.3106,2.3106,2.3106,2.3106,2.3106,2.3106,2.3106,2.3106,2.3106,2.3106,2.2915,2.2593,2.2301,2.1986,2.1657,2.1328,2.1211,2.1211,0.0,0.0,0.0,0.0,0.0,0.0,0.0,0.0,0.0,0.0,0.0,0.0,0.0,0.0,0.0,0.0,0.0,0.0,1.6277,1.6283,1.682,1.8052,1.8495,1.9324,0.0,0.0,0.0,2.1587,2.0563,2.0055,2.0055,1.9674,1.9546,1.9546,1.9164,1.8972,1.8972,1.8972,1.8972,1.91,0.0,2.1076,2.1265,0.0,0.0,0.0,0.0,2.4217,2.5371,2.8101,3.0295,3.196,3.2133,3.243,3.268,3.2612,3.243,3.2305,3.219,3.196,3.1845,3.2133,3.219,3.2258,3.2555,3.2612,3.287,3.3757,3.4072,3.4352,3.5129,3.5356,3.5397,3.5459,3.5469,0.0,3.4907,3.4976,0.0,3.4532,3.4265,3.4072,3.4072,3.3682,0.0,0.0,3.3418,3.3219,3.2892,3.1845,3.112,3.0798,2.8193,2.6622,2.6176,2.4287,2.3274,2.3106,2.3106,2.3106,2.3106,2.3106,2.3106,2.3106,2.3106,2.3106,2.3106,2.3106,2.2915,2.2593,2.2301,2.1986,2.1657,2.1328,2.1211,2.1211,0.0,0.0,0.0,0.0,0.0,0.0,0.0,0.0,0.0,0.0,0.0,0.0,0.0,0.0,0.0,0.0,0.0,0.0,0.0,1.4652,1.5025,1.6015,1.6558,1.7404,0.0,0.0,0.0,0.0,0.0,0.0,1.857,1.7935,1.7613,1.7613,1.7039,1.678,1.678,1.678,0.0,0.0,0.0,0.0,0.0,0.0,0.0,0.0,2.3106,2.3969,2.5309,2.6866,2.9266,3.1614,3.196,3.2201,3.2315,3.2487,3.243,3.2315,3.243,3.2315,3.2258,3.243,3.2487,3.2487,3.2669,3.2669,3.2985,3.3886,3.4132,3.4341,3.5252,3.5418,3.549,3.5687,3.5728,3.5593,3.528,3.5425,3.5382,3.467,3.4458,3.4265,3.4137,3.3682,3.3418,0.0,3.3418,3.3418,3.3418,3.2629,3.2237,3.2237,2.978,2.766,2.5882,2.4039,2.3106,2.3106,2.3106,2.3106,2.3106,2.3106,2.3106,2.3106,0.0,2.3106,2.3098,2.2952,2.271,2.2396,2.2089,2.1774,2.1459,2.1276,2.1211,2.1211,0.0,0.0,0.0,0.0,0.0,0.0,0.0,0.0,0.0,0.0,1.3953,1.3928,1.3904,1.39,0.0,0.0,0.0,0.0,0.0,0.0,1.3292,1.3537,1.4531,1.5328,1.5854,1.6845,0.0,0.0,0.0,0.0,0.0,0.0,0.0,0.0,0.0,0.0,0.0,0.0,0.0,0.0,0.0,0.0,0.0,0.0,0.0,0.0,2.3106,2.3969,2.5125,2.5346,2.794,3.1082,3.1431,3.1672,3.1845,3.2133,3.2248,3.2363,3.2555,3.2669,3.2669,3.2669,3.2669,3.2669,3.2669,3.2669,3.2965,3.3803,3.408,3.4331,3.518,3.5376,3.5552,3.5956,3.6018,3.5892,3.564,3.5924,3.5696,3.4674,3.4561,3.4369,3.4048,3.3643,3.3418,3.3418,3.3418,3.3418,3.3418,3.3418,3.3243,3.2991,3.1421,2.8886,2.5462,2.405,2.3293,2.3106,2.3106,2.3106,2.3106,2.3106,2.3106,2.3106,0.0,0.0,2.3084,2.2754,2.2447,2.2154,2.1825,2.1496,2.1211,2.1211,2.1211,2.1211,0.0,0.0,0.0,0.0,0.0,0.0,0.0,0.0,0.0,0.0,1.4217,1.4071,0.0,0.0,0.0,0.0,0.0,0.0,0.0,0.0,0.0,1.3468,1.3482,1.417,1.5693,1.4744,1.4847,1.6258,1.5163,0.0,0.0,0.0,0.0,0.0,0.0,0.0,0.0,0.0,0.0,0.0,0.0,0.0,0.0,0.0,0.0,0.0,2.3106,2.3969,2.5133,2.5125,2.7228,2.9806,3.0119,3.0956,3.1787,3.1845,3.2076,3.2305,3.2373,3.2545,3.2669,3.2669,3.2669,3.2669,3.2669,3.2669,3.2882,3.3389,3.3803,3.4287,3.4776,3.518,3.5449,3.5531,3.5542,3.548,3.5418,3.5303,3.4938,3.4481,3.4157,3.3915,3.3535,3.3467,0.0,0.0,0.0,3.3418,3.3418,3.3418,3.2575,3.0795,3.0131,2.8281,2.522,2.4919,2.4216,2.3106,2.3106,2.3106,2.3106,2.3106,2.3106,2.3106,2.3106,0.0,2.3084,2.2754,2.2447,2.2154,2.1825,2.1496,2.1211,2.1211,2.1211,2.1211,0.0,0.0,0.0,0.0,0.0,0.0,0.0,1.4842,1.4777,1.4598,1.4505,1.4351,1.4075,1.4046,1.4006,0.0,0.0,0.0,0.0,0.0,0.0,0.0,0.0,0.0,0.0,1.3662,1.3631,1.4408,0.0,1.3358,1.3358,1.3358,1.3358,1.3358,0.0,0.0,0.0,0.0,0.0,0.0,0.0,0.0,0.0,0.0,0.0,0.0,0.0,2.3534,2.4031,2.4031,2.5415,2.7409,2.892,3.0304,3.1334,3.1508,3.1672,3.1845,3.2201,3.2373,3.2555,3.2669,3.2669,3.2669,3.2669,3.2669,3.2851,3.3285,3.3555,3.3927,3.4691,3.4931,3.5148,3.5387,3.5418,3.5418,3.5418,3.5232,3.5046,3.4673,3.4548,3.4235,3.3733,3.367,3.3607,3.3418,0.0,3.3418,3.3418,3.3213,3.2545,3.1285,3.0172,2.8781,2.7116,2.6407,2.5431,2.4154,2.4154,2.3783,2.3106,2.3106,2.3106,2.3106,2.3106,0.0,2.2835,2.252,2.2213,2.1898,2.1569,2.135,2.1211,2.1211,2.1211,2.1211,0.0,0.0,0.0,0.0,0.0,0.0,1.4964,1.4964,1.4915,1.4781,1.4765,1.4643,1.4326,1.4225,1.4119,0.0,0.0,0.0,0.0,0.0,0.0,0.0,0.0,0.0,0.0,0.0,0.0,1.3153,1.2978,0.0,0.0,0.0,0.0,0.0,1.3095,1.3095,1.277,0.0,0.0,0.0,0.0,0.0,0.0,0.0,0.0,0.0,0.0,2.3106,2.3106,2.3106,2.3969,2.5431,2.7478,2.9176,3.0577,3.1044,3.1267,3.1383,3.196,3.219,3.2363,3.2555,3.2669,3.2669,3.2669,3.2669,3.283,3.3172,3.3317,3.3655,3.4391,3.4681,3.4869,3.5221,3.5355,3.5418,3.5418,3.5418,3.5294,3.4922,3.4922,0.0,3.3985,3.3922,0.0,3.3418,0.0,0.0,3.3291,3.2891,3.2471,3.2041,3.0613,2.9559,2.892,2.7907,2.6771,2.5501,2.5256,2.4517,2.3542,2.323,2.3106,2.3106,2.3106,0.0,0.0,2.2301,2.1993,2.1664,2.1335,2.1211,2.1211,2.1211,2.1211,2.1211,0.0,0.0,0.0,0.0,0.0,0.0,1.4964,1.4964,1.496,1.4944,1.4944,1.4871,1.468,1.4371,1.4172,0.0,0.0,0.0,0.0,0.0,0.0,0.0,0.0,0.0,0.0,0.0,0.0,1.3344,1.3161,0.0,0.0,0.0,0.0,0.0,0.0,1.4006,1.277,1.277,0.0,0.0,0.0,0.0,0.0,0.0,0.0,0.0,0.0,2.3106,2.3106,2.3106,2.3969,2.5133,2.537,2.7116,2.9353,3.0577,3.1112,3.1325,3.1383,3.1845,3.2315,3.2305,3.2487,3.2669,3.2669,3.2669,3.269,3.2789,3.3099,3.3399,3.3492,3.4256,3.4826,3.4878,3.5159,3.5418,3.5418,3.5418,3.5294,3.4922,0.0,0.0,3.3985,3.3922,3.3733,3.3418,0.0,0.0,3.2871,3.2451,3.2021,3.1592,3.1044,3.0186,2.892,2.8801,2.8086,2.6831,2.5684,2.501,2.4887,2.3658,2.3106,2.3106,2.3106,0.0,0.0,2.2301,2.1993,2.1664,2.1335,2.1211,2.1211,2.1211,2.1211,2.1211,0.0,0.0,0.0,0.0,0.0,0.0,1.4964,1.4964,1.4964,1.4964,1.4964,1.494,1.4871,1.4643,1.4412,1.4196,1.4111,0.0,0.0,0.0,0.0,0.0,0.0,0.0,0.0,0.0,1.4898,1.4898,1.5638,0.0,0.0,0.0,0.0,0.0,0.0,1.4132,1.277,0.0,0.0,0.0,0.0,0.0,0.0,0.0,0.0,0.0,0.0,0.0,2.3106,2.3106,2.3479,2.4031,2.4826,2.5798,2.7004,2.9116,3.0323,3.1102,3.1276,3.1498,3.1787,3.219,3.2373,3.243,3.243,3.2555,3.2669,3.2487,3.2746,3.3068,3.3327,3.3738,3.4113,3.4733,3.491,0.0,3.5387,3.5418,3.5356,3.5232,3.517,3.5046,0.0,0.0,3.4298,3.3733,0.0,0.0,3.2441,3.2256,3.1963,3.1533,3.1103,3.0645,3.0089,3.0089,2.9422,2.8146,2.7658,2.6572,2.5071,2.4517,2.3845,2.3098,2.2901,0.0,0.0,2.2023,2.1693,2.1393,2.1262,2.1211,2.1211,2.1211,2.1211,2.1211,0.0,0.0,0.0,0.0,0.0,1.4964,1.4964,1.4964,1.4964,1.4964,1.4964,1.4964,1.4964,1.4854,1.4663,1.4359,1.4241,0.0,0.0,0.0,0.0,0.0,0.0,0.0,0.0,0.0,1.5928,1.5928,1.6882,1.7109,0.0,0.0,1.6067,1.4681,0.0,0.0,0.0,0.0,0.0,0.0,0.0,0.0,0.0,0.0,0.0,0.0,0.0,0.0,0.0,0.0,0.0,2.323,2.4216,2.4764,2.5615,2.8137,2.9599,3.045,3.1044,3.1334,3.1556,3.2018,3.2315,3.243,3.243,3.2555,3.2669,3.243,3.2555,3.282,3.313,3.3296,3.3596,3.4308,0.0,3.493,3.518,3.5335,3.5418,3.5418,0.0,3.5294,0.0,3.4797,3.4497,0.0,0.0,0.0,3.2002,3.1973,3.1777,3.1348,3.1045,3.0889,3.0889,3.0889,3.046,2.9481,2.9098,2.7958,2.6216,2.5431,2.4701,2.404,0.0,0.0,0.0,2.1965,2.1503,2.1211,2.1211,2.1211,2.1211,2.1211,2.1211,2.1211,0.0,0.0,0.0,0.0,0.0,1.4964,1.4964,1.4964,1.4964,1.4964,1.4964,1.4964,1.4964,1.4964,1.4895,1.472,1.4383,0.0,0.0,0.0,0.0,0.0,0.0,0.0,1.6084,1.6079,1.6079,1.6079,1.6007,1.5149,1.3636,1.4877,1.4607,1.3159,0.0,0.0,0.0,0.0,0.0,0.0,0.0,0.0,0.0,0.0,0.0,0.0,0.0,0.0,0.0,0.0,0.0,0.0,0.0,2.4031,2.5615,2.8137,2.892,2.9226,3.0518,3.1344,3.1787,3.1787,3.2258,3.2669,3.2669,3.2669,3.2669,3.2669,3.2669,3.2669,3.2737,3.3089,3.3379,3.3389,3.4165,0.0,3.4826,3.5148,3.5418,0.0,0.0,3.5294,3.4922,3.461,3.4117,0.0,0.0,0.0,3.1572,3.1523,3.1328,3.0908,3.0889,3.0889,3.0889,3.0889,3.0889,3.083,2.953,2.8861,2.8801,2.6277,2.5533,0.0,0.0,0.0,0.0,2.2212,2.1503,2.1211,2.1211,2.1211,2.1211,2.1211,2.1211,2.1211,0.0,0.0,0.0,0.0,0.0,0.0,1.4964,1.4964,1.4964,1.4964,1.4964,1.4964,1.4964,1.4964,1.4944,1.4887,1.4672,0.0,0.0,0.0,0.0,0.0,0.0,1.4114,1.4604,1.5589,1.6639,1.7684,1.8663,1.9387,1.9933,2.0083,1.9437,1.8063,1.8133,1.7347,0.0,0.0,0.0,0.0,0.0,0.0,0.0,0.0,0.0,0.0,0.0,0.0,0.0,0.0,0.0,0.0,0.0,0.0,0.0,2.6823,2.8206,2.9166,3.0518,3.1064,3.1286,3.1682,3.196,3.2143,3.2373,3.2555,3.2669,3.243,3.2555,3.2669,3.2669,3.284,3.3037,3.3327,3.3627,0.0,0.0,0.0,0.0,3.4973,3.5231,3.5242,0.0,0.0,0.0,0.0,0.0,0.0,3.189,3.1358,3.1025,3.0898,3.0889,3.0889,3.0889,3.0889,3.0889,3.0889,3.046,2.9785,2.8861,2.8077,0.0,0.0,0.0,0.0,0.0,2.1957,2.1306,2.1211,2.1211,2.1211,2.1211,2.1211,2.1211,2.1211,0.0,0.0,0.0,0.0,0.0,0.0,1.4964,1.4964,1.4964,1.4964,1.4964,1.4964,1.4964,1.4964,1.4964,1.4964,1.4866,0.0,0.0,0.0,0.0,0.0,1.39,1.4185,1.4746,1.566,1.6851,1.8379,1.9292,2.0277,2.1176,2.1003,2.039,1.9533,1.9145,1.836,0.0,0.0,0.0,0.0,0.0,0.0,1.917,0.0,0.0,0.0,0.0,0.0,0.0,0.0,0.0,0.0,0.0,0.0,0.0,0.0,2.7547,2.8564,3.0401,3.0937,3.117,3.1672,3.1903,3.2076,3.2373,3.2555,3.2669,3.2498,3.2555,3.2669,3.2669,3.2669,3.282,3.3089,3.3265,3.3472,0.0,0.0,0.0,3.4557,0.0,0.0,0.0,3.4376,0.0,0.0,0.0,0.0,3.1751,3.1201,3.0889,3.0889,3.0889,3.0889,3.0889,3.0889,3.0889,3.0889,3.0889,3.046,2.9648,2.895,0.0,0.0,0.0,0.0,0.0,2.1956,2.1211,2.1211,2.1211,2.1211,2.1211,2.1211,2.1211,2.1196,0.0,0.0,0.0,0.0,0.0,0.0,0.0,1.4964,1.4964,1.4964,1.4964,1.4964,1.4964,1.4964,1.4964,1.4964,1.4964,0.0,0.0,0.0,0.0,1.3928,1.3908,1.4537,1.5943,1.6084,1.6851,1.8379,1.8525,1.8589,1.8734,1.8734,1.8613,1.8411,1.8389,1.8114,0.0,0.0,0.0,0.0,1.8524,1.9036,0.0,0.0,0.0,0.0,0.0,0.0,0.0,0.0,0.0,0.0,0.0,0.0,0.0,0.0,0.0,0.0,0.0,3.1112,3.1325,3.1672,3.2018,3.2373,3.2612,3.268,0.0,3.2669,3.2669,3.2669,3.2669,3.2669,3.2669,3.2669,3.3068,3.3327,0.0,3.3731,0.0,0.0,3.4132,0.0,3.402,0.0,0.0,0.0,0.0,0.0,3.1402,3.1112,3.0947,3.0947,3.0947,3.0889,3.0889,3.0889,3.0889,3.0889,3.0889,3.0869,3.083,2.9158,0.0,0.0,0.0,0.0,0.0,2.2369,2.1375,2.1211,2.1261,2.1268,2.1211,2.1211,2.1211,2.1159,0.0,0.0,0.0,0.0,0.0,0.0,0.0,0.0,0.0,0.0,1.4964,1.4964,1.4964,1.4964,1.4964,0.0,0.0,0.0,0.0,0.0,0.0,1.4119,1.3977,1.4043,1.4395,1.5523,1.6851,1.8379,1.9507,2.0692,2.1809,2.1809,2.1846,2.1776,2.149,2.047,0.0,0.0,0.0,0.0,1.8844,1.9623,0.0,0.0,0.0,0.0,2.1985,2.2292,0.0,0.0,0.0,0.0,0.0,0.0,0.0,0.0,2.7013,2.7555,3.0157,0.0,3.1054,3.1334,3.1672,3.2018,0.0,3.2545,3.2669,3.2669,3.2669,3.2669,3.2669,3.2669,3.2669,3.2669,3.282,3.2882,3.2882,3.3265,0.0,3.408,3.4132,3.3986,3.3575,0.0,0.0,0.0,0.0,3.2245,3.2086,3.173,3.145,3.1218,3.1218,3.1112,3.0889,3.0889,3.0889,3.0889,3.0889,3.0703,3.0351,2.9958,0.0,0.0,0.0,0.0,2.4671,2.4125,2.2805,2.1261,2.2207,2.1979,2.1211,2.1211,2.1211,2.1159,0.0,0.0,0.0,0.0,0.0,0.0,0.0,0.0,0.0,0.0,1.4964,1.4964,1.4964,1.4964,1.4964,0.0,0.0,0.0,0.0,1.4659,1.4444,1.4188,1.4083,1.4344,1.4888,1.566,1.7203,1.9431,2.0207,2.1396,2.2928,2.2928,2.2928,2.2914,2.2552,2.1759,2.066,2.0322,2.0125,1.9941,1.9941,0.0,0.0,0.0,0.0,0.0,2.1922,2.2237,0.0,2.2926,2.3106,2.3106,0.0,0.0,0.0,0.0,2.7013,2.7555,3.0167,3.0889,3.1005,3.145,3.1672,3.1903,3.2373,3.2612,3.2669,3.2669,3.2669,3.2669,3.2669,3.2669,3.2669,3.2669,3.2669,0.0,0.0,0.0,3.3172,3.343,3.3461,3.3358,0.0,0.0,0.0,0.0,0.0,3.2305,3.2305,3.196,3.173,3.1556,3.1383,3.116,3.0889,3.0889,3.0889,3.0889,3.0889,3.0644,3.0185,3.0,2.9551,0.0,0.0,0.0,2.5452,2.4948,2.3958,2.2805,2.2974,2.2595,2.1987,2.1375,2.1115,2.094,0.0,0.0,0.0,0.0,0.0,0.0,0.0,0.0,0.0,0.0,0.0,0.0,0.0,0.0,0.0,0.0,0.0,0.0,0.0,1.483,1.4603,1.4274,1.4209,1.4805,1.6089,1.6362,1.783,2.0629,2.0837,2.1603,2.2928,2.2928,2.2928,2.2914,2.2552,2.2258,2.1964,2.1742,2.1383,2.1109,2.1109,0.0,0.0,0.0,0.0,0.0,0.0,0.0,0.0,2.2856,2.3106,2.3106,2.3106,0.0,0.0,0.0,0.0,0.0,3.0216,3.0947,3.1054,3.1624,3.1787,3.2018,3.2498,3.2669,3.2669,3.2669,3.2669,3.2669,3.2669,3.2669,3.2669,3.2669,3.2669,0.0,3.2669,3.2669,3.2669,3.2669,3.2669,0.0,0.0,0.0,0.0,0.0,0.0,3.2373,3.2373,3.2076,3.1903,3.1903,3.1614,3.1334,3.1064,3.0947,3.0889,3.0889,3.082,3.0547,3.0088,2.9668,2.9238,0.0,0.0,0.0,2.6409,2.5617,2.5058,2.4616,2.3631,2.3143,2.2862,2.1764,2.1068,2.0669,0.0,0.0,0.0,0.0,0.0,0.0,0.0,0.0,0.0,0.0,0.0,0.0,0.0,0.0,0.0,0.0,0.0,0.0,0.0,1.494,1.4838,1.4635,1.4339,1.4805,1.6089,1.7409,1.8879,2.0629,2.1885,2.2654,2.2928,2.2928,2.2928,2.2914,2.2552,2.2258,2.1964,2.1742,2.1383,2.1109,2.1109,0.0,0.0,0.0,0.0,0.0,0.0,0.0,0.0,2.2856,2.3106,2.3106,2.3106,0.0,0.0,0.0,0.0,0.0,3.049,3.1218,3.1276,3.1325,3.1787,3.2248,3.2373,3.2555,3.2669,3.2669,3.2669,3.2669,3.2669,3.2669,3.2669,3.2669,3.2669,3.2669,0.0,0.0,3.2669,3.2669,0.0,0.0,0.0,0.0,0.0,0.0,0.0,3.2612,3.2612,3.2612,3.244,3.2248,3.219,3.196,3.1682,3.117,3.0889,3.0889,3.0488,3.0078,2.9704,2.9219,2.8789,0.0,0.0,2.7466,2.6581,2.7403,2.6563,2.4671,2.4505,2.3855,2.2942,2.2371,2.1524,2.064,0.0,0.0,0.0,0.0,0.0,0.0,0.0,0.0,0.0,0.0,0.0,0.0,0.0,0.0,0.0,0.0,0.0,0.0,1.4964,1.4964,1.4887,1.4716,1.5263,1.6176,1.746,1.8098,1.9501,2.1816,2.2585,2.2928,2.2928,2.2928,2.2928,2.2914,2.2552,2.2258,2.1964,2.1742,2.1383,2.1109,0.0,0.0,0.0,0.0,0.0,0.0,0.0,0.0,0.0,0.0,2.2988,2.2842,2.2842,0.0,0.0,0.0,0.0,0.0,3.0548,3.1441,3.1614,3.1787,3.2076,3.2373,3.2487,3.2612,3.2669,3.2669,3.2669,3.2669,3.2669,3.2669,3.2669,3.2669,0.0,3.2669,3.2669,3.2669,3.2669,0.0,0.0,0.0,0.0,0.0,0.0,0.0,0.0,0.0,3.2669,3.2669,3.2612,3.2487,3.2373,3.2248,3.2076,3.1624,3.1168,3.0768,3.0551,3.0032,2.9209,2.9014,2.8691,2.8291,0.0,2.796,2.752,2.8067,2.7618,2.6563,2.5954,2.4956,2.3669,2.1829,2.1146,2.0925,0.0,0.0,0.0,0.0,0.0,0.0,0.0,0.0,0.0,0.0,0.0,0.0,0.0,0.0,0.0,0.0,0.0,0.0,1.4964,1.4964,1.5132,1.5299,1.6179,1.7325,1.8685,1.886,2.0201,2.2928,2.2928,2.2928,2.2928,2.2928,2.2928,2.2914,2.2552,2.2258,2.1964,2.1742,2.1383,2.1109,0.0,0.0,0.0,0.0,0.0,0.0,0.0,0.0,0.0,0.0,0.0,0.0,0.0,0.0,0.0,2.5727,2.6773,2.7735,3.0606,3.1672,3.196,3.2315,3.2373,3.243,3.2669,3.2669,3.2669,3.2669,3.2669,3.2669,3.2669,3.2669,3.2669,3.2669,3.2669,3.2669,3.2669,3.2669,3.2669,0.0,0.0,0.0,0.0,0.0,0.0,0.0,0.0,0.0,3.2669,3.2669,3.2669,3.2669,3.2487,3.2373,3.2373,3.2031,3.1466,3.069,3.0581,2.9958,2.8916,2.8818,2.8594,2.8291,2.8291,2.8291,2.8291,2.8291,2.8291,2.8184,2.6961,2.5792,2.4493,2.1821,2.1327,2.1813,0.0,0.0,0.0,0.0,0.0,0.0,0.0,0.0,0.0,0.0,0.0,0.0,0.0,0.0,0.0,0.0,0.0,0.0,1.4964,1.4964,1.5646,1.7155,1.6842,1.7325,1.8685,1.9848,2.1258,2.2928,2.2928,2.2928,2.2928,2.2928,2.2928,2.2914,2.2552,2.2258,2.1964,2.1742,2.1383,2.1109,2.1109,0.0,0.0,0.0,0.0,0.0,0.0,0.0,0.0,0.0,0.0,0.0,0.0,0.0,2.3095,2.5727,2.6952,2.8077,3.1005,3.2018,3.2315,3.2612,3.2669,3.2669,3.2669,3.2669,3.2669,3.2669,3.2669,3.2669,3.2669,3.2669,3.2669,3.2669,3.2669,3.2669,3.2669,0.0,0.0,0.0,0.0,0.0,0.0,0.0,0.0,0.0,0.0,0.0,3.2669,0.0,0.0,3.2669,3.2669,3.2669,3.2669,3.2246,3.1569,3.068,3.0274,2.9662,2.8906,2.8516,2.832,2.8291,2.8291,2.8291,2.8291,2.8291,2.8291,2.8184,2.6961,2.5943,2.4952,2.3393,2.326,2.3628,0.0,0.0,0.0,0.0,0.0,0.0,0.0,0.0,0.0,0.0,0.0,0.0,0.0,0.0,0.0,0.0,0.0,1.4964,1.4964,1.5956,1.6793,1.7402,1.8769,1.9787,2.0344,2.0496,2.1327,2.2928,2.2928,2.2928,2.2928,2.2928,2.2928,2.2908,2.2365,2.2084,2.1951,2.1476,2.1216,2.1109,2.1109,2.1109,0.0,0.0,0.0,0.0,0.0,0.0,0.0,0.0,2.2769,2.2352,2.2352,2.2352,2.2879,2.5453,2.6821,2.8137,3.1005,3.2018,3.2373,3.2612,3.2669,3.2669,3.2669,3.2669,3.2669,3.2669,3.2669,3.2669,3.2669,3.2669,3.2669,3.2669,3.2669,3.2669,3.2669,3.2669,0.0,0.0,0.0,0.0,0.0,0.0,0.0,0.0,0.0,0.0,0.0,0.0,0.0,3.2669,3.2669,3.2669,3.2669,3.2215,3.1609,3.0823,3.0159,2.95,2.8741,2.8476,2.8291,2.8291,2.8291,2.8291,2.8291,2.8291,2.8291,2.8155,2.6691,2.6191,2.6054,2.3815,2.3013,2.2994,0.0,0.0,0.0,0.0,0.0,0.0,0.0,0.0,0.0,0.0,0.0,0.0,0.0,0.0,0.0,0.0,1.4964,1.4964,1.4964,1.6033,1.7098,1.8082,1.9722,2.1066,2.2085,2.1614,2.1816,2.2928,2.2928,2.2928,2.2928,2.2928,2.2812,2.2699,2.2205,2.1937,2.1817,2.1323,2.1109,2.1109,2.1109,2.1109,0.0,0.0,0.0,0.0,0.0,0.0,0.0,0.0,2.2635,2.2184,2.2184,2.2184,2.2647,2.4777,2.6455,2.8128,3.0529,3.1777,3.2487,3.2669,3.2669,3.2669,3.2669,3.2669,3.2669,3.2669,3.2669,3.2669,3.2669,3.2669,0.0,0.0,3.2669,3.2669,3.2669,0.0,0.0,0.0,0.0,0.0,0.0,0.0,0.0,0.0,0.0,0.0,0.0,0.0,0.0,0.0,3.2669,3.2607,3.2452,3.2054,3.1478,3.085,3.0066,2.938,2.8684,2.8611,2.8504,2.8408,2.8408,2.8408,2.8408,2.8344,2.8213,2.7994,2.6769,2.6456,2.6555,2.4573,2.3684,2.3452,0.0,0.0,0.0,0.0,0.0,0.0,0.0,0.0,1.9288,1.7631,1.7402,0.0,0.0,0.0,0.0,0.0,1.4964,1.4964,1.4964,1.5041,1.6483,1.9661,1.9269,2.0471,2.3696,2.3243,2.2928,2.2928,2.2928,2.2928,2.2928,2.2928,2.2706,2.2405,2.2118,2.1824,2.1601,2.1236,2.1109,2.1109,2.1109,2.1109,2.1109,0.0,0.0,0.0,0.0,0.0,0.0,0.0,2.2451,2.2184,2.2184,2.2184,2.2475,2.3736,2.5906,2.8221,2.9512,3.1247,3.2669,3.2669,3.2669,3.2669,3.2669,3.2669,3.2669,3.2669,3.2669,3.2669,3.2669,3.2669,0.0,3.2669,3.2669,3.2669,0.0,0.0,0.0,0.0,0.0,0.0,0.0,0.0,0.0,0.0,0.0,0.0,0.0,0.0,0.0,0.0,3.2727,3.2452,3.1988,3.1598,3.1143,3.0677,2.9937,2.93,2.8737,2.8983,2.8983,2.8684,2.8684,2.8684,2.8684,2.8398,2.8047,2.7679,2.7187,2.6758,2.6338,2.5849,2.5684,2.5528,0.0,0.0,0.0,0.0,0.0,0.0,0.0,0.0,2.0945,1.9288,1.9062,0.0,0.0,0.0,0.0,0.0,0.0,1.4964,1.4964,1.6033,1.7626,1.9741,2.0309,2.1576,2.3768,2.3243,2.2928,2.2928,2.2928,2.2928,2.2928,2.2928,2.2706,2.2405,2.2118,2.1824,2.1601,2.1236,2.1109,2.1109,2.1109,2.1109,2.1109,0.0,0.0,0.0,0.0,0.0,0.0,0.0,0.0,0.0,2.225,2.2184,2.2475,2.3736,2.573,2.7871,2.9496,3.1247,3.2669,3.2669,3.2669,3.2669,3.2669,3.2669,3.2669,3.2669,3.2669,3.2669,3.2669,3.2669,0.0,3.2669,3.2669,0.0,0.0,0.0,0.0,0.0,0.0,0.0,0.0,0.0,0.0,0.0,0.0,0.0,0.0,0.0,0.0,0.0,3.2359,3.2122,3.1988,3.1278,3.0822,3.0677,3.0159,2.9669,2.9353,2.9185,2.9079,2.8983,2.8781,2.8684,2.8684,2.8398,2.8047,2.7679,2.7187,2.6758,2.6338,2.5849,2.5226,2.4658,0.0,0.0,0.0,0.0,0.0,0.0,0.0,0.0,2.2601,2.0939,2.0714,2.0113,0.0,0.0,0.0,0.0,1.6334,1.6258,1.6864,1.7245,1.838,2.0639,2.1126,2.1985,2.3414,2.3122,2.2996,2.3133,2.2996,2.2928,2.2928,2.2928,2.2639,2.2238,2.2064,2.1764,2.1363,2.1189,2.1109,2.1109,2.1109,2.1109,2.1109,0.0,0.0,0.0,0.0,0.0,0.0,0.0,0.0,0.0,2.2271,2.2184,2.2356,2.31,2.5243,2.766,2.8792,3.0878,3.2669,3.2669,3.2669,3.2669,3.2669,3.2669,3.2669,3.2669,3.2669,3.2669,3.2669,3.2669,0.0,3.2669,0.0,0.0,0.0,0.0,0.0,0.0,0.0,0.0,0.0,0.0,0.0,0.0,0.0,0.0,0.0,0.0,0.0,0.0,3.2225,3.1895,3.1774,3.105,3.0594,3.0408,3.0129,2.9942,2.9774,2.9564,2.9396,2.929,2.9142,2.8993,2.8814,2.8423,2.7993,2.7508,2.6984,2.6504,2.6103,2.5781,2.5274,2.4815,0.0,0.0,2.4636,2.4636,0.0,0.0,0.0,0.0,2.4105,2.2601,2.2446,2.1843,0.0,0.0,0.0,0.0,1.8456,1.8234,1.9661,1.8456,1.8986,2.2073,2.1789,2.1972,2.2941,2.2928,2.3133,2.3475,2.3133,2.2934,2.2996,2.2934,2.2613,2.205,2.1984,2.1657,2.1109,2.1109,2.1109,2.1109,2.1109,2.1109,2.1109,2.1109,0.0,0.0,0.0,0.0,0.0,0.0,0.0,0.0,2.2286,2.2184,2.2176,2.2147,2.462,2.7422,2.7754,3.0227,3.2669,3.2669,3.2669,3.2669,3.2669,3.2669,3.2669,3.2669,3.2669,3.2669,3.2669,3.2669,3.2669,3.2669,0.0,0.0,0.0,0.0,0.0,0.0,0.0,0.0,0.0,0.0,0.0,0.0,0.0,0.0,0.0,0.0,0.0,3.2607,3.2163,3.1764,3.1319,3.0853,3.0408,0.0,2.9994,2.9994,2.9994,2.9994,2.9827,2.9606,2.9606,2.9396,2.9039,2.8388,2.7847,2.7359,2.6743,2.6163,2.5791,2.5732,2.5732,2.5732,0.0,0.0,2.4636,2.4636,0.0,0.0,0.0,0.0,0.0,2.4112,0.0,0.0,0.0,0.0,0.0,0.0,0.0,1.944,1.9817,1.951,2.0193,2.2142,2.2898,2.3263,2.3283,2.327,2.3475,2.3891,2.3475,2.3475,2.3754,2.3406,2.295,2.2379,2.2116,2.1657,2.1109,2.1109,2.1109,2.1109,2.1109,2.1109,2.1109,2.1109,2.1109,0.0,0.0,0.0,0.0,0.0,0.0,0.0,2.2359,2.2184,2.2132,2.1876,2.4306,2.7138,2.7413,3.0065,3.2669,3.2669,3.2669,3.2669,3.2669,3.2669,3.2669,3.2669,3.2669,3.2669,3.2669,3.2669,3.2669,0.0,0.0,0.0,0.0,0.0,0.0,0.0,0.0,0.0,0.0,0.0,0.0,0.0,0.0,0.0,0.0,0.0,0.0,3.2142,3.1754,3.1298,3.0833,3.0377,3.0098,0.0,2.9994,2.9994,2.9994,2.9994,2.9827,2.9606,2.9606,2.9396,2.9049,2.8607,2.8114,2.7663,2.7122,2.6693,2.6304,2.611,2.6004,2.5955,0.0,0.0,0.0,0.0,0.0,0.0,0.0,0.0,0.0,0.0,0.0,0.0,0.0,0.0,0.0,0.0,2.1395,2.1245,2.2073,2.1395,2.1588,2.2898,2.3491,2.3691,2.342,2.3406,2.3679,2.4231,2.402,2.3959,2.4027,2.3823,2.3287,2.2504,2.2313,2.1787,2.1109,2.1109,2.1109,2.1109,2.1109,2.1109,2.1109,2.1109,2.1109,2.1109,2.1299,0.0,0.0,0.0,0.0,0.0,0.0,0.0,2.2118,2.1796,2.356,2.5823,2.6831,2.9164,3.1553,3.2493,3.2669,3.2669,3.2669,3.2669,3.2669,3.2669,3.2669,3.2669,3.2669,3.2669,3.2669,0.0,0.0,0.0,0.0,0.0,0.0,0.0,0.0,0.0,0.0,0.0,0.0,0.0,0.0,0.0,0.0,3.2669,3.2463,3.1998,3.1609,3.1153,3.0688,3.0222,2.9994,2.9994,2.9994,2.9994,2.9994,2.9994,2.9942,2.9774,2.9774,2.9669,2.946,2.8685,2.8218,2.7884,2.7139,2.6697,2.6496,2.6352,2.6294,2.6245,0.0,0.0,0.0,0.0,0.0,0.0,0.0,0.0,0.0,0.0,0.0,0.0,0.0,0.0,0.0,0.0,0.0,0.0,2.4488,2.3351,2.2957,2.3794,2.3774,2.3691,2.342,2.3475,2.3816,2.4503,2.457,2.4435,2.4163,2.4039,2.3507,2.27,2.2587,2.2056,2.1299,2.1235,2.1172,2.1172,2.1109,2.1109,2.1109,2.1109,2.1109,2.1109,2.1109,2.1299,2.167,2.1985,0.0,0.0,0.0,0.0,2.2103,2.1723,2.2759,2.4441,2.5947,2.798,3.0127,3.1988,3.2499,3.2499,3.2499,3.2561,3.2556,3.2556,3.2618,3.2669,3.2669,3.2669,0.0,0.0,0.0,0.0,0.0,0.0,0.0,0.0,0.0,0.0,0.0,0.0,0.0,0.0,0.0,0.0,3.2669,3.2597,3.2339,3.1884,3.1485,3.104,3.0574,3.018,2.9994,2.9994,2.9994,2.9994,2.9994,2.9994,2.9994,2.9994,2.9994,2.9953,2.9808,2.8696,2.8196,2.8052,2.7051,2.664,2.664,2.6592,2.6554,2.6544,0.0,0.0,0.0,0.0,0.0,0.0,0.0,0.0,0.0,0.0,2.4636,2.4636,0.0,0.0,2.4636,2.4636,2.4408,2.4334,2.4562,0.0,0.0,2.3794,2.3774,2.3691,2.342,2.3754,2.4095,2.4503,2.4849,2.4991,2.4916,2.429,2.3835,2.342,2.282,2.2376,2.1922,2.167,2.1544,2.1488,2.1235,2.1109,2.1109,2.1109,2.1109,2.1109,2.1109,2.1299,2.167,2.1985,2.2292,0.0,0.0,0.0,2.2059,2.1452,2.2639,2.4155,2.4375,2.6823,2.9675,3.1195,3.1557,3.1557,3.1557,3.1857,3.2081,0.0,3.2401,3.2669,3.2669,3.2669,0.0,0.0,0.0,0.0,0.0,0.0,0.0,0.0,0.0,0.0,0.0,0.0,0.0,0.0,0.0,0.0,3.2669,3.2287,3.193,3.1474,3.1019,3.0553,3.0087,3.0025,2.9994,2.9994,2.9994,2.9994,2.9994,2.9994,2.9994,2.9994,2.9994,2.9766,2.9352,2.8774,2.833,2.7906,2.741,2.7214,2.7167,2.6938,2.6853,2.6794,0.0,0.0,0.0,0.0,0.0,0.0,0.0,0.0,0.0,0.0,0.0,2.4636,2.4636,2.4636,2.4636,2.4636,2.4636,2.4636,2.4636,2.4482,2.4209,2.3788,2.3614,2.3593,2.3761,2.3891,2.4299,2.4849,2.4984,2.5127,2.5112,2.44,2.389,2.3551,2.31,2.2589,2.2111,2.1922,2.1859,2.1859,2.1544,2.1481,2.1607,2.1235,2.1235,2.1362,2.1172,2.1299,2.167,2.1985,2.2292,2.2568,2.226,0.0,0.0,0.0,2.1807,2.2731,2.3812,2.5905,2.8191,2.9751,3.0274,3.057,3.1261,3.1526,3.1671,3.1671,3.1826,3.2126,3.2633,0.0,0.0,0.0,0.0,0.0,0.0,0.0,0.0,0.0,0.0,0.0,0.0,0.0,0.0,0.0,0.0,3.2566,3.2297,3.2091,3.1723,3.1008,3.0791,3.046,3.0005,2.9994,2.9994,2.9994,2.9994,2.9994,2.9994,2.9994,2.9994,2.9994,2.9994,2.9735,2.927,2.8804,2.8338,2.7883,2.7486,2.7309,2.7309,2.7177,2.7129,2.7129,0.0,0.0,0.0,0.0,0.0,0.0,0.0,0.0,0.0,0.0,0.0,2.4636,2.4636,0.0,0.0,0.0,2.4636,2.4603,2.4529,2.4255,2.3961,2.3674,2.3447,2.3457,2.3823,2.3959,2.4306,2.4916,2.5059,2.5083,2.4987,2.4349,2.3905,2.3623,2.3235,2.2835,2.2362,2.223,2.2237,2.2174,2.1859,2.1859,2.2048,2.1544,2.1488,2.167,2.1418,2.1481,2.1796,2.2104,2.2418,2.2568,2.226,2.2184,0.0,0.0,0.0,2.1591,2.3439,2.4904,2.6383,2.7986,2.8793,2.9475,3.0391,3.0949,3.1205,0.0,3.1298,3.1588,3.2261,0.0,0.0,0.0,0.0,0.0,0.0,0.0,0.0,0.0,0.0,0.0,0.0,0.0,0.0,0.0,0.0,3.2349,3.2008,3.176,3.1391,3.0708,3.0574,3.0346,3.0005,2.9994,2.9994,2.9994,2.9994,2.9994,2.9994,2.9994,2.9994,2.9984,2.987,2.9559,2.9094,2.8628,2.8173,2.7728,2.7434,2.7309,2.7309,2.7309,2.7309,2.7309,0.0,0.0,0.0,0.0,0.0,0.0,0.0,0.0,0.0,0.0,0.0,2.4636,2.4636,2.4636,2.4636,2.4636,2.4636,2.4523,2.4242,2.3955,2.3661,2.3367,2.3333,0.0,2.3413,2.3823,2.4163,2.4503,2.4916,2.4965,2.465,2.4247,2.3918,2.361,2.3281,2.3058,2.305,2.2738,2.2543,2.2543,2.2237,2.2111,2.2111,2.2048,2.2048,2.2048,2.2048,2.2048,2.2111,2.2487,2.2613,2.2568,2.226,2.2184,2.2052,0.0,0.0,0.0,2.303,2.3712,2.4398,2.5817,2.7241,2.8291,2.8344,2.9621,3.0729,3.0729,3.1071,3.1391,3.1443,0.0,0.0,0.0,0.0,0.0,0.0,0.0,0.0,0.0,0.0,0.0,0.0,0.0,0.0,0.0,0.0,3.2008,3.1988,3.1226,3.0739,3.0688,3.0263,3.0015,2.9994,2.9994,2.9994,2.9994,2.9994,2.9994,2.9994,2.9994,2.9994,2.9973,2.9528,2.9073,2.8618,2.8152,2.7696,2.734,2.732,2.7309,2.7309,2.7309,2.7309,2.7309,0.0,0.0,0.0,0.0,0.0,0.0,0.0,0.0,0.0,0.0,0.0,0.0,0.0,2.4636,2.4636,2.4636,2.4469,2.4235,2.3941,2.3647,2.3574,2.3669,2.3473,2.3591,2.4088,2.4231,2.4503,2.4916,2.5052,2.4958,2.4562,2.424,2.391,2.3581,2.3252,2.3106,2.3106,2.2981,2.2918,2.2918,2.255,2.2543,2.2668,2.223,2.2237,2.2418,2.2174,2.223,2.2418,2.255,2.2731,2.2809,2.2381,2.2184,2.2052,2.1401,2.1211,2.1318,2.1866,2.2207,2.2829,2.43,2.5186,2.6164,2.7795,2.868,2.929,3.0074,3.0367,3.0491,0.0,0.0,0.0,0.0,0.0,0.0,0.0,0.0,0.0,0.0,0.0,0.0,0.0,0.0,0.0,0.0,0.0,0.0,3.1184,3.0864,3.0553,3.0253,3.0087,2.9994,2.9994,2.9994,2.9994,2.9994,2.9994,2.9994,2.9994,2.9994,2.9994,2.9953,2.9197,2.8763,2.8576,2.811,2.7665,2.7309,2.7309,2.7309,2.7309,2.7309,2.7309,2.7309,0.0,0.0,0.0,2.6173,0.0,2.58,2.58,2.5586,2.5373,2.5373,0.0,0.0,0.0,0.0,2.4589,2.4356,2.4082,2.3828,2.3634,2.341,2.3444,2.3707,2.3653,2.3884,2.4503,2.4395,2.4598,2.5127,2.484,2.462,2.4401,2.4071,2.3742,2.342,2.3208,2.3106,2.3106,2.3106,2.3106,2.3113,2.2863,2.2918,2.3043,2.2613,2.2543,2.2731,2.2543,2.2613,2.2793,2.2793,2.2846,2.2857,2.2345,2.2037,2.1774,2.1335,2.1211,2.1211,2.1211,2.1439,2.1945,2.2942,2.3712,2.4863,2.6969,2.7839,2.8552,2.9774,2.9994,2.9994,0.0,0.0,0.0,0.0,0.0,0.0,0.0,0.0,0.0,0.0,0.0,0.0,0.0,0.0,0.0,0.0,0.0,0.0,3.0708,3.0543,3.0315,3.0005,2.9994,2.9994,2.9994,2.9994,2.9994,2.9994,2.9994,2.9994,2.9994,2.9994,2.9911,2.9715,2.8949,2.8618,2.8566,2.7955,2.7521,2.7309,2.7309,2.7309,2.7309,2.7309,2.7309,2.7309,2.6392,2.6093,2.5873,2.5873,2.5873,2.5873,2.5873,2.58,2.5793,2.5793,0.0,0.0,0.0,0.0,0.0,2.3852,2.3494,2.3327,2.3313,2.3371,2.3406,2.3406,2.3816,2.4163,2.4503,2.4195,2.4396,2.5112,2.4408,2.4086,2.4064,2.3742,2.342,2.3106,2.3106,2.3106,2.3106,2.3106,2.3106,2.3106,2.3106,2.3106,2.3106,2.3106,2.3106,2.3106,2.3106,2.3106,2.3106,2.3106,2.2893,2.2571,2.2264,2.173,2.1211,2.1211,2.1211,2.1211,0.0,0.0,0.0,2.1725,2.2998,2.4531,2.57,2.7067,2.8445,2.9669,2.9942,2.9942,0.0,0.0,0.0,0.0,0.0,0.0,0.0,0.0,0.0,0.0,0.0,0.0,0.0,0.0,0.0,0.0,0.0,3.0667,3.0667,3.0243,2.9994,2.9994,2.9994,2.9994,2.9994,2.9994,2.9994,2.9994,2.9994,2.9994,2.9994,2.9994,2.9746,2.928,2.8814,2.8607,2.8524,2.7624,2.7309,2.7309,2.7309,2.7309,2.7309,2.7309,2.7309,2.7309,2.6845,2.6765,2.6692,2.6692,2.6692,2.6692,2.6692,2.6392,2.6246,0.0,0.0,0.0,2.5457,2.5041,2.4664,2.4295,2.4122,2.3977,2.3832,2.3803,2.3952,2.4156,2.4299,2.457,2.4916,2.4829,2.478,2.4767,2.4525,2.4188,2.3727,2.364,2.342,2.3106,2.3106,2.3106,2.3106,2.3106,2.3106,2.3106,2.3106,2.3106,2.3106,2.3106,2.3106,2.3106,2.3106,2.3106,2.3106,2.3106,2.2893,2.2528,2.2001,2.1547,2.1211,2.1211,2.1211,2.1211,2.1211,0.0,0.0,0.0,0.0,0.0,2.442,2.5075,2.6,2.8232,2.8721,2.8943,0.0,0.0,0.0,0.0,0.0,0.0,0.0,0.0,0.0,0.0,0.0,0.0,0.0,0.0,0.0,0.0,3.045,3.018,3.018,3.0067,2.9994,2.9994,2.9994,2.9994,2.9994,2.9994,2.9994,2.9994,2.9994,2.9994,2.9994,2.9994,2.9746,2.928,2.8814,2.8421,2.8069,2.75,2.7309,2.7309,2.7309,2.7309,2.7309,2.7309,2.7309,2.7309,2.6991,2.6991,2.6991,2.6991,2.6991,2.6991,2.6991,2.6649,2.6417,0.0,0.0,0.0,2.5179,2.5003,2.4693,2.4246,2.4225,2.4148,2.4041,2.4163,2.4299,2.4503,2.4638,2.4783,2.4854,2.4723,2.4554,2.4364,2.4093,2.3837,2.3596,2.3457,2.3288,2.3106,2.3106,2.3106,2.3168,2.372,2.3596,2.3168,2.3728,2.3907,2.3907,2.3907,2.3907,2.3845,2.3293,2.3106,2.3106,2.3106,2.2813,2.233,2.1693,2.1364,2.1211,2.1211,2.1211,2.1211,2.1211,2.1211,2.1268,2.1439,0.0,0.0,2.4206,2.4855,2.5726,0.0,2.888,2.9164,0.0,0.0,0.0,0.0,0.0,0.0,0.0,0.0,0.0,0.0,0.0,0.0,0.0,0.0,0.0,3.0398,3.0149,2.9994,2.9994,2.9994,2.9994,2.9994,2.9994,2.9994,2.9994,2.9994,2.9994,2.9994,2.9994,2.9994,2.9994,2.9994,2.9642,2.9001,2.8731,2.8245,2.7624,2.7413,2.7309,2.7309,2.7309,2.7309,2.7309,2.7309,2.7309,2.7309,0.0,2.6991,2.6991,2.6991,2.6961,2.6939,2.6939,2.6661,2.6449,0.0,2.6164,2.5702,2.5099,2.4994,2.4742,2.4191,2.4095,2.4081,2.4046,2.4385,2.4499,2.447,2.4807,2.4877,2.4518,2.4232,2.4064,2.4027,2.3449,2.3288,2.3537,2.3245,2.3106,2.3106,2.3106,2.3168,2.3417,2.4579,2.4517,2.3658,2.4826,2.5317,2.5317,2.5317,2.5317,2.5133,2.3969,2.341,2.3278,2.3087,2.2615,0.0,0.0,0.0,0.0,2.1211,2.1211,2.1211,2.1211,2.1211,2.1211,2.1211,2.1439,0.0,2.4309,2.5168,2.62,2.8509,2.9175,2.9333,0.0,0.0,0.0,0.0,0.0,0.0,0.0,0.0,0.0,0.0,0.0,0.0,2.9994,2.9994,2.9994,2.9994,2.9994,2.9994,2.9994,2.9994,2.9994,2.9994,2.9994,2.9994,2.9994,2.9994,2.9994,2.9994,2.9994,2.9994,2.9994,2.9942,2.9446,2.8618,2.8556,2.8048,2.7309,2.7309,2.7309,2.7309,2.7309,2.7309,2.7309,2.7309,2.7309,2.7309,2.6991,2.6991,2.6991,2.6991,2.6771,2.6596,2.6596,2.6318,2.6113,2.6113,2.5827,2.5437,2.5115,2.5079,2.5057,2.4924,2.4916,2.474,2.4479,2.4531,2.4473,2.4218,2.4269,2.424,2.4181,2.4115,2.3954,2.3691,2.3567,2.3398,2.3201,2.3135,2.3106,2.3106,2.3106,2.372,2.4702,2.501,2.5562,2.6286,2.6529,2.665,2.665,2.665,2.665,2.6589,2.6346,2.5554,2.4501,2.2892,2.2111,2.1723,0.0,0.0,0.0,2.1211,0.0,0.0,2.1211,2.1211,0.0,0.0,2.1268,0.0,2.2222,2.2433,2.299,2.4697,2.5012,2.5388,0.0,0.0,0.0,0.0,0.0,0.0,0.0,0.0,0.0,0.0,0.0,0.0,0.0,2.9994,2.9994,2.9994,2.9994,2.9994,2.9994,2.9994,2.9994,2.9994,2.9994,2.9994,2.9994,2.9994,2.9994,2.9994,2.9994,2.9994,2.9984,2.9611,2.9135,2.8597,2.8214,2.7748,2.7309,2.7309,2.7309,2.7309,2.7309,2.7309,2.7309,2.7309,2.7309,2.7309,2.6778,2.6749,2.6698,2.653,2.6369,2.6259,2.6259,2.5981,2.5776,2.5776,2.5491,2.5235,2.5141,2.498,2.4877,2.4877,2.4731,2.4503,2.4335,2.4327,2.4254,2.4093,2.4086,2.4005,2.3845,2.3837,2.3684,2.3354,2.3354,2.3274,2.3106,2.3106,2.3479,2.4092,2.4092,2.4826,2.6103,2.6762,2.7357,2.7966,2.7966,0.0,2.7966,2.7966,2.7966,2.7847,2.7254,2.6048,2.4645,2.3315,2.2347,0.0,2.1313,2.1211,2.1211,0.0,2.1211,2.1211,0.0,0.0,0.0,2.1211,0.0,0.0,0.0,2.2425,2.2918,2.4253,2.4625,2.4939,2.5636,0.0,0.0,0.0,0.0,0.0,0.0,0.0,0.0,0.0,0.0,0.0,0.0,2.9994,2.9994,2.9994,2.9994,2.9994,2.9994,2.9994,2.9994,2.9994,2.9994,2.9994,2.9994,2.9994,2.9994,2.9994,2.9994,2.9994,2.9973,2.9518,2.9052,2.8587,2.8121,2.7665,2.7309,2.7309,2.7309,2.7309,2.7309,2.7309,2.7309,2.7309,2.7309,2.7309,2.6528,2.6413,2.6396,2.6405,2.6372,2.6397,2.6668,2.6458,2.6102,2.5836,2.5409,2.5097,2.5039,2.473,2.4547,2.4481,2.4232,2.4057,2.3991,2.3991,2.3962,2.3896,2.3896,2.3771,2.3508,2.3501,2.3369,2.3106,2.3106,2.3106,2.3106,2.3106,2.3845,2.5071,2.5071,2.592,2.7435,2.8444,2.9039,2.9294,0.0,2.9294,2.9294,2.9294,2.9294,2.9098,2.7767,2.6312,2.4964,2.3863,2.2783,2.1838,2.1349,2.1375,0.0,0.0,0.0,0.0,0.0,0.0,0.0,0.0,0.0,2.1489,0.0,0.0,0.0,0.0,0.0,0.0,0.0,0.0,0.0,0.0,0.0,0.0,0.0,0.0,0.0,0.0,0.0,0.0,0.0,2.9994,2.9994,2.9994,2.9994,2.9994,2.9994,2.9994,2.9994,2.9994,2.9994,2.9994,2.9994,2.9994,2.9994,2.9994,2.9994,2.9953,2.9849,2.9384,2.8918,2.8452,2.7997,2.7593,2.7309,2.7309,2.7309,2.7309,2.7309,2.7309,2.7309,2.7309,2.7309,2.7309,2.6553,2.6076,2.6476,2.7663,2.7604,2.7869,2.9077,2.9034,2.8329,2.7075,2.5869,2.5017,2.4723,2.4591,2.4452,2.4166,2.4101,2.3962,2.3669,2.3654,2.3523,2.323,2.3215,2.3201,2.3164,2.3164,2.3142,2.3106,2.3106,2.3106,2.3106,2.3106,2.3845,2.5071,2.5071,2.6451,2.8683,2.8861,2.9599,0.0,3.0645,3.0645,0.0,3.0645,3.0645,3.047,2.8769,2.7625,2.6569,0.0,2.3186,2.2642,0.0,2.193,2.2595,2.1482,0.0,0.0,0.0,0.0,0.0,0.0,2.1211,0.0,0.0,0.0,2.1482,2.1653,0.0,0.0,0.0,0.0,0.0,0.0,0.0,0.0,0.0,0.0,0.0,0.0,0.0,0.0,0.0,0.0,2.9994,2.9994,2.9994,2.9994,2.9994,2.9994,2.9994,2.9994,2.9994,2.9994,2.9994,2.9994,2.9994,2.9994,2.9994,2.9777,2.9363,2.8897,2.8442,2.7976,2.7531,2.7351,2.7309,2.7309,2.7309,2.7309,2.7309,2.7309,2.7309,2.7309,2.7309,2.7309,2.8329,2.7497,2.7289,2.8498,2.7933,2.7769,2.9157,2.9293,2.8909,2.8095,2.7483,2.6708,2.5539,2.5259,2.477,2.3872,2.3625,2.3457,2.3325,2.331,2.3252,2.3113,2.3106,2.3106,2.3106,2.3106,2.3106,2.3106,2.3106,2.3106,2.3106,2.3907,2.4949,2.6225,2.7004,2.8325,3.0089,3.0089,3.0401,0.0,0.0,0.0,0.0,3.0889,3.0723,3.0333,2.9068,2.8042,2.6984,0.0,2.465,0.0,0.0,0.0,0.0,0.0,0.0,0.0,0.0,0.0,0.0,0.0,0.0,0.0,2.1375,0.0,2.1211,0.0,0.0,0.0,0.0,0.0,0.0,0.0,2.3463,0.0,0.0,0.0,0.0,0.0,0.0,0.0,0.0,0.0,0.0,0.0,0.0,2.9994,2.9994,2.9994,2.9994,2.9994,2.9994,2.9994,2.9994,2.9994,2.9994,2.9994,2.9994,2.9746,2.929,2.8825,2.8359,2.7903,2.7448,2.7309,2.7309,2.7309,2.7309,2.7309,2.7309,2.7309,2.7309,2.7309,2.7309,2.7309,3.0662,2.926,2.8385,2.9552,2.8912,2.8681,2.9963,2.9872,2.9473,2.9081,2.8702,2.7929,2.6565,2.6171,2.5665,2.4647,2.4292,2.4031,2.3658,2.3658,2.3479,2.3106,2.3106,2.3106,2.3106,2.3106,2.3106,2.3106,2.3106,2.3106,2.3113,2.4456,2.5806,2.7073,2.8325,2.9658,3.0889,3.0889,3.0889,3.0879,3.0752,3.0635,3.0547,3.0654,3.0342,2.9766,2.9141,2.8291,2.7371,2.6737,2.5908,0.0,2.4774,0.0,0.0,0.0,0.0,0.0,2.2482,0.0,0.0,0.0,0.0,0.0,0.0,0.0,0.0,0.0,0.0,0.0,0.0,0.0,0.0,0.0,0.0,2.3735,0.0,0.0,0.0,0.0,0.0,0.0,0.0,0.0,0.0,0.0,0.0,0.0,2.9994,2.9994,2.9994,2.9994,2.9994,2.9994,2.9994,2.9994,2.9994,2.9994,2.9994,2.9684,2.9104,2.8763,2.8297,2.7728,2.7444,2.7309,2.7309,2.7309,2.7309,2.7309,2.7309,2.7309,2.7309,2.7309,2.7309,2.7309,3.3311,3.1028,2.9583,3.0992,3.1185,3.1514,3.255,3.1518,3.0482,3.008,2.8887,2.7864,2.748,2.7429,2.7284,2.6943,2.69,2.6346,2.5133,2.501,2.4456,2.3168,2.3106,2.3106,2.3106,2.3106,2.3106,2.3106,2.3106,2.3106,2.3113,2.4456,2.5806,2.7073,2.8325,2.9658,3.0889,3.0889,3.0889,3.085,3.04,2.9971,2.9658,0.0,2.9697,2.8955,2.8926,0.0,0.0,2.6916,2.6472,0.0,0.0,0.0,0.0,0.0,0.0,0.0,0.0,0.0,0.0,2.3255,0.0,0.0,0.0,0.0,2.1211,0.0,0.0,0.0,0.0,0.0,0.0,0.0,0.0,0.0,0.0,0.0,0.0,0.0,0.0,0.0,0.0,0.0,0.0,0.0,0.0,0.0,2.9994,2.9994,2.9994,2.9994,2.9994,2.9994,2.9994,2.9994,2.9994,2.9994,2.9994,2.9518,2.8628,2.8618,2.8131,2.733,2.732,2.7309,2.7309,2.7309,2.7309,2.7309,2.7309,2.7309,2.7309,2.7309,2.7309,2.7309,3.3008,3.2008,3.1405,3.218,3.1507,3.1241,3.2257,3.1996,3.1526,3.1105,3.0615,2.9823,2.8559,2.8454,2.8048,2.7082,2.7013,2.684,2.6407,2.5562,2.5248,2.5676,2.4023,2.3542,2.4394,2.3542,2.3106,2.3106,2.3106,2.3542,2.4456,2.5737,2.7065,2.8325,2.9658,3.046,3.0889,0.0,0.0,0.0,0.0,2.9521,2.915,0.0,0.0,2.8887,2.8603,2.8418,0.0,2.7853,2.7682,2.7628,2.7232,2.7349,2.7457,2.6236,2.6191,0.0,0.0,0.0,2.5626,2.4403,0.0,0.0,0.0,0.0,0.0,0.0,0.0,0.0,0.0,0.0,0.0,0.0,0.0,0.0,0.0,0.0,0.0,0.0,0.0,0.0,0.0,0.0,0.0,0.0,0.0,0.0,0.0,2.9994,2.9994,2.9994,2.9994,2.9994,2.9994,2.9994,2.9994,2.9994,2.9684,2.9218,2.8597,2.8297,2.7831,2.7309,2.7309,2.7309,2.7309,2.7309,2.7309,2.7309,2.7309,2.7309,2.7309,2.7309,2.7309,2.7309,3.3018,3.2685,3.2432,3.2549,3.187,3.1408,3.1881,3.1934,3.1777,3.1348,3.1299,3.0877,2.9745,2.9599,2.9294,2.8471,2.8403,2.8164,2.7735,2.6883,0.0,2.6952,2.537,2.4879,0.0,0.0,0.0,2.3783,2.3783,2.427,2.5133,2.6883,2.8086,2.8979,3.0274,3.0889,3.0879,3.0713,3.0469,0.0,0.0,2.9082,0.0,0.0,2.8701,2.8662,0.0,2.8291,2.8291,2.8291,2.8291,2.8291,2.8291,2.8291,2.813,2.7359,2.7133,2.6961,2.6173,2.6563,0.0,2.5626,2.5908,0.0,2.5003,0.0,0.0,0.0,0.0,0.0,0.0,0.0,0.0,0.0,0.0,0.0,0.0,2.7178,0.0,0.0,0.0,0.0,0.0,0.0,0.0,2.9994,2.9994,0.0,0.0,0.0,2.9994,2.9994,2.9994,2.9994,2.9994,2.9994,2.9911,2.9746,2.9446,2.898,2.8359,2.8059,2.7686,2.7309,2.7309,2.7309,2.7309,2.7309,2.7309,2.7309,2.7309,2.7309,2.7309,2.7309,2.7309,2.7309,3.3389,3.3047,3.2698,3.2297,3.2209,3.1992,3.1582,3.1514,3.1377,3.0976,3.0898,3.0889,3.0889,3.0889,3.0889,3.0889,3.0889,3.0333,2.9107,2.892,0.0,0.0,2.7082,2.7013,2.7073,0.0,0.0,0.0,0.0,2.5256,2.5309,2.7778,2.892,2.9039,3.0333,0.0,3.083,3.0381,3.0176,3.0059,2.9219,2.8652,2.8291,2.8291,2.8291,2.8291,2.8291,2.8291,2.8291,2.8291,2.8291,2.8291,2.8291,2.8291,2.8291,2.8291,2.8291,2.8291,2.8291,2.8291,2.8014,2.6853,0.0,0.0,0.0,0.0,2.4893,0.0,0.0,0.0,0.0,0.0,0.0,0.0,0.0,0.0,0.0,0.0,0.0,0.0,0.0,0.0,0.0,0.0,2.9994,2.9994,2.9994,2.9994,0.0,0.0,2.9994,2.9994,2.9994,2.9994,2.9994,2.9994,2.9766,2.9301,2.928,2.8794,2.7924,2.7903,2.7655,2.7309,2.7309,2.7309,2.7309,2.7309,2.7309,2.7309,2.7309,2.7309,2.7309,2.7309,2.7309,2.7309,3.3332,3.3231,3.3024,3.2602,3.2085,3.165,3.1533,3.1514,3.1475,3.1367,3.1084,3.0889,3.0889,3.0889,3.0889,3.0889,3.0889,0.0,0.0,0.0,0.0,2.9863,2.8044,2.7435,2.8385,2.7185,2.6529,2.6529,0.0,2.7004,2.7958,2.8614,2.9412,3.0392,3.0772,3.0703,3.0361,3.0244,2.9834,2.9199,2.8672,2.8389,0.0,0.0,2.8291,2.8291,2.8291,2.8291,2.8291,2.8291,2.8291,2.8291,2.8291,2.8291,2.8291,2.8291,2.8291,2.8291,2.8291,2.8291,2.8237,2.7906,2.7853,2.7736,0.0,0.0,0.0,0.0,0.0,0.0,0.0,0.0,0.0,0.0,0.0,0.0,0.0,0.0,0.0,2.8291,0.0,0.0,0.0,2.9511,2.9774,2.9994,2.9994,2.9994,0.0,0.0,0.0,2.9994,2.9994,2.9994,2.9994,2.9994,2.9766,2.9301,2.8959,2.8483,2.7914,2.7583,2.7413,2.7309,2.7309,2.7309,2.7309,2.7309,2.7309,2.7309,2.7309,2.7309,2.7309,2.7309,2.7309,2.7309,3.3565,3.3525,3.3357,3.2985,3.2603,3.2193,3.1836,3.1807,0.0,3.1807,3.1435,0.0,3.1162,3.0996,3.0889,3.0889,3.0889,0.0,3.0889,0.0,0.0,3.0889,2.9499,2.9066,2.9776,2.8513,0.0,2.7847,0.0,2.8206,2.892,2.9471,3.0157,3.0889,0.0,3.0635,3.0176,2.9795,2.9258,2.8623,2.8389,0.0,0.0,2.8291,2.8344,2.8461,2.8344,2.8291,2.8291,2.8291,2.8291,2.8291,2.8291,2.8291,2.8291,2.8291,2.8291,2.8291,2.8291,2.8291,2.8291,2.8291,2.8291,2.8291,2.8291,2.8291,2.8291,0.0,0.0,0.0,0.0,0.0,0.0,0.0,0.0,0.0,0.0,0.0,0.0,0.0,2.8558,0.0,0.0,2.9511,2.9827,2.9994,2.9994,0.0,0.0,0.0,0.0,2.9994,2.9994,2.9994,2.9994,2.9798,2.9466,2.9001,2.8535,2.8069,2.7624,2.7423,2.7309,2.7309,2.7309,2.7309,2.7309,2.7309,2.7309,2.7309,2.7309,2.7309,2.7309,2.7309,2.7309,2.7309,3.411,3.4059,3.3861,3.3488,3.3425,0.0,0.0,3.2346,0.0,3.2307,0.0,3.1514,3.1514,3.1143,3.0889,3.0889,0.0,3.0889,3.0889,3.0889,3.0889,3.0889,3.0889,3.0889,3.0889,2.9776,2.9166,0.0,2.9166,2.9166,2.9166,3.0333,3.0889,3.0889,0.0,0.0,0.0,2.918,2.8633,2.8291,2.8291,2.8291,2.8344,2.8344,2.8514,2.8727,2.8504,2.8398,2.8354,2.8291,2.8291,2.8291,2.8291,2.8291,2.8291,2.8291,2.8291,2.8291,2.8291,2.8291,2.8291,2.8291,2.8291,2.8291,2.8291,2.8291,2.8291,2.8291,2.8291,2.8291,0.0,0.0,0.0,0.0,0.0,0.0,0.0,0.0,0.0,0.0,0.0,0.0,0.0,0.0,2.9889,2.9994,2.9994,0.0,0.0,0.0,0.0,2.9994,2.9994,0.0,2.9911,0.0,2.9042,2.8514,2.8061,2.7686,2.7309,2.7309,2.7309,2.7309,2.7309,2.7309,2.7309,2.7309,2.7309,2.7309,2.7309,2.7309,2.7309,2.7309,2.7309,2.7309,3.5046,3.5108,3.5026,3.4645,3.4386,3.4095,3.3651,3.3096,3.2685,3.2685,3.2002,3.1514,3.1514,3.1143,3.0889,3.0889,3.0889,0.0,0.0,0.0,0.0,3.0889,3.0889,3.0889,3.0889,3.0645,3.0518,3.0518,3.0518,3.0518,3.0518,3.0772,0.0,0.0,0.0,0.0,2.9111,2.8613,0.0,2.8291,2.8291,2.8451,2.8631,2.8631,2.8781,2.9026,2.8973,2.8824,2.8621,2.8344,2.8291,2.8291,2.8291,2.8291,2.8291,2.8291,2.8291,2.8291,2.8291,2.8291,2.8291,2.8291,2.8291,2.8291,2.8291,2.8291,2.8291,2.8291,2.8291,2.8291,2.8291,0.0,0.0,0.0,0.0,0.0,0.0,0.0,0.0,0.0,0.0,2.9026,0.0,0.0,0.0,0.0,0.0,0.0,0.0,0.0,0.0,0.0,0.0,0.0,0.0,0.0,2.8876,2.8038,2.7966,2.7686,2.7309,2.7309,2.7309,2.7309,2.7309,2.7309,2.7309,2.7309,2.7309,2.7309,2.7309,2.7309,2.7309,2.7309,2.7309,2.7309,3.5294,3.5418,3.5356,3.517,3.4859,0.0,0.0,3.3681,3.3303,3.3115,3.2383,3.1855,3.1855,3.1279,3.0889,3.0889,3.0889,3.0889,3.0889,3.0889,3.0889,3.0889,3.0889,3.0889,3.0889,3.0889,3.0889,3.0889,3.0889,3.0889,3.0889,0.0,0.0,3.0508,0.0,2.9307,0.0,0.0,0.0,2.8291,2.8451,2.8568,2.8737,2.8824,2.9089,2.9343,2.9185,2.9142,2.9089,2.8674,2.8514,2.8514,2.8514,2.8611,2.8708,2.8708,2.8708,2.8708,2.8708,2.8708,2.8708,2.8708,2.8611,2.8514,2.8514,2.8408,2.8291,2.8291,2.8291,2.8291,2.8291,2.8291,0.0,0.0,0.0,0.0,0.0,0.0,0.0,0.0,0.0,0.0,0.0,0.0,0.0,0.0,0.0,0.0,0.0,0.0,0.0,0.0,0.0,0.0,0.0,0.0,0.0,2.7924,2.7686,2.7469,2.7309,2.7309,2.7309,2.7309,2.7309,2.7309,2.7309,2.7309,2.7309,2.7309,2.7309,2.7309,2.7309,2.7309,2.7309,2.7309,3.5356,3.5418,3.5418,3.5418,3.5108,3.4797,3.4548,3.4235,3.3859,3.3418,3.2695,3.2229,3.2229,3.1406,3.0889,3.0889,3.0889,3.0889,3.0889,3.0889,3.0889,3.0889,3.0889,3.0889,3.0889,3.0889,3.0889,0.0,3.0889,3.084,0.0,0.0,0.0,0.0,0.0,0.0,0.0,0.0,2.8398,2.8504,2.8621,2.8791,2.8887,2.9142,2.9396,2.9669,2.9406,2.9396,2.9501,2.9046,2.8834,2.8781,2.8781,2.893,2.9079,2.9079,2.9079,2.9079,2.9079,2.9079,2.9079,2.9079,2.893,2.8781,2.8781,2.8611,2.8451,2.8451,2.8451,2.8451,2.8451,2.8451,0.0,0.0,0.0,0.0,0.0,0.0,0.0,0.0,0.0,0.0,2.9554,0.0,0.0,0.0,0.0,2.9994,2.9994,2.9994,0.0,0.0,0.0,2.9208,2.9011,0.0,2.7872,0.0,2.7427,2.7309,2.7309,2.7309,2.7309,2.7309,2.7309,2.7309,2.7309,2.7309,2.7309,2.7309,2.7309,2.7309,2.7309,2.7309,2.7309,2.7309,3.5418,3.5418,0.0,0.0,0.0,0.0,3.4859,3.4548,3.411,3.3481,3.2695,3.2229,3.2229,3.1406,3.0889,3.0889,3.0889,3.0889,3.0889,3.0889,3.0889,3.0889,3.0889,3.0889,3.0889,3.0889,3.0889,0.0,3.0889,3.0674,0.0,0.0,0.0,0.0,0.0,0.0,0.0,2.8694,2.8824,2.9026,2.8781,2.9046,2.9501,2.9554,2.9722,2.9942,2.9942,2.9774,2.9606,2.9554,2.929,2.9079,2.9079,2.9079,2.9079,2.9079,2.9079,2.9079,2.9079,2.9079,2.9079,2.9079,2.9079,2.9079,2.9079,2.9026,2.9026,2.9026,2.9026,2.9026,2.9026,2.9026,2.893,0.0,0.0,0.0,0.0,0.0,2.9448,2.9132,0.0,0.0,0.0,0.0,0.0,0.0,2.9994,2.9994,2.9994,2.9994,2.9808,2.9384,0.0,2.8897,2.8059,2.7917,0.0,2.7372,2.733,2.7309,2.7309,2.7309,2.7309,2.7309,2.7309,2.7309,2.7309,2.7309,2.7309,2.7309,2.7309,2.7309,2.7309,2.7309,2.7309,2.7309,0.0,0.0,0.0,0.0,0.0,0.0,0.0,3.4797,3.4548,3.4047,3.3117,3.2411,3.2229,3.1574,3.116,3.116,3.116,3.116,3.116,3.0995,3.0889,3.0889,3.0889,3.0889,3.0889,3.0889,3.0889,0.0,0.0,0.0,0.0,0.0,0.0,0.0,0.0,2.8949,2.893,2.893,2.8973,2.9132,2.9195,2.9396,2.9606,2.9774,2.9889,2.9994,2.9994,2.9942,2.9827,2.9827,2.9669,2.9396,2.9396,2.9501,2.9617,2.9617,2.9617,2.9617,2.9617,2.9617,2.9617,2.9617,2.9511,2.9396,2.9396,2.9237,2.9079,2.9079,2.9079,2.9079,2.9079,2.9079,2.9079,0.0,0.0,0.0,0.0,0.0,0.0,2.9669,0.0,2.9827,0.0,0.0,0.0,0.0,0.0,2.988,2.9591,2.958,0.0,2.8897,0.0,2.8297,2.7875,2.7655,2.7486,2.7309,2.7309,2.7309,2.7309,2.7309,2.7309,2.7309,2.7309,2.7309,2.7309,2.7309,2.7309,2.7309,2.7309,2.7309,2.7309,2.7309,2.7309,2.7309,3.5418,0.0,3.5418,0.0,3.5418,3.5294,3.5108,3.5046,3.4922,3.461,3.3597,3.2824,3.2522,3.186,3.1441,3.1441,3.1441,3.1441,3.1441,3.117,3.1054,3.117,3.1054,0.0,3.0995,3.1112,3.1064,3.0889,3.1005,0.0,0.0,0.0,0.0,0.0,2.9276,2.9089,2.9237,2.9237,2.929,2.9396,2.9554,2.9669,2.9722,2.9942,2.9994,2.9994,2.9994,2.9994,2.9994,2.9994,2.9879,2.9722,2.9722,2.9837,2.9994,2.9994,2.9994,2.9994,2.9994,2.9994,2.9994,2.9994,2.9879,2.9722,2.9722,2.9501,2.9343,2.9343,2.9343,2.9343,2.9343,2.9343,2.9353,2.9237,0.0,0.0,0.0,0.0,0.0,0.0,2.9994,2.9994,2.9994,0.0,0.0,0.0,0.0,0.0,0.0,0.0,0.0,0.0,0.0,0.0,0.0,2.7836,2.7715,2.7715,2.7441,2.7309,2.7309,2.7309,2.7309,2.7309,2.7309,2.7309,2.7309,2.7309,2.7309,2.7309,2.7309,2.7309,2.7309,2.7309,2.7309,2.733,3.5418,3.5418,3.5418,3.5418,3.5418,3.5418,3.5418,3.5418,3.5294,3.4922,3.4146,3.3465,3.3105,3.2321,3.1787,3.1787,3.1787,3.1787,3.1787,3.1498,3.1441,0.0,0.0,3.1325,3.1325,3.1614,3.1508,3.0889,0.0,0.0,3.0185,0.0,2.9639,2.9996,2.9695,2.9606,2.9606,2.9606,2.9774,2.9994,2.9722,2.9774,2.9994,2.9994,2.9994,2.9994,2.9994,2.9994,2.9994,2.9994,2.9994,2.9994,2.9994,2.9994,2.9994,2.9994,2.9994,2.9994,2.9994,2.9994,2.9994,2.9994,2.9994,2.9994,2.9994,2.9994,2.9994,2.9994,2.9994,2.9994,2.9994,2.9994,2.9889,2.9659,0.0,0.0,0.0,0.0,0.0,0.0,2.9994,2.9994,2.9994,0.0,0.0,0.0,0.0,0.0,0.0,0.0,0.0,2.7896,2.8882,0.0,2.8689,2.8678,2.8678,2.8678,2.7762,2.7309,2.7309,2.7309,2.7309,2.7309,2.7309,2.7309,2.7309,2.7309,2.7309,2.7309,2.7309,2.7309,2.7309,2.7309,2.7309,2.7372,3.5418,3.5418,3.5418,3.5418,3.5418,3.5418,3.5418,3.5418,3.5356,3.5232,3.451,3.3883,3.3764,3.2789,3.2133,0.0,3.2133,3.2133,0.0,3.1845,3.1672,3.1787,3.1672,3.1614,3.1614,3.173,3.173,3.1508,0.0,0.0,0.0,3.0514,3.0339,3.0585,2.9898,2.9722,2.9879,2.9879,2.9942,2.9994,2.9889,2.9942,2.9994,2.9994,2.9994,2.9994,2.9994,2.9994,2.9994,2.9994,2.9994,2.9994,2.9994,2.9994,2.9994,2.9994,2.9994,2.9994,2.9994,2.9994,2.9994,2.9994,2.9994,2.9994,2.9994,2.9994,2.9994,2.9994,2.9994,2.9994,2.9994,2.9994,2.9994,2.9889,2.9942,0.0,0.0,0.0,0.0,0.0,2.9994,2.9994,0.0,2.9994,0.0,0.0,0.0,0.0,0.0,0.0,0.0,0.0,2.9768,0.0,2.9715,2.9715,2.9406,2.8678,2.9084,2.8899,2.8269,2.8269,2.7904,2.7309,2.7309,2.7309,2.7309,2.7309,2.7309,2.7309,2.7309,2.7448,2.7717,2.7717,2.7914,2.8204,3.5418,3.5418,3.5418,3.5418,3.5418,3.5418,3.5418,3.5418,3.5418,3.5418,3.4631,3.4132,3.4132,3.309,0.0,3.243,3.243,3.243,3.243,3.2143,3.2018,3.2143,3.2018,3.196,3.196,0.0,0.0,3.1787,3.1787,3.1787,3.1767,3.0994,3.0736,3.085,3.0069,2.9827,2.9994,2.9994,2.9994,2.9994,2.9994,2.9994,2.9994,2.9994,2.9994,2.9994,2.9994,2.9994,2.9994,2.9994,2.9994,2.9994,2.9994,2.9994,2.9994,2.9994,2.9994,2.9994,2.9994,2.9994,2.9994,2.9994,2.9994,2.9994,2.9994,2.9994,2.9994,2.9994,2.9994,2.9994,2.9994,2.9994,2.9994,2.9994,3.0349,3.0443,3.0047,0.0,0.0,0.0,0.0,0.0,0.0,3.0339,0.0,0.0,0.0,0.0,0.0,0.0,0.0,3.0181,3.0531,0.0,3.0711,3.0711,3.0396,2.9806,3.0079,2.9852,2.9268,2.9268,2.8724,2.7809,2.7809,2.7631,2.7309,2.7309,2.7403,2.751,2.751,2.7779,2.8183,2.8183,2.8359,2.8638,3.5418,3.5418,0.0,0.0,3.5418,0.0,3.5418,3.5418,3.5407,3.5376,3.461,3.4111,3.402,3.3244,3.2669,3.2669,0.0,0.0,0.0,3.2487,3.243,3.268,3.243,3.2315,3.2315,3.2555,3.243,3.1845,3.1845,3.1845,3.1825,3.1208,3.0946,3.0915,3.0292,2.9994,2.9994,2.9994,2.9994,2.9994,2.9994,2.9994,2.9994,2.9994,2.9994,2.9994,2.9994,2.9994,2.9994,2.9994,2.9994,2.9994,2.9994,2.9994,2.9994,2.9994,2.9994,2.9994,2.9994,2.9994,2.9994,2.9994,2.9994,2.9994,2.9994,2.9994,2.9994,2.9994,2.9994,3.0047,3.0099,3.0099,3.0151,3.0193,3.1032,3.133,3.0339,0.0,0.0,0.0,0.0,0.0,0.0,3.1135,3.1728,0.0,0.0,0.0,0.0,0.0,3.0431,3.0396,3.1258,3.1713,3.1713,3.1713,3.1713,3.1669,3.0767,3.0306,3.0306,3.0306,2.9715,2.8678,2.871,2.8228,2.7351,2.7392,2.7603,2.7976,2.7976,2.8255,2.8659,2.8659,2.868,2.8773,0.0,0.0,3.5418,3.5418,3.5418,3.5418,3.5418,3.5418,3.5304,3.4962,3.4424,3.3938,3.3575,3.3058,3.2669,3.2669,3.2669,3.2669,3.2669,3.2612,3.2612,3.2669,3.2612,3.2612,3.2612,3.2669,3.2612,3.2498,3.2498,3.2498,3.2477,3.1684,3.1261,3.121,3.0408,2.9994,2.9994,2.9994,2.9994,2.9994,2.9994,2.9994,2.9994,2.9994,2.9994,2.9994,2.9994,2.9994,2.9994,2.9994,2.9994,2.9994,2.9994,2.9994,2.9994,2.9994,2.9994,2.9994,2.9994,2.9994,2.9994,2.9994,2.9994,2.9994,2.9994,2.9994,2.9994,2.9994,2.9994,3.0245,3.1084,3.1227,3.1483,3.2297,3.265,3.275,3.2499,3.265,0.0,0.0,3.2448,3.2448,3.2448,3.265,3.2801,0.0,0.0,0.0,0.0,3.3028,3.2825,3.245,3.2624,3.2754,3.2754,3.2754,3.2754,3.2711,3.1757,3.1258,3.1258,3.1258,3.0306,2.8699,2.907,2.8663,2.779,2.8152,2.8359,2.8452,2.8452,2.8731,2.9135,2.9135,2.9363,2.9684,3.5418,3.5418,3.5418,3.5418,3.5418,3.5418,3.5418,3.5418,3.5262,3.4878,3.4411,3.3896,3.343,3.2985,3.2669,3.2669,3.2669,3.2669,3.2669,3.2669,3.2669,3.2669,3.2669,3.2669,3.2669,3.2669,3.2669,3.2669,3.2669,3.2566,3.2339,3.1702,3.1267,3.1029,3.0315,2.9994,2.9994,2.9994,2.9994,2.9994,2.9994,2.9994,2.9994,2.9994,2.9994,2.9994,2.9994,2.9994,2.9994,2.9994,2.9994,2.9994,2.9994,2.9994,2.9994,2.9994,2.9994,2.9994,2.9994,2.9994,2.9994,2.9994,2.9994,2.9994,2.9994,2.9994,3.0151,3.064,3.0733,3.1032,3.2134,3.2336,3.2538,3.3101,3.3598,3.3747,3.325,3.3648,0.0,3.325,3.3201,3.3201,3.3201,3.3648,3.3944,3.3944,0.0,0.0,3.4225,3.3998,3.3646,3.3136,3.3124,3.3124,3.3124,3.3124,3.3124,3.3068,3.2537,3.2307,3.2264,3.2553,3.1839,3.0388,3.0445,2.9895,2.8911,2.8692,2.8742,2.8928,2.8928,2.9208,2.9622,2.9622,2.9777,2.9994,3.5418,3.5418,3.5418,3.5418,3.5418,3.5418,3.5418,3.5418,3.5242,3.4785,3.437,3.3865,3.3337,3.2954,3.2669,3.2669,3.2669,3.2669,3.2669,3.2669,3.2669,3.2669,3.2669,3.2669,3.2669,3.2669,3.2669,3.2669,3.2669,3.2432,3.1977,3.1588,3.1133,3.0667,3.0201,2.9994,2.9994,2.9994,2.9994,2.9994,2.9994,2.9994,2.9994,2.9994,2.9994,2.9994,2.9994,2.9994,2.9994,2.9994,2.9994,2.9994,2.9994,2.9994,2.9994,2.9994,2.9994,2.9994,2.9994,2.9994,2.9994,2.9994,2.9994,2.9994,2.9994,2.9994,3.0287,3.1381,3.1575,3.1982,3.3201,3.3449,3.3499,3.3648,3.4434,3.4727,3.3796,0.0,3.4678,3.3796,3.3697,3.3697,3.3697,3.4532,3.503,3.503,3.539,3.5596,0.0,3.4663,3.3859,3.3219,3.3162,3.3124,3.3124,3.3124,3.3124,3.3124,3.3124,3.3162,3.3262,3.3684,3.341,3.2527,3.2183,3.1394,3.0242,2.9412,2.9194,2.9415,2.9415,2.9653,2.9994,2.9994,2.9994,2.9994,3.5418,3.5418,3.5418,3.5418,3.5418,3.5418,3.5418,3.5418,3.5117,3.4279,3.4173,3.3751,3.2923,3.2711,3.2669,3.2669,3.2669,3.2669,3.2669,3.2669,3.2669,3.2669,3.2669,3.2669,3.2669,3.2669,3.2669,3.2669,3.2669,3.2432,3.1977,3.1588,3.1133,3.0667,3.0201,2.9994,2.9994,2.9994,2.9994,2.9994,2.9994,2.9994,2.9994,2.9994,2.9994,2.9994,2.9994,2.9994,2.9994,2.9994,2.9994,2.9994,2.9994,2.9994,2.9994,2.9994,2.9994,2.9994,2.9994,2.9994,2.9994,2.9994,2.9994,2.9994,2.9994,2.9994,3.0287,3.1381,3.1575,3.2174,3.419,3.4532,3.4824,3.5763,3.6061,3.6108,3.5918,0.0,3.6108,3.5918,3.5906,3.5906,3.5906,3.6061,3.6156,3.6156,3.6235,3.6031,3.552,3.5332,3.4781,3.3809,3.3319,3.3124,3.3124,3.3124,3.3124,3.3124,3.3124,3.3319,3.3771,3.3859,3.3632,3.3184,3.3492,3.2547,3.0816,3.1041,3.0655,2.9891,2.9891,2.9932,2.9994,2.9994,2.9994,2.9994,3.5418,3.5418,3.5418,3.5418,3.5418,3.5418,3.5418,3.5221,3.4828,3.4214,3.3903,3.3451,3.2742,3.2669,3.2669,3.2669,3.2669,3.2669,3.2669,3.2669,3.2669,3.2669,3.2669,3.2669,3.2669,3.2669,3.2669,3.2669,3.2669,3.2432,3.1977,3.1588,3.1133,3.0667,3.0201,2.9994,2.9994,2.9994,2.9994,2.9994,2.9994,2.9994,2.9994,2.9994,2.9994,2.9994,2.9994,2.9994,2.9994,2.9994,2.9994,2.9994,2.9994,2.9994,2.9994,2.9994,2.9994,2.9994,2.9994,2.9994,2.9994,2.9994,2.9994,3.0141,3.0733,3.0888,3.133,3.2978,3.3327,3.3822,3.5367,3.5667,3.581,3.631,3.6405,0.0,0.0,3.6405,3.6405,3.6405,3.6405,3.6405,3.6405,3.6405,3.6405,3.6405,3.6405,3.6304,3.5994,3.5658,3.527,3.4756,3.3671,3.3124,3.3124,3.3124,3.3124,3.3124,3.3382,3.3658,3.3922,3.4512,3.4686,3.4462,3.4424,3.3872,3.2992,3.2587,3.1841,3.0888,3.0888,3.0495,2.9994,2.9994,2.9994,2.9994,3.5418,3.5418,3.5418,3.5418,3.5418,3.5418,3.5418,3.5045,3.465,3.4194,3.3668,3.3213,3.2778,3.2669,3.2669,3.2669,3.2669,3.2669,3.2669,3.2669,3.2669,3.2669,3.2669,3.2669,3.2669,3.2669,3.2669,3.2669,3.2669,3.2432,3.1977,3.1588,3.1133,3.0667,3.0201,2.9994,2.9994,2.9994,2.9994,2.9994,2.9994,2.9994,2.9994,2.9994,2.9994,2.9994,2.9994,2.9994,2.9994,2.9994,2.9994,2.9994,2.9994,2.9994,2.9994,2.9994,2.9994,2.9994,2.9994,2.9994,2.9994,2.9994,2.9994,3.0297,3.1381,3.1575,3.2224,3.4385,3.4775,3.5126,3.6216,3.6405,3.6405,3.6405,0.0,0.0,0.0,3.6405,3.6405,3.6405,3.6405,3.6405,3.6405,3.6405,3.6405,3.6405,3.6405,3.6405,3.6405,3.5968,3.5621,3.5495,3.406,3.3206,3.3124,3.3124,3.3144,3.3269,3.3696,3.4035,3.4311,3.5107,3.5571,3.5708,3.5339,3.503,3.4727,3.3895,3.2939,3.1931,3.1677,3.1084,3.0339,3.0099,2.9994,2.9994,3.5418,3.5418,3.5418,3.5418,3.5418,3.5418,3.5418,3.5045,3.465,3.4194,3.3668,3.3213,3.2778,3.2669,3.2669,3.2669,3.2669,3.2669,3.2669,3.2669,3.2669,3.2669,3.2669,3.2669,3.2669,3.2669,3.2669,3.2669,3.2669,3.2432,3.1977,3.1588,3.1133,3.0667,3.0201,2.9994,2.9994,2.9994,2.9994,2.9994,2.9994,2.9994,2.9994,2.9994,2.9994,2.9994,2.9994,2.9994,2.9994,2.9994,2.9994,2.9994,2.9994,2.9994,2.9994,2.9994,2.9994,2.9994,2.9994,2.9994,2.9994,2.9994,2.9994,3.0297,3.1381,3.1575,3.2224,3.4385,3.4775,3.5126,3.6216,3.6405,3.6405,3.6405,0.0,0.0,3.6405,3.6405,3.6405,3.6405,3.6405,3.6405,3.6405,3.6405,3.6405,3.6405,3.6405,3.6405,3.6405,3.6367,3.6069,3.552,3.4437,3.3596,3.3081,3.3124,3.3332,3.3847,3.3884,3.4437,3.5382,3.5458,3.5818,3.6355,3.6298,3.5715,3.4775,3.4727,3.4042,3.3001,3.1982,3.1534,3.1381,3.0349,2.9994,2.9994,3.5418,3.5418,3.5418,3.5418,3.5418,3.5335,3.5055,3.4621,3.4225,3.3758,3.3254,3.2913,3.269,3.2669,3.2669,3.2669,3.2669,3.2669,3.2669,3.2669,3.2669,3.2669,3.2669,3.2669,3.2669,3.2669,3.2669,3.2669,3.2669,3.2587,3.2401,3.1723,3.1278,3.1081,3.0325,2.9994,2.9994,2.9994,2.9994,2.9994,2.9994,2.9994,2.9994,2.9994,2.9994,2.9994,2.9994,2.9994,2.9994,2.9994,2.9994,2.9994,2.9994,2.9994,2.9994,2.9994,2.9994,2.9994,2.9994,2.9994,2.9994,2.9994,3.0484,3.1289,3.2336,3.3089,3.3981,3.5463,3.5763,3.5918,3.631,3.6405,3.6405,3.6405,0.0,3.6405,3.6405,3.6405,3.6405,3.6405,3.6405,3.6405,3.6405,3.6405,3.6405,3.6405,3.6405,3.6405,3.6405,3.6405,3.6107,3.552,3.5094,3.4605,3.411,3.4098,3.4198,3.4412,3.4705,3.5094,3.5508,3.5893,3.6157,3.6405,3.6405,3.6156,3.5763,3.5763,3.5174,3.4141,3.3723,3.3189,3.2538,3.2145,3.1993,3.1902,3.5418,3.5418,3.5418,3.5418,3.5418,3.5273,3.4888,3.4422,3.3906,3.3441,3.3006,3.2669,3.2669,3.2669,3.2669,3.2669,3.2669,3.2669,3.2669,3.2669,3.2669,3.2669,3.2669,3.2669,3.2669,3.2669,3.2669,3.2669,3.2669,3.2669,3.2659,3.1805,3.1381,3.134,3.0408,2.9994,2.9994,2.9994,2.9994,2.9994,2.9994,2.9994,2.9994,2.9994,2.9994,2.9994,2.9994,2.9994,2.9994,2.9994,2.9994,2.9994,2.9994,2.9994,2.9994,2.9994,3.0245,3.0443,3.0099,3.0245,3.0443,3.0099,3.0795,3.188,3.2951,3.4042,3.5126,3.6168,3.6405,3.6405,3.6405,3.6405,3.6405,3.6405,3.6405,3.6405,3.6405,3.6405,3.6405,3.6405,3.6405,3.6405,3.6405,3.6405,3.6405,3.6405,3.6405,3.6405,3.6405,3.6405,3.6194,3.5818,3.5805,3.5617,3.524,3.4901,3.4768,3.4944,3.532,3.5596,3.5818,3.6194,3.6405,3.6405,3.6405,3.6405,3.6405,3.6405,3.5966,3.5271,3.4921,3.4337,3.3648,3.33,3.3201,3.3101,3.5418,3.5418,3.5418,3.5418,3.5418,3.5262,3.4878,3.4422,3.3955,3.343,3.2996,3.2669,3.2669,3.2669,3.2669,3.2669,3.2669,3.2669,3.2669,3.2669,3.2669,3.2669,3.2669,3.2669,3.2669,3.2669,3.2669,3.2669,3.2669,3.2669,3.2659,3.1805,3.1381,3.134,3.0408,2.9994,2.9994,2.9994,2.9994,2.9994,2.9994,2.9994,2.9994,2.9994,2.9994,2.9994,2.9994,2.9994,2.9994,2.9994,2.9994,2.9994,2.9994,2.9994,2.9994,2.9994,3.0795,3.1381,3.0297,3.0785,3.1381,3.0297,3.0836,3.188,3.2951,3.4042,3.5126,3.6156,3.6405,3.6405,3.6405,3.6405,3.6405,3.6405,3.6405,3.6405,3.6405,3.6405,3.6405,3.6405,3.6405,3.6405,3.6405,3.6405,3.6405,3.6405,3.6405,3.6405,3.6405,3.6405,3.6405,3.6405,3.6405,3.6405,3.6405,3.5278,3.4969,3.5508,3.5508,3.583,3.6405,3.6405,3.6405,3.6405,3.6405,3.6405,3.6405,3.6405,3.6405,3.631,3.5223,3.4824,3.4678,3.3598,3.325,3.3201,3.5418,3.5418,3.5418,3.5418,3.5159,3.4807,3.4401,3.3935,3.342,3.2985,3.2809,3.2669,3.2669,3.2669,3.2669,3.2669,3.2669,3.2669,3.2669,3.2669,3.2669,3.2669,3.2669,3.2669,3.2669,3.2669,3.2669,3.2669,3.2669,3.2669,3.2659,3.1805,3.1381,3.134,3.0408,2.9994,2.9994,2.9994,2.9994,2.9994,2.9994,2.9994,2.9994,2.9994,2.9994,2.9994,2.9994,2.9994,2.9994,2.9994,2.9994,2.9994,2.9994,2.9994,3.0141,3.0888,3.133,3.1677,3.2145,3.2499,3.2499,3.1381,3.1942,3.2989,3.4091,3.5126,3.6013,3.631,3.6405,3.6405,3.6405,3.6405,3.6405,3.6405,3.6405,3.6405,3.6405,3.6405,3.6405,3.6405,3.6405,3.6405,3.6405,3.6405,3.6405,3.6405,3.6405,3.6405,3.6405,3.6405,3.6405,3.6405,3.6405,3.6405,3.6405,3.6078,3.5956,3.6119,3.6119,3.6207,3.6405,3.6405,3.6405,3.6405,3.6405,3.6405,3.6405,3.6405,3.6405,3.6358,3.6061,3.5918,3.587,3.5571,3.5475,3.5319,3.5418,3.5418,3.5418,3.5418,3.5055,3.466,3.4194,3.3668,3.3223,3.2789,3.2669,3.2669,3.2669,3.2669,3.2669,3.2669,3.2669,3.2669,3.2669,3.2669,3.2669,3.2669,3.2669,3.2669,3.2669,3.2669,3.2669,3.2669,3.2669,3.2669,3.2659,3.1981,3.1547,3.135,3.0594,3.016,2.9994,2.9994,2.9994,2.9994,2.9994,2.9994,2.9994,2.9994,2.9994,2.9994,2.9994,2.9994,2.9994,2.9994,2.9994,2.9994,2.9994,2.9994,3.0193,3.1289,3.188,3.2387,3.3001,3.3499,3.3685,3.3028,3.3338,3.3993,3.4629,3.5619,3.6405,3.6405,3.6405,3.6405,3.6405,3.6405,3.6405,3.6405,3.6405,3.6405,3.6405,3.6405,3.6405,3.6405,3.6405,3.6405,3.6405,3.6405,3.6405,3.6405,3.6405,3.6405,3.6405,3.6405,3.6405,3.6405,3.6405,3.6405,3.6405,3.6405,3.6405,3.6405,3.6405,3.6405,3.6405,3.6405,3.6405,3.6405,3.6405,3.6405,3.6405,3.6405,3.6405,3.6405,3.6405,3.6405,3.6405,3.6405,3.6405,3.631,3.5418,3.5418,3.5407,3.5366,3.4993,3.4598,3.4132,3.3617,3.3172,3.2789,3.2669,3.2669,3.2669,3.2669,3.2669,3.2669,3.2669,3.2669,3.2669,3.2669,3.2669,3.2669,3.2669,3.2669,3.2669,3.2669,3.2669,3.2669,3.2669,3.2669,3.2659,3.2204,3.1805,3.136,3.0895,3.0429,2.9994,2.9994,2.9994,2.9994,2.9994,2.9994,2.9994,2.9994,2.9994,2.9994,2.9994,2.9994,2.9994,2.9994,2.9994,2.9994,2.9994,2.9994,3.0193,3.1289,3.2336,3.3201,3.33,3.4141,3.4921,3.4921,3.4921,3.4921,3.4921,3.5715,3.6405,3.6405,3.6405,3.6405,3.6405,3.6405,3.6405,3.6405,3.6405,3.6405,3.6405,3.6405,3.6405,3.6405,3.6405,3.6405,3.6405,3.6405,3.6405,3.6405,3.6405,3.6405,3.6405,3.6405,3.6405,3.6405,3.6405,3.6405,3.6405,3.6405,3.6405,3.6405,3.6405,3.6405,3.6405,3.6405,3.6405,3.6405,3.6405,3.6405,3.6405,3.6405,3.6405,3.6405,3.6405,3.6405,3.6405,3.6405,3.6405,3.6405,3.5418,3.5418,3.5314,3.4962,3.4517,3.4062,3.3596,3.3151,3.284,3.269,3.2669,3.2669,3.2669,3.2669,3.2669,3.2669,3.2669,3.2669,3.2669,3.2669,3.2669,3.2669,3.2669,3.2669,3.2669,3.2669,3.2669,3.2669,3.2669,3.2669,3.2659,3.2204,3.1805,3.136,3.0895,3.0429,2.9994,2.9994,2.9994,2.9994,2.9994,2.9994,2.9994,2.9994,2.9994,2.9994,2.9994,2.9994,2.9994,2.9994,2.9994,2.9994,2.9994,2.9994,3.0193,3.1289,3.2336,3.34,3.4239,3.5223,3.6061,3.6061,3.6061,3.6061,3.6061,3.6216,3.6405,3.6405,3.6405,3.6405,3.6405,3.6405,3.6405,3.6405,3.6405,3.6405,3.6405,3.6405,3.6405,3.6405,3.6405,3.6405,3.6405,3.6405,3.6405,3.6405,3.6405,3.6405,3.6405,3.6405,3.6405,3.6405,3.6405,3.6405,3.6405,3.6405,3.6405,3.6405,3.6405,3.6405,3.6405,3.6405,3.6405,3.6405,3.6405,3.6405,3.6405,3.6405,3.6405,3.6405,3.6405,3.6405,3.6405,3.6405,3.6405,3.6405,3.5418,3.5252,3.5035,3.4857,3.4256,3.3658,3.342,3.3006,3.2669,3.2669,3.2669,3.2669,3.2669,3.2669,3.2669,3.2669,3.2669,3.2669,3.2669,3.2669,3.2669,3.2669,3.2669,3.2669,3.2669,3.2669,3.2669,3.2669,3.2669,3.2669,3.2669,3.2432,3.2126,3.1671,3.1215,3.076,3.0315,3.0087,2.9994,2.9994,2.9994,2.9994,2.9994,2.9994,2.9994,2.9994,2.9994,2.9994,2.9994,2.9994,2.9994,2.9994,2.9994,2.9994,3.0297,3.1891,3.2739,3.3549,3.5126,3.5966,3.6405,3.6405,3.6405,3.6405,3.6405,3.6405,3.6405,3.6405,3.6405,3.6405,3.6405,3.6405,3.6405,3.6405,3.6405,3.6405,3.6405,3.6405,3.6405,3.6405,3.6405,3.6405,3.6405,3.6405,3.6405,3.6405,3.6405,3.6405,3.6405,3.6405,3.6405,3.6405,3.6405,3.6405,3.6405,3.6405,3.6405,3.6405,3.6405,3.6405,3.6405,3.6405,3.6405,3.6405,3.6405,3.6405,3.6405,3.6405,3.6405,3.6405,3.6405,3.6405,3.6405,3.6405,3.6405,3.6405,3.5418,3.5066,3.4795,3.4712,3.3938,3.3348,3.3275,3.2965,3.2669,3.2669,3.2669,3.2669,3.2669,3.2669,3.2669,3.2669,3.2669,3.2669,3.2669,3.2669,3.2669,3.2669,3.2669,3.2669,3.2669,3.2669,3.2669,3.2669,3.2669,3.2669,3.2669,3.2669,3.2432,3.1967,3.165,3.1195,3.0657,3.0274,3.0067,2.9994,2.9994,2.9994,2.9994,2.9994,2.9994,3.0047,3.0193,3.0287,3.0287,3.0287,3.0141,2.9994,2.9994,2.9994,3.0349,3.2156,3.2901,3.3598,3.5367,3.6108,3.6405,3.6405,3.6405,3.6405,3.6405,3.6405,3.6405,3.6405,3.6405,3.6405,3.6405,3.6405,3.6405,3.6405,3.6405,3.6405,3.6405,3.6405,3.6405,3.6405,3.6405,3.6405,3.6405,3.6405,3.6405,3.6405,3.6405,3.6405,3.6405,3.6405,3.6405,3.6405,3.6405,3.6405,3.6405,3.6405,3.6405,3.6405,3.6405,3.6405,3.6405,3.6405,3.6405,3.6405,3.6405,3.6405,3.6405,3.6405,3.6405,3.6405,3.6405,3.6405,3.6405,3.6405,3.6405,3.6405,3.5418,3.5066,3.4691,3.4287,3.3731,3.3244,3.2871,3.2711,3.2669,3.2669,3.2669,3.2669,3.2669,3.2669,3.2669,3.2669,3.2669,3.2669,3.2669,3.2669,3.2669,3.2669,3.2669,3.2669,3.2669,3.2669,3.2669,3.2669,3.2669,3.2669,3.2669,3.2669,3.2432,3.1988,3.1926,3.1485,3.0677,3.0615,3.0356,2.9994,2.9994,2.9994,2.9994,2.9994,2.9994,3.0141,3.1032,3.1381,3.1381,3.1381,3.0785,2.9994,2.9994,2.9994,3.0047,3.0349,3.175,3.325,3.3549,3.4981,3.6405,3.6405,3.6405,3.6405,3.6405,3.6405,3.6405,3.6405,3.6405,3.6405,3.6405,3.6405,3.6405,3.6405,3.6405,3.6405,3.6405,3.6405,3.6405,3.6405,3.6405,3.6405,3.6405,3.6405,3.6405,3.6405,3.6405,3.6405,3.6405,3.6405,3.6405,3.6405,3.6405,3.6405,3.6405,3.6405,3.6405,3.6405,3.6405,3.6405,3.6405,3.6405,3.6405,3.6405,3.6405,3.6405,3.6405,3.6405,3.6405,3.6405,3.6405,3.6405,3.6405,3.6405,3.6405,3.6405,3.5107,3.4683,3.4287,3.3762,3.3317,3.2954,3.27,3.2669,3.2669,3.2669,3.2669,3.2669,3.2669,3.2669,3.2669,3.2669,3.2669,3.2669,3.2669,3.2669,3.2669,3.2669,3.2669,3.2669,3.2669,3.2669,3.2669,3.2669,3.2669,3.2669,3.2669,3.2669,3.2566,3.2359,3.2101,3.176,3.1402,3.0905,3.0563,3.0356,3.0098,2.9994,2.9994,2.9994,2.9994,3.0141,3.1227,3.1982,3.2488,3.2488,3.179,3.0991,3.1597,3.095,3.0245,3.1454,3.2448,3.335,3.3944,3.5223,3.6405,3.6405,3.6405,3.6405,3.6405,3.6405,3.6405,3.6405,3.6405,3.6405,3.6405,3.6405,3.6405,3.6405,3.6405,3.6405,3.6405,3.6405,3.6405,3.6405,3.6405,3.6405,3.6405,3.6405,3.6405,3.6405,3.6405,3.6405,3.6405,3.6405,3.6405,3.6405,3.6405,3.6405,3.6405,3.6405,3.6405,3.6405,3.6405,3.6405,3.6405,3.6405,3.6405,3.6405,3.6405,3.6405,3.6405,3.6405,3.6405,3.6405,3.6405,3.6405,3.6405,3.6405,3.6405,3.6405]}]]